GFSGBSN_prec_radar_000.txt.gz
Reflectivity
-6 11 -20 4 -20 -20 -20 -20 -19 -2 -9 -15 -20 2 -20 -20 -20 -20 -20 -20 -20 -18 -12 -16 29 6 21 17 -13 -20 -20 -20 -20 -20 -20 -9 -20 -20 -20 -20 -20 -20 -20 -20 -20 -20 -20
15 0 15 -18 -2 10 -5 -20 -20 -17 -17 0 -20 -16 -20 -20 -20 -20 -20 -20 -20 -20 -20 -2 -11 23 8 -2 -20 -20 -20 -20 -20 -20 -20 17 -20 -20 -20 -20 -20 -20 -20 -20 -20 -20 -20
16 -20 -13 -13 -4 11 3 -20 -20 -20 -17 -20 -6 6 -20 -20 -20 -20 -20 -20 -20 -20 -20 -17 23 29 8 -20 -20 -20 -20 -20 -20 -20 -20 4 -5 -20 -20 -20 -20 -20 -20 -20 -20 -20 -20
19 -20 -20 -13 -20 9 -20 -20 -14 -20 -20 -11 -4 17 -18 -20 -20 -20 -20 0 -20 -20 -20 23 1 22 -18 -20 -20 -20 -20 -20 -20 -20 -20 19 -10 -20 -3 9 -20 -20 -20 -20 -20 -20 -20
16 14 -5 -20 -20 -5 3 -14 -20 -14 -20 -8 2 -1 1 7 0 19 7 -17 14 -10 -15 26 16 15 9 -20 -20 -20 -20 -20 -20 -20 -20 16 16 -20 11 0 -11 -20 -20 -20 -20 -20 -20
16 -6 -4 -2 -20 -18 -5 9 -20 -8 -20 5 8 6 7 -3 5 8 22 5 24 16 18 10 16 24 -17 -20 -20 -20 -20 -20 -3 -20 1 18 25 17 -20 -8 11 -16 -20 -20 -20 -20 -20
-8 14 13 0 -20 3 -20 2 -1 -20 -15 0 -9 16 11 20 13 24 30 25 1 -20 11 -20 -20 -20 -20 -20 -20 -20 -20 -20 -6 -20 15 -7 25 14 -9 -20 -20 -20 -20 -20 -20 -20 -20
9 18 11 18 -20 -14 -20 -9 -20 -20 -19 1 3 22 26 27 21 26 25 5 11 -12 -7 -20 -20 -20 -20 20 5 -20 -20 -15 4 -20 3 21 -9 -18 -20 -20 -19 -20 -20 -20 -20 -20 -20
15 15 14 17 13 -20 -20 -20 -16 -20 -20 6 12 14 30 28 28 26 23 2 23 -16 15 -16 -20 -20 -20 17 13 -20 -20 -5 5 -20 -6 14 8 -20 -20 -20 -20 -12 -20 -20 -20 -20 -20
16 17 17 14 13 12 -20 -20 -20 -20 -20 -8 19 10 27 33 33 27 18 32 31 22 35 5 -0 -20 -20 19 17 -18 -20 -14 -6 -20 -19 19 -1 18 -20 -20 -20 3 -20 -20 -20 -20 -20
14 19 16 15 12 16 -4 -20 -8 -20 -20 -10 3 18 23 35 31 27 30 34 31 28 20 -8 4 -20 -20 17 23 21 -20 -20 -5 -20 13 9 -4 31 13 -20 -20 -20 -20 -20 -19 -20 -20
16 5 15 12 14 11 14 -11 -3 -8 -20 -20 -20 9 18 31 30 32 24 29 23 30 8 7 1 -20 -13 -20 23 -11 -18 18 2 -14 -11 24 6 27 -20 -13 -20 -20 -13 27 -11 -20 -20
-8 13 11 13 12 20 16 16 -19 12 -20 -20 -20 -13 9 30 35 37 33 30 33 15 30 0 -8 -5 -1 -10 24 -12 -13 -8 26 3 13 -20 -4 -20 -20 15 -6 29 9 24 -20 -20 -20
14 14 6 8 14 12 13 11 -20 14 -20 -20 -20 3 9 3 34 34 35 25 2 32 5 -15 -9 -20 -15 -20 19 9 21 17 27 -20 -20 4 14 21 24 -20 -20 14 -6 -20 -20 -20 -20
11 20 -5 16 -3 16 20 11 -19 12 1 -18 4 -19 9 8 25 32 36 31 31 -13 17 22 9 -20 -4 24 17 24 17 22 23 -20 -3 2 14 -20 -20 -20 4 28 -6 -20 -20 -20 -20
13 15 3 11 -20 13 21 13 -19 12 3 2 -14 -9 -20 16 23 29 34 34 36 -6 -20 -0 -3 0 24 26 22 33 23 24 21 -8 -20 -20 -20 -20 -20 -18 -1 -13 -11 -20 -20 -20 -20
11 16 3 11 15 8 19 12 -20 12 -11 -14 -1 -20 -14 22 29 37 34 31 29 -19 -20 -1 3 -15 -10 -15 32 6 -11 11 -1 2 -13 -20 -20 -19 -19 -16 -1 -13 -19 -20 -20 -20 -20
7 18 11 5 13 12 19 -6 -20 13 -20 -20 -20 -20 12 18 34 31 38 37 19 -13 14 -20 -20 -15 -20 -20 20 37 17 -7 -20 -20 -20 -20 -20 -20 -20 -20 -18 -20 -20 -20 -20 -20 -20
11 15 13 11 8 4 14 5 4 15 -9 -20 -20 -20 -3 25 31 26 33 30 11 -9 6 14 -20 -20 -9 -20 -9 -17 27 0 -20 -20 -20 -20 -20 -20 -6 -16 -20 -20 -20 -20 -20 -20 -20
10 -2 14 -4 10 1 15 7 15 13 -4 -20 -20 -20 5 18 3 23 26 29 29 30 24 16 -20 -19 -20 -2 -17 -16 28 -8 -20 -20 -20 -8 -20 -20 -14 -20 -20 -20 -20 -20 -20 -20 -20
19 12 15 -7 10 7 12 8 13 9 5 -18 -20 -20 -16 -20 5 -7 14 29 29 31 16 -11 2 -20 -20 -20 -20 -20 -20 -20 9 -18 -20 14 -20 -20 -20 -20 -20 -20 -20 -20 -20 -20 -20
18 -19 9 6 4 13 10 12 8 13 -20 -20 -20 -20 -20 -20 -14 -13 23 32 24 24 24 -9 -20 -20 -20 -20 -20 -20 -20 -20 -20 -1 -20 11 -20 -20 -20 -20 -20 -20 -20 -20 -20 -20 -20
20 -20 -20 10 11 11 10 6 10 13 -20 -20 -20 -20 -20 -20 -20 -14 5 14 16 -13 17 2 -20 -20 -20 -18 -20 -20 -20 -20 -20 -19 -9 5 -12 -20 -20 -20 -20 -20 -20 -20 -20 -20 -20
24 -20 -20 -7 11 12 12 10 9 13 -20 -20 -20 -20 -20 -20 -20 -20 -18 -3 -16 -20 -17 -20 -17 -20 -0 17 -20 -15 -20 -20 -1 -20 -20 -20 -20 -20 -20 -20 -20 -20 -20 -20 -20 -20 -20
16 6 -20 -20 12 12 14 13 10 12 -20 -20 -20 -20 -20 -20 -20 -20 -20 -20 -19 7 8 5 15 25 7 -11 2 -20 -12 -16 -20 -20 -20 -20 -17 -20 -20 -20 -20 -20 -20 -20 -20 -20 -20
11 8 10 4 8 1 14 14 10 9 -19 -20 -20 -20 -20 -20 -20 -20 -20 -20 -20 -20 -9 -6 -20 -18 8 9 -16 -16 -20 -5 -11 -20 -12 -12 -20 -20 -20 -20 -20 -20 -20 -20 -20 -20 2
16 7 7 1 -6 5 17 10 11 4 -14 -20 -20 -20 -20 -20 -20 -20 -20 -20 -20 -20 -20 -20 -20 -20 -6 11 -14 4 16 -20 -20 -20 -20 -20 -20 -20 -20 -20 -20 -20 -20 -20 -20 -18 -1
17 11 9 9 -7 9 15 13 13 1 -10 -20 -20 -20 -20 -20 -20 -20 -20 -20 -20 -20 -20 -20 -20 -20 -20 -20 -20 -20 -20 -20 -20 -20 -20 -20 -20 -20 -20 -20 -20 -20 -20 -20 -20 -20 -20
23 2 -14 3 -8 5 14 13 13 5 -20 -20 -20 -20 -20 -20 -20 -20 -20 -20 -20 -20 -20 -20 -20 -20 -20 -20 -20 -20 -20 -20 -20 -20 -20 -20 -20 -20 -20 -20 -20 -20 -20 -20 -20 -20 -20

GFSGBSN_prec_radar_003.txt.gz
Reflectivity
13 16 15 14 -13 6 -18 -20 -19 -20 -20 2 -20 -20 -20 -20 -2 -8 -1 -20 -19 -20 -6 -1 -20 -20 1 -10 -7 -20 -20 -20 -20 -2 -20 -14 7 -1 -4 -20 -20 -20 -20 -20 -20 -20 -20
-1 14 -7 2 10 14 15 12 -20 -20 -20 -20 -19 -20 -20 -20 -20 -1 -20 -20 -20 -13 -1 10 15 4 -11 -1 -20 -20 -20 -20 -20 0 -20 -20 7 -20 -20 -20 -7 -20 -20 -20 -20 -20 -20
13 18 10 -18 3 -13 -1 3 -20 -20 -20 -18 -20 -3 -14 -20 12 -20 -20 2 -20 -20 -20 -16 -2 -14 9 -20 -20 -20 -20 -20 -20 -20 -20 -20 -20 -20 -20 -20 -20 -20 -20 -20 -20 -20 -20
14 16 17 -8 -20 2 -2 5 -16 -20 -11 -1 -13 -11 -15 -7 6 -17 -13 16 8 -11 14 -20 17 0 2 -20 -20 -20 -20 -20 -20 -20 -20 -20 6 6 -13 -20 -20 12 -10 -4 -20 -20 -20
10 16 15 17 9 -20 1 -7 12 -20 -20 -20 -20 -20 -4 2 7 -6 11 17 -19 20 24 -4 -20 14 -20 -20 -20 -20 -20 -20 -20 -20 -20 -20 16 22 16 11 3 -13 -10 -20 -20 -20 -20
7 12 12 15 14 10 7 -20 14 -20 -20 -20 -20 8 -10 1 2 4 16 25 24 23 20 -11 -18 6 -20 -20 -15 -20 -20 -20 21 14 5 8 11 26 16 15 14 6 -9 -20 -20 -20 -20
11 12 14 13 16 13 3 -16 -5 -20 -20 -20 -20 -20 1 1 16 18 21 36 25 25 5 7 -20 -20 -20 -20 -20 -20 -20 -20 -15 26 -20 -20 24 23 11 6 -20 -7 -20 -20 -20 -20 -20
8 15 16 13 11 16 -4 -20 -20 -20 -20 -20 -20 -20 13 -0 17 19 24 34 25 17 16 12 -20 -20 -20 24 -20 -20 -20 -20 5 8 -18 15 22 18 -13 9 -17 -20 -20 -20 -20 -20 -20
13 6 13 15 11 11 14 -19 -20 -20 -20 -20 -20 -20 -3 5 22 17 22 25 28 23 23 -6 -20 -20 -20 -20 -19 -18 -20 -20 20 5 7 4 20 -19 -7 14 10 -18 -20 -20 -20 -20 -20
16 14 8 15 18 10 14 8 -20 -20 -20 -20 -20 -9 -10 7 23 24 28 32 30 27 35 -8 -3 -20 -20 18 -10 -9 -20 -20 20 8 5 2 29 -14 14 -2 -20 -20 -20 -20 -20 -20 -20
18 17 16 19 13 14 14 19 -6 -20 -20 -20 -20 -11 9 -10 20 30 21 33 35 34 17 -9 -5 -11 -20 -20 -3 -20 -20 -17 3 -1 21 27 29 9 3 -7 -20 -18 -20 -20 -20 -20 -20
12 7 13 20 18 17 15 16 15 18 -20 -16 -20 -20 5 -2 9 28 29 32 34 28 17 16 20 14 7 -15 13 26 -20 16 24 12 7 34 5 17 -20 -20 -20 -20 2 -8 -20 -20 -20
13 11 11 12 15 17 17 16 17 20 13 2 -9 6 14 -11 16 25 30 31 29 19 5 23 26 11 -18 -20 1 3 -20 -5 38 29 30 40 -6 -1 15 3 -7 -1 -4 -12 2 16 -20
9 11 21 23 18 17 11 19 18 19 16 13 -17 10 12 2 16 25 31 28 14 -2 9 23 -20 12 -17 -20 20 3 -20 -18 35 -10 -17 27 34 -20 11 36 -3 11 4 -16 -3 -20 -20
9 5 14 17 17 18 14 20 16 4 13 17 9 -19 13 -19 15 30 33 23 7 18 17 3 5 -17 -6 -18 23 15 -20 -17 20 -11 -3 15 15 -20 -20 6 -19 34 -5 -12 -20 -20 -20
3 7 20 8 14 13 16 14 15 3 11 14 -20 6 -2 -7 19 24 34 35 27 35 19 -20 -20 -20 -19 -14 32 -14 8 -8 26 -18 -20 -20 -15 -20 -20 -13 -15 -10 -20 11 -19 -20 -20
8 11 16 11 15 13 11 10 17 13 12 -3 -14 -18 -18 16 26 28 36 32 34 33 -17 -20 -3 -7 -20 -20 27 -15 -20 12 19 7 -20 -20 -20 -20 -20 -19 -1 -20 -17 -9 6 -20 -20
22 7 20 10 14 14 12 10 15 12 4 -20 -20 -20 12 24 25 18 22 34 27 8 -14 -18 -20 3 -20 -20 -20 -2 10 -3 -1 -12 -20 -20 -20 -20 -20 -20 -20 -20 -20 -12 -20 -20 -20
-15 -10 18 12 15 12 14 14 13 11 13 -20 -20 3 24 17 15 31 27 34 18 -4 10 -16 -20 -20 -20 -9 22 9 -0 -20 -20 16 -20 -20 -20 -20 -20 -20 -20 -20 -20 -20 -20 -20 -20
-2 18 9 11 11 14 15 15 -3 15 18 -18 -20 -5 19 18 5 12 34 37 26 16 13 11 -20 -20 -20 -20 -20 -20 -14 -20 -20 -20 -19 -20 -20 -20 -20 -20 -20 -20 -20 -20 -20 -20 -20
10 21 -13 11 13 13 13 15 -1 13 22 -19 -20 -20 -18 9 -8 -19 30 36 31 28 35 27 0 -20 -20 -20 -20 -20 13 -20 -6 -20 12 -8 -20 -20 -20 -20 -20 -20 -20 -20 -20 -20 -20
20 3 24 -4 13 10 14 16 6 8 22 -19 -20 -20 -20 -20 -20 -20 22 38 34 31 34 13 -13 -20 -20 -20 -20 -20 -7 -20 -20 -7 -20 -20 -20 -20 -20 -20 -20 -20 -20 -20 -20 -20 -20
21 24 22 -0 -6 -20 9 15 12 13 13 -20 -20 -20 -20 -20 -20 -20 -5 29 32 31 26 8 -20 -20 12 -14 -20 -11 3 4 -20 -19 -20 -16 -20 -20 -1 -20 -20 -20 -20 -20 -20 -20 -20
25 21 18 7 -20 -20 5 14 12 15 11 -20 -20 -20 -20 -20 -13 -12 -20 25 31 21 22 -20 -5 -12 -20 -20 -20 -20 -20 -17 3 -13 -2 -20 16 23 1 -12 -20 -20 -20 -20 -20 -20 -20
31 20 7 24 -20 -20 11 12 14 13 16 -16 -20 -20 -20 -20 -8 -12 -20 19 30 19 13 -20 -12 -6 -20 -14 -20 -20 -20 5 -2 29 8 22 24 21 -20 -20 -20 -20 -20 -20 -20 -20 -20
26 22 17 22 -20 -20 9 10 10 14 18 -7 -20 -20 -20 -20 -20 -20 -20 4 24 15 12 -15 -9 22 24 -18 -20 -14 -1 -20 3 -17 -20 -20 -20 -20 -6 -20 -20 1 -20 -20 -20 -20 -20
30 21 20 22 0 -20 8 6 1 14 13 -16 -20 -20 -20 -20 -20 -20 -20 -6 8 8 14 14 -3 16 6 14 2 -5 3 -14 -20 -20 -20 -17 -12 24 -6 3 -17 9 -9 -20 -20 -20 -20
29 15 17 28 6 -20 7 7 7 8 13 1 -20 -20 -20 -20 -20 -20 -20 -20 -20 -20 -20 -10 14 -2 23 10 -16 -20 -20 -20 -17 -8 -14 -11 -19 -20 -20 -20 -20 -20 -20 -20 -20 -20 -20
28 19 22 29 -17 -14 9 11 8 2 16 12 -20 -20 -20 -20 -20 -20 -20 -20 -20 -20 -20 -20 -20 -20 -19 2 3 -20 -20 -20 -20 -20 -20 -3 -18 -20 -20 -20 -20 -20 -20 -20 -20 -20 -20

GFSGBSN_prec_radar_006.txt.gz
Reflectivity
9 -1 8 9 -20 7 0 -20 -20 -20 -20 -8 -14 -20 -20 -20 -20 -20 -20 -20 -20 -20 -8 -20 -20 -20 13 -2 -3 -20 -20 -20 -20 -14 -14 -20 10 4 10 4 -20 -20 -20 -20 -20 -20 -20
-20 13 13 10 -2 9 -14 16 11 -20 -20 -20 -1 -20 -20 -20 -20 -20 -20 -20 -20 -20 -20 -20 9 12 5 12 -20 -20 -20 -20 -20 -20 -3 -20 -3 -20 -20 -13 11 -20 -20 -20 -20 -20 -20
-20 -20 13 16 0 -20 -20 6 13 -20 -20 -20 -2 -20 -20 -20 -20 -20 -20 -20 -20 -20 -20 -8 19 -19 14 -20 -20 -20 -20 -20 -20 -20 -20 -20 -20 23 -18 18 -20 -20 -20 -20 -20 -20 -20
7 8 1 16 12 11 4 -20 -20 -20 -20 -20 -9 10 5 -20 -20 -20 -20 -20 -20 -8 -17 -18 -2 6 -16 -20 -20 -20 -20 -20 -20 -20 -20 -20 -20 19 23 -20 -13 15 12 8 -20 -20 -20
-20 16 15 12 15 -14 -5 -4 -20 -2 -17 -20 -19 6 -20 12 -20 -20 -20 -20 19 -11 18 -9 -16 14 -18 -20 -20 -20 -20 -20 -20 -20 -20 -20 -0 18 2 15 20 15 7 -20 -20 -20 -20
1 -13 12 15 15 11 7 11 -20 -20 11 -20 -18 2 10 13 -20 -8 -18 -9 4 23 18 11 5 -13 -20 -20 -20 -20 -20 -20 -20 11 23 10 8 23 24 -15 13 10 6 -20 -20 -20 -20
8 -7 -4 14 16 10 14 10 7 -20 5 -20 -20 2 -20 11 13 -20 -6 -7 27 23 9 -17 -20 -20 -20 -20 -20 -20 -20 -20 -20 23 20 -5 13 19 11 12 20 -20 -20 -20 -20 -20 -20
2 -2 -18 12 16 11 16 17 -20 -20 -20 -20 -20 -2 -11 -15 17 -4 20 21 7 2 19 -14 2 -0 -10 -20 -18 -20 -20 -20 -20 -6 23 16 10 4 36 7 6 -20 -19 -20 -20 -20 -20
-20 -4 -14 -14 13 14 15 13 -2 -20 -20 -20 -20 -20 -20 -19 -20 -5 14 23 20 28 34 23 19 24 22 -20 -20 27 -20 -20 -20 16 35 28 7 17 33 15 24 -2 -20 -20 -20 -20 -20
12 -17 16 -20 -7 19 11 10 1 -1 -20 -20 -20 -20 -12 -20 -15 11 21 20 30 33 38 21 19 25 25 12 -11 -20 -20 -20 12 31 35 14 6 22 18 10 14 8 -20 -20 -20 12 12
-20 -14 5 -19 -20 20 19 11 8 -7 5 -20 -20 -20 12 -20 7 -6 5 27 23 35 25 6 5 12 10 -0 -20 -20 -20 -20 -7 22 35 27 25 35 17 12 -8 10 -20 -20 -19 10 -20
20 -2 7 8 13 14 19 18 19 15 20 -10 -15 -18 -20 8 9 -3 17 28 30 29 14 13 16 14 13 7 -8 -2 14 -20 14 5 10 19 18 39 6 20 16 -20 -20 -20 -20 -17 -12
24 3 5 10 3 4 16 16 15 14 16 14 23 4 -16 -20 1 -17 19 27 27 18 18 27 27 31 25 -2 -16 14 -2 -4 30 24 23 30 41 19 18 32 23 -1 -9 16 6 0 -13
-3 18 5 16 -20 18 18 15 9 19 17 12 23 18 -19 -20 -12 3 24 32 19 25 24 27 22 17 26 -1 8 13 5 10 29 10 12 37 30 33 4 28 31 -15 -5 -14 1 -20 -20
27 24 17 28 17 19 16 15 10 19 13 -0 24 5 2 -6 19 9 26 23 10 22 18 29 24 16 18 11 -20 20 2 -14 12 9 27 27 30 41 13 -19 -4 13 -12 -20 -20 -20 -20
33 23 19 24 20 12 11 14 13 18 18 11 6 -11 -10 -12 13 25 32 27 26 28 31 -7 -20 -13 -5 -18 -12 19 -8 -8 -13 -11 30 30 35 26 23 17 10 18 -10 -20 -20 -20 -20
34 23 15 21 21 6 11 12 15 17 18 19 -8 -10 -20 -4 21 25 30 29 25 27 12 -20 -20 -20 -20 -20 -19 7 -20 -15 -20 -20 19 15 21 22 16 -1 14 15 20 -17 -20 -20 -20
36 28 13 17 20 -15 18 14 19 15 12 14 -20 4 9 8 25 20 15 31 28 21 -20 -20 -20 -20 -20 -20 -15 -10 -20 -10 -20 1 -19 -20 -16 15 -19 -12 20 -4 -19 14 -5 -20 -20
32 24 23 23 14 12 11 14 14 16 10 -15 -20 -8 26 18 22 11 16 32 31 15 -20 -20 -20 -20 -20 -20 -20 -20 -20 -10 -20 -20 -20 -20 -20 -20 21 3 -19 1 -20 -20 -20 -20 -20
27 31 24 13 19 6 11 9 13 14 17 1 -18 -1 26 25 2 20 35 32 33 -7 -10 12 -20 -20 -20 -20 -20 -20 -20 -20 -20 -20 -20 -20 -20 -20 -20 -20 -20 -20 -20 -20 -20 -20 -20
30 34 24 22 24 11 12 13 12 10 17 3 -20 -20 -14 16 2 -9 29 30 36 21 17 21 -10 -20 -20 -20 -8 -16 -19 -20 -20 -2 -0 -20 -20 -20 -20 -20 -20 -20 -20 -20 -20 -20 -20
28 35 27 19 26 17 13 15 13 13 16 5 -20 -20 -20 -20 -20 -10 30 27 36 28 17 25 -10 -20 -20 -20 -20 -20 -20 -20 -20 -16 -20 -20 -8 -20 -20 -20 -20 -20 -20 -20 -20 -20 -20
22 34 25 16 24 16 10 11 13 11 19 -8 -20 -20 -20 -20 -20 -20 24 30 32 31 24 29 26 4 -15 -20 -20 1 -19 0 16 11 -5 -20 -20 -20 -20 -20 -20 -20 -20 -20 -20 -20 -20
18 35 26 17 20 16 -18 3 12 7 2 -18 -20 -20 -20 -20 -20 7 17 28 31 16 27 28 -14 2 -20 -20 -20 -19 22 1 12 13 7 -20 -20 -20 -20 -20 -20 -20 -20 -20 -20 -20 -20
13 33 30 25 17 26 -20 -14 10 6 11 -1 -20 -20 -20 -20 -20 -10 1 32 26 9 30 -5 -20 -18 -3 -12 -4 -2 19 22 11 9 -0 -5 -20 -20 -20 18 -20 -20 -20 -20 -20 -20 -20
19 28 28 23 11 35 -18 -20 11 -15 16 11 -20 -20 -20 -20 -20 -10 -19 25 33 -1 -20 -11 -20 -20 -20 -20 -20 -9 4 1 -8 -7 26 11 23 27 9 -20 -20 -20 -20 -20 -20 -20 -20
14 25 28 30 26 30 10 0 9 6 15 10 -20 -20 -20 -20 -20 -3 -20 9 28 22 -20 5 7 18 11 -11 -14 -20 -20 -20 -20 -19 -5 -16 11 29 -18 -20 -20 -20 -20 -20 -20 -20 -20
20 22 35 31 28 23 12 3 6 10 13 13 -16 -20 -20 -20 -20 -20 -20 -8 27 29 5 -20 -12 5 27 2 -16 -20 -20 -20 -20 -20 -20 -19 -20 -20 -20 -11 9 -11 -20 -20 -20 -20 -20
22 16 36 34 21 12 17 8 8 8 12 16 -9 -20 -20 -20 -20 -6 -20 -20 10 4 29 24 14 16 3 21 -20 17 17 11 -20 -20 -20 -20 -20 -20 -20 -20 -20 -15 -20 -20 -20 -20 -20

GFSGBSN_prec_radar_009.txt.gz
Reflectivity
4 -20 -20 9 11 -0 -8 -3 -20 -20 -20 -20 -19 3 -1 -20 -3 -20 -20 -20 -20 -20 -20 -6 -12 -20 -8 14 -10 -20 -20 -20 -20 -4 -9 -20 -20 -20 3 -20 -20 -20 -20 -20 -20 -20 -20
11 -20 -14 -15 4 13 -20 -12 12 -20 -20 -20 -20 -3 -9 -20 -20 -20 -20 -20 -20 -20 -20 -20 -11 -20 4 6 -20 -20 -20 -20 -20 -20 -2 5 -20 -20 -20 -20 -20 -20 -18 -20 -20 -20 -20
14 -20 -16 -20 -20 -13 8 -15 -20 14 -20 -20 -20 -20 -13 -20 -20 -8 -20 -20 -20 -20 -20 -20 -19 2 12 -20 -20 -20 -20 -20 -20 -20 -19 -20 -20 -20 -20 3 -20 18 -20 -20 -20 -20 -20
-7 12 2 -15 -20 -18 -5 11 9 -20 -20 -20 -20 -20 -9 -20 -20 -20 5 -20 -20 -20 -20 -20 -20 12 17 -20 -20 -20 -20 -20 -20 -20 -20 -20 -6 -20 -15 6 -20 -5 3 8 -20 -20 -20
-19 11 -5 12 -6 -20 6 -2 6 -10 -20 -20 -20 -20 -20 9 -20 -1 -20 -20 -9 5 -12 -20 -18 11 -11 -20 -20 -20 -20 -20 -20 -20 -20 -20 -16 8 4 18 12 22 10 5 -15 -20 -20
-20 -20 -11 11 13 -7 -20 -20 17 -1 -20 -1 1 -20 -20 -20 -20 0 8 -1 13 14 13 10 10 5 -20 -20 -20 -20 -20 -20 -20 -20 -20 -16 19 14 8 16 16 9 2 -20 -20 -20 -20
-20 -20 -18 5 11 -20 -20 -20 3 4 11 -20 6 -20 -20 -20 -20 16 -8 -4 10 8 16 -5 -20 -20 -20 -20 -20 -20 -20 -20 -20 -1 14 6 15 22 -20 -20 -2 15 19 -20 -20 -20 -20
-20 -20 -20 -12 -20 -18 -20 -20 -20 10 13 -20 9 -20 -20 -20 -20 17 16 12 -5 -9 9 1 -19 -20 -20 -20 -20 -20 -20 -20 -1 7 3 20 16 -20 -20 -10 22 -4 6 -20 8 -16 -20
21 -20 -20 -20 -20 2 -17 -5 -20 -18 11 -18 -4 -20 -20 -20 -20 14 12 -20 3 18 28 18 5 8 13 2 -6 -15 -20 -12 -8 5 3 23 8 -20 -20 10 21 6 13 -19 -2 17 -20
20 10 -2 -20 -20 -19 -11 14 -20 -3 5 -4 -20 -20 -20 -14 -19 -20 8 -20 12 25 33 19 4 11 3 24 28 3 -5 -20 5 6 9 25 -20 28 -19 11 25 17 -19 8 -3 17 -18
35 37 24 -9 -20 -20 0 19 4 17 2 12 13 -18 -2 -20 4 11 -15 -19 10 32 24 -19 12 4 4 28 13 6 3 22 14 13 21 15 -12 20 15 10 15 33 32 12 20 -17 12
38 26 25 23 23 -20 -12 17 19 13 4 13 17 14 10 13 -3 -4 -20 22 16 28 13 7 12 16 20 20 17 -7 -20 -12 0 15 35 10 21 24 -14 4 27 10 27 2 20 2 0
30 26 35 23 18 8 12 19 18 15 4 7 16 25 9 -10 -13 -20 -2 15 21 13 10 23 23 18 12 16 17 14 10 20 12 2 30 27 35 25 1 38 37 41 21 33 10 12 -14
21 31 34 24 22 17 -12 18 18 14 13 6 14 25 20 9 11 -18 7 22 17 -1 6 28 30 29 32 26 16 12 18 15 3 13 41 23 19 28 12 32 41 36 33 14 1 0 -20
19 39 33 24 13 21 4 20 18 16 -12 12 13 18 22 17 16 4 20 18 14 18 16 27 25 24 33 28 -4 -7 19 19 -4 7 39 -16 -3 2 27 17 32 8 36 13 -15 -20 -20
11 27 39 25 20 20 21 20 17 12 -4 21 6 20 21 15 9 22 13 22 25 17 32 26 -9 -14 16 10 9 9 11 -20 -5 22 27 31 -6 23 30 19 25 29 2 -5 -20 -20 -16
21 31 33 24 25 20 17 21 15 9 11 28 9 15 -2 -20 11 21 8 19 24 15 25 23 -2 -20 -2 -12 -9 3 -5 -20 -5 17 30 41 34 27 38 17 37 24 23 -20 -20 -20 -10
22 34 32 34 24 9 23 16 18 16 9 26 12 17 -0 7 24 12 4 25 23 26 29 -5 -20 -20 -20 -20 -20 9 -19 -20 -18 23 28 34 37 43 12 12 5 35 5 -20 -20 -20 -20
21 27 32 30 20 22 22 14 8 18 13 -1 16 8 19 5 23 12 0 30 24 13 9 -20 -20 -20 -20 -20 -20 -20 -20 -20 -17 7 25 12 22 31 19 -15 -20 -13 -5 -20 -20 -20 -20
21 28 28 32 24 22 30 12 1 15 15 -9 17 17 23 24 14 10 17 27 25 -0 3 -20 -20 -20 -20 -20 -20 -20 -20 -18 -20 -20 16 3 4 24 -11 -20 -20 -20 -18 -20 -20 -20 -20
29 26 29 35 25 26 33 11 -16 6 16 13 20 -6 4 20 1 -13 28 27 32 26 -3 -20 -2 -20 -20 -20 -20 -18 -20 -16 -20 -20 -20 4 -9 -20 -8 -20 -20 -20 -17 3 -20 2 -20
23 17 29 36 24 17 36 13 -17 14 19 16 20 -20 2 -12 -9 -11 7 28 31 27 8 -6 18 -20 -20 -20 -20 -20 -20 -12 1 8 -20 -20 8 -20 -20 -20 -20 -20 -20 -20 -20 -20 -20
16 22 26 29 27 25 25 20 -20 7 21 9 8 -20 -20 -3 9 -5 -7 18 30 27 18 -20 3 9 -17 -20 -20 -20 -20 -2 -9 -20 -20 -1 -20 -19 1 -20 -20 -20 -20 -20 -20 -20 -20
10 21 22 29 27 31 16 18 -20 11 3 -6 -5 -18 -20 -20 -20 -20 -20 12 29 28 22 11 25 11 -19 3 -20 -20 1 -19 -8 -20 -20 -5 -14 -20 -20 -20 -15 -20 -20 -20 -20 -20 -20
8 22 20 31 30 22 35 30 -20 4 10 1 3 1 -20 -20 -20 -20 -7 -6 27 15 30 13 26 20 8 5 9 19 12 14 -0 -16 -20 5 13 13 -19 -19 -20 -20 -20 -20 -20 -20 -20
13 20 18 31 31 23 26 23 -5 7 9 -3 -7 19 5 -20 -20 -20 -19 10 26 22 20 32 25 24 12 1 14 6 20 3 13 16 -2 12 22 -1 -20 -20 -20 -20 -20 -20 -20 -20 -20
15 21 21 26 27 20 20 27 15 -11 -6 8 -5 9 22 -19 -20 -20 -20 -3 30 16 21 12 -9 1 -20 24 25 14 15 -5 -19 -13 17 11 1 -4 -20 -1 -20 -20 -20 -20 -20 -20 -20
4 15 16 27 28 17 27 20 18 -1 6 12 -3 -4 17 -2 -20 -20 -20 -7 28 25 -14 -15 -20 -7 3 25 -1 -20 -20 -20 -20 -19 -20 1 9 -6 5 30 -20 -20 -20 -20 -20 -20 -20
7 18 12 22 27 12 30 18 16 11 -8 -4 -2 5 6 5 -7 -20 -20 -20 26 24 23 20 5 13 6 17 -20 -20 -20 -20 -20 -20 -20 -7 -20 -20 -20 -20 -20 -20 5 -12 -20 -20 -20

GFSGBSN_prec_radar_012.txt.gz
Reflectivity
-20 -3 12 -2 -8 12 -6 -20 11 -20 -20 -20 -20 -20 -20 -20 -20 -20 -20 -20 -20 -20 -20 -20 -20 -20 -20 -11 -15 -20 -20 -20 -20 -20 -4 -20 -4 -20 -20 -20 -20 -20 -20 -20 -20 -20 -20
-20 -14 0 -14 -20 14 2 -20 -10 -2 -20 -20 -20 -20 -20 -20 -20 -17 -20 -20 -20 -20 -20 -20 -20 1 -20 -6 -20 -20 -20 -20 -20 -11 -20 -13 0 -20 -20 -20 8 -20 -20 -20 -20 -20 -20
-20 -20 -20 11 -20 -12 14 12 13 -17 -4 7 -20 -20 -20 -20 -20 -20 -20 -20 -20 -20 -20 8 -19 -20 8 -20 -20 -20 -20 -20 -20 -20 -10 -14 -20 13 -20 -20 -20 -18 13 -20 -20 -20 -20
-2 -20 -20 -3 -15 -20 12 15 7 14 -20 -20 -20 -20 -20 -20 -20 -20 -20 -20 -20 -20 -13 3 -20 2 -11 -20 -20 -20 -20 -20 -20 -20 -20 -20 5 -20 -18 1 -5 17 6 -1 -20 -19 -20
-11 -20 -20 -20 -20 -8 6 -13 13 -13 -7 -20 -20 -20 -20 2 0 -20 -2 -20 -20 -20 19 2 -20 6 -18 -20 -20 -20 -20 -20 -20 -20 -20 -20 -20 -20 -0 -6 12 -10 -20 -20 -20 -20 -20
27 2 -20 -20 -20 -20 4 -20 -19 -10 1 -5 -20 -20 12 -20 12 -1 12 -20 -20 -20 -1 12 -20 10 -20 -20 -20 -20 -20 -20 -20 -20 -20 -20 -7 6 -9 12 -4 -16 -0 -20 -20 -20 -20
17 25 13 -20 -20 15 11 -13 -20 -20 -20 14 -20 -20 -10 -20 -20 17 -12 -20 -20 -8 13 -15 -20 -20 -20 -20 -20 -20 -20 -20 -20 -20 -0 -5 8 6 -20 -20 -20 -20 9 11 -20 -20 -20
6 1 24 20 -20 -20 -20 -20 -10 -20 -20 -7 -20 -20 -20 -20 -18 2 17 -1 -20 -20 4 14 -4 -10 -20 -19 -20 -20 -20 -17 -1 5 -4 -11 -7 -20 -20 -20 -20 -20 -16 0 -18 -11 6
-2 5 5 31 22 -15 -20 -5 3 -20 -11 3 -20 -20 -20 -20 -12 12 -9 -20 -20 -20 17 20 -6 -11 -19 10 -15 -20 -20 -20 -20 -2 2 -3 -20 -20 -20 0 8 -4 -16 -20 -7 2 15
10 -9 9 31 34 23 20 -20 -18 -20 -8 16 1 -20 -20 -14 -4 -20 10 -16 0 -3 30 1 1 -3 -20 18 9 -20 10 -14 -8 -13 -1 14 -14 -16 1 -8 -1 5 -20 -19 -1 30 14
6 8 -20 3 21 19 22 20 17 19 8 8 4 6 -17 -18 12 -9 -15 -20 -20 13 12 -20 1 3 -11 -7 -3 -17 13 32 17 -20 -7 -1 -20 -20 15 -20 -18 -16 8 2 12 25 24
-2 25 1 8 28 26 20 17 3 19 19 12 12 4 -3 8 -18 -12 -20 -20 -3 15 -2 -10 -5 11 13 13 3 14 1 19 24 17 14 -20 7 8 -20 -18 -4 -15 5 2 34 34 20
18 7 19 6 27 39 27 22 16 20 19 13 16 -11 16 1 -7 4 -20 -20 8 4 -20 5 5 5 3 9 9 17 27 18 15 8 8 16 5 -20 1 24 -18 19 19 21 34 29 27
20 3 22 9 29 40 30 12 7 23 21 17 19 9 27 14 18 14 -10 -9 -5 -15 -20 13 14 13 20 12 15 31 35 6 12 -9 19 -1 -20 -20 2 -7 -8 13 16 42 18 28 -17
15 22 23 24 20 39 33 23 8 22 18 18 18 25 24 14 12 26 10 3 -2 1 6 26 29 27 -0 16 28 23 11 3 -20 -6 -5 -4 15 9 -20 -7 25 -3 37 40 36 15 -20
21 21 24 24 34 40 31 15 11 22 24 20 19 28 4 2 25 31 21 -11 2 3 21 30 23 -8 -7 4 2 0 13 -20 -17 9 7 13 31 26 32 18 17 11 27 42 6 -12 4
18 20 21 15 28 36 29 18 19 35 22 19 7 27 16 26 28 30 21 -1 -15 13 27 26 -8 -8 -13 -20 -20 -15 -20 -20 -3 -20 12 27 28 22 -2 24 29 35 39 27 25 29 -1
13 21 30 31 34 36 28 25 23 24 21 12 18 23 10 19 29 23 12 -17 15 26 24 26 8 -20 -20 6 -20 -17 -20 22 -3 -19 18 24 27 25 -3 5 20 35 25 -20 10 18 13
-19 16 29 27 38 31 21 26 30 20 13 -7 27 19 26 16 24 4 -13 8 24 32 21 20 -20 -20 -20 16 -8 -20 -20 1 8 14 3 33 30 18 32 26 35 40 37 -16 -18 12 12
-20 13 31 33 27 33 28 29 30 21 -15 -20 19 24 28 31 6 6 4 12 23 29 19 13 -20 -20 -20 -20 -20 -8 -13 4 5 16 23 35 16 38 37 3 11 5 -20 -20 -20 -20 -20
-20 -4 19 24 26 34 37 21 43 21 7 5 18 17 9 20 -1 -5 18 13 26 33 23 1 -20 -20 -20 -20 -1 -20 -19 -10 -14 -18 12 28 38 39 31 -11 8 17 11 16 -17 -20 -20
-20 -20 18 24 23 32 23 14 39 22 18 4 23 7 25 14 -20 -20 -2 9 17 32 33 13 -20 -10 -20 -20 -20 -20 -4 -7 -19 -7 -2 1 9 1 10 -20 -20 -20 -20 -20 -20 -20 -20
-20 -20 6 19 25 25 25 35 38 25 23 16 18 2 5 9 10 -2 -5 -3 10 33 27 24 -2 -20 -20 -20 9 -20 11 -20 18 -5 -20 -20 -16 -20 -20 -20 -20 -20 -20 -20 -19 -20 -20
-20 -20 1 19 17 32 30 25 32 15 13 -10 2 4 11 23 5 -6 8 4 12 29 33 23 6 -5 -15 8 -5 -4 11 -20 -8 21 -20 -20 -20 -20 -20 -20 -20 -20 -20 -20 -20 -20 -20
-20 -20 -3 15 13 9 13 38 31 25 4 -20 -5 1 25 22 18 -20 -20 -15 9 26 27 27 14 -16 -19 -20 16 10 8 -0 -20 -20 -20 -14 1 5 -20 -20 -20 -20 -20 -20 -20 -20 -20
-20 -20 1 9 12 15 27 30 25 25 9 7 -8 8 23 19 18 -20 -20 -20 15 25 30 29 17 20 28 -19 19 12 -4 31 7 12 1 12 2 -20 -20 -20 -20 -20 -20 -20 -20 -20 -20
-20 6 2 18 16 16 20 15 18 12 1 9 4 -14 25 22 -4 -20 -20 -20 17 26 29 22 9 17 29 22 17 9 10 -20 -17 -20 -15 -4 -8 -2 -12 -20 -20 -20 -20 -20 -20 -20 -20
-20 5 7 15 13 17 13 30 25 25 12 17 1 -20 18 16 -0 -20 -20 -20 -11 32 28 19 31 33 27 13 -3 -20 -20 -20 -20 -20 -20 -2 -6 7 13 -11 -20 -20 -20 -20 -20 -20 -20
-20 -20 7 17 14 17 12 34 27 19 13 15 8 -19 21 20 4 -20 -20 -20 3 32 31 19 23 16 -14 -15 -6 21 -20 -16 -20 -20 -20 -20 -20 -18 -19 -19 -18 -18 -20 -20 -20 -20 -20

GFSGBSN_prec_radar_015.txt.gz
Reflectivity
-20 -20 -20 -20 -20 4 -20 6 -18 14 13 -20 -20 -20 -20 -10 -14 -20 -20 -20 -20 -20 -20 -10 -9 1 -13 -11 -11 -20 -20 -20 -20 -20 -20 -20 -20 -20 -20 -20 -20 -20 -20 -20 -20 -20 -20
21 -20 -20 -20 -20 1 -1 -20 14 -18 9 12 -20 -20 -20 -20 -1 -20 -20 -20 -20 -20 -20 -20 -20 0 -11 -9 -20 -20 -20 -20 -20 -20 -20 -12 -19 -20 -10 -20 -20 -20 -20 -20 -20 -20 -20
19 27 -13 -20 -20 -20 -6 -15 -15 3 2 16 -18 10 -20 -20 -20 -20 -20 -11 -20 -20 -20 -20 -20 -20 -8 -20 -20 -20 -20 -20 -20 -20 -20 -13 7 15 5 -20 -20 -20 -20 -20 -20 -20 -20
11 6 19 -6 -7 -20 9 -19 -20 12 12 14 16 -20 -20 -20 -20 -20 -20 -20 7 -20 -20 -20 -20 -20 -18 -20 -20 -20 -20 -20 -20 -20 -20 -20 -20 -20 -9 -20 -20 -20 2 -18 -20 -20 -20
-9 -9 6 29 11 -20 -20 -6 -20 -4 13 18 13 -20 -11 -20 -20 11 -20 -12 -20 -20 -20 -20 -20 -15 -20 -20 -20 -20 -20 -20 -20 -20 -20 -20 -20 -7 -19 6 3 -18 -12 -9 -20 -20 -20
4 4 -2 12 5 18 -0 -14 17 -7 -17 4 14 10 -20 7 -20 -20 14 1 -20 -20 -20 -0 -20 -11 -20 -20 -20 -20 -20 -20 -20 -20 -20 -20 -20 -20 -20 15 8 -5 -14 -19 -16 -20 -20
17 14 5 -9 4 23 24 9 -20 -8 -20 -5 22 6 19 -2 -20 -20 -20 -20 -20 -20 17 -20 -20 -20 -20 -20 -20 -20 -20 -20 -20 -20 -20 -20 -20 4 -20 -20 -20 -20 -20 -2 -20 -20 -20
15 16 -10 15 17 9 27 23 -20 -19 -20 7 19 -10 -13 10 -20 -20 -20 -11 -20 -20 -20 -20 -20 -20 -20 -20 -20 -20 -20 -20 -4 -20 -20 -5 -10 -20 -20 -20 -14 -20 -20 -20 -20 -20 6
20 14 -12 2 8 10 -8 27 24 19 -20 8 4 20 8 13 -17 -4 -20 -20 -20 -20 -20 -5 -20 -20 -20 -20 -9 -17 -20 -20 -20 1 -20 -20 -20 -20 -20 -19 -1 -10 -20 -20 -20 -20 -20
16 -14 12 -0 8 4 19 32 32 20 26 17 12 21 13 -13 -2 -20 -17 -20 -20 -18 10 -5 -19 -16 -17 -10 -2 -20 -4 -16 15 -18 -20 -9 -20 -20 -20 -20 -7 -4 -20 -20 -20 -4 5
-10 15 6 13 14 1 18 34 26 5 15 -17 -6 20 12 -20 -20 -20 -20 -20 -19 2 -20 -20 -6 -20 -20 5 1 -20 -14 24 14 -15 10 -15 -20 -20 -20 -20 -19 -17 -20 -20 -19 -19 11
23 9 12 18 20 2 14 25 33 28 5 22 21 20 12 -3 -20 -20 -20 -20 -20 -18 -20 -20 -20 3 8 2 6 8 -5 6 22 32 33 9 -20 -19 -20 -20 -20 -20 -20 -20 7 15 20
-19 0 19 18 5 1 27 -6 24 36 8 22 23 22 10 -20 -20 -20 -20 -20 -17 -15 -20 -4 -12 -2 -8 1 -1 18 14 20 31 24 29 24 -12 -14 -20 -8 -20 6 14 12 11 22 -5
-6 -5 21 22 31 25 30 -3 13 22 26 19 25 24 27 16 26 9 -4 -20 -20 -20 -20 -20 -19 -20 8 -20 13 15 13 26 26 39 18 12 -14 -20 -20 -17 -20 -20 -17 5 1 -6 -18
21 20 22 16 23 3 20 7 27 41 31 28 26 23 32 15 27 19 10 -5 -20 -20 -20 -20 0 22 17 9 -9 12 -4 31 -20 26 -20 -20 -18 -20 -20 -20 -20 -19 13 -20 -4 -16 28
13 9 21 21 28 36 12 25 36 36 30 33 40 27 29 -3 22 20 17 6 -20 -20 -20 -12 16 16 -19 -18 3 11 -9 -19 -20 -20 -20 -18 -5 6 21 14 -7 16 -6 6 32 -3 -10
-2 -19 -6 16 35 33 22 23 39 32 27 24 35 15 29 12 29 30 11 -17 -20 -20 -20 13 19 25 -6 -20 -20 -20 -20 -20 -20 -20 -20 -20 8 20 35 37 -5 -6 24 11 25 2 19
-20 -20 -13 22 30 34 32 33 37 29 32 27 26 8 24 37 33 28 8 -20 -20 -20 19 24 24 13 -14 -20 -20 -20 -20 -20 -11 -7 -9 -3 14 14 24 15 15 8 25 12 30 36 39
13 -19 -18 12 34 38 36 35 29 21 22 32 26 26 26 23 31 17 -15 -20 -7 8 14 26 18 -9 -20 -2 -20 -20 -16 -13 -20 4 23 17 24 -12 5 22 12 8 6 14 31 42 1
13 -18 -20 -5 29 37 31 28 -4 27 40 40 2 21 34 31 24 -20 -20 -8 -6 7 19 29 19 -4 -20 -20 -20 -20 -20 -2 -0 18 32 32 34 16 -12 5 2 11 -19 18 33 45 11
10 -20 -20 -5 25 32 30 39 25 37 34 22 -20 24 14 25 18 -14 -17 -0 1 22 17 32 16 -17 -20 -20 -20 -20 -20 -20 -8 14 28 37 38 35 20 7 6 16 23 36 38 19 18
-20 -20 -20 -7 20 21 15 24 19 38 31 18 -20 7 -7 -20 -15 0 6 12 -5 4 26 26 25 -20 -20 -20 -20 -20 -20 -20 -10 -20 -20 28 38 35 34 -7 21 18 32 9 13 15 -6
9 -20 -20 0 8 22 19 19 39 38 30 10 -20 -12 11 -14 -20 -6 -10 -20 -20 16 16 29 29 -6 -20 -20 -17 -20 -20 -20 -17 5 7 25 26 32 31 28 24 24 6 -16 -20 -16 2
-20 -20 -20 -6 7 17 24 35 32 36 38 24 -15 17 28 -2 19 12 -15 -1 -3 -18 -2 19 27 -19 -20 -20 -20 -20 -20 -20 -20 5 -15 -20 -11 14 -18 -18 -20 -20 -16 -12 -20 -16 -20
4 -20 -19 4 1 19 19 20 23 30 22 21 7 -1 18 13 -2 9 20 -20 -20 -7 21 23 29 -13 -20 18 11 -3 31 15 -20 -12 -20 -20 -20 -20 -20 -20 -20 -20 -20 -20 -20 -20 -20
-20 -20 -15 8 5 14 17 13 33 21 18 24 -9 1 18 3 1 -15 -12 -20 -18 -3 18 27 26 -2 27 14 -19 22 13 -9 -20 -20 -20 -20 -14 1 -20 -20 -20 -20 -20 -20 -20 -20 -20
18 -20 -20 8 1 20 17 9 19 29 16 15 20 1 14 9 -13 15 -1 -20 -11 19 22 29 26 7 20 29 4 25 -20 -20 -12 -20 -20 2 -9 -20 -20 -20 -20 -20 -20 -20 -20 -20 -20
15 2 -20 -13 8 17 15 27 31 35 21 21 2 -8 5 11 -8 -10 -17 -20 2 23 26 28 29 23 21 26 4 20 4 -20 -20 -20 -20 10 2 -8 -6 -20 -20 -20 -20 -20 -20 -20 -20
-4 3 -20 -20 0 12 9 15 31 26 20 25 11 -12 -4 7 -2 -20 -20 -20 -16 2 19 27 27 25 17 6 -17 -17 -19 -20 -20 -20 -20 -4 -20 -20 -20 -20 -20 -20 -20 -20 -20 -20 -20

GFSGBSN_prec_radar_018.txt.gz
Reflectivity
18 24 28 23 -11 -20 -20 2 -20 5 7 8 10 -20 -20 -20 2 -20 -20 -20 -20 -20 -20 -20 -20 -20 -20 -20 -20 -20 -20 -20 -20 -12 -3 -20 -20 -20 -20 -20 -20 -20 -20 -20 -20 -20 -20
9 -12 -6 12 30 5 -20 -20 -20 -20 -6 -14 12 4 -20 -20 -16 -20 -20 -20 -20 -20 -20 -20 -20 -20 -20 -20 -20 -20 -20 -20 -20 -20 -20 -10 -20 -20 -20 -20 -20 -20 -20 -20 -20 -20 -20
-11 1 -20 -19 14 29 9 -20 9 -20 -0 0 18 9 -10 -20 -20 -20 -20 -20 -20 -20 -20 -20 -20 -20 2 -20 -20 -20 -20 -20 -20 -20 -20 -20 -20 -20 -5 -20 -20 -20 -20 -20 -20 -20 -20
6 2 7 11 -7 2 30 19 -20 -20 -20 14 11 11 0 -18 -20 -20 -20 -13 8 -20 -20 -20 -20 -15 -20 -20 -20 -20 -20 -20 -20 -20 -20 -20 -20 15 -20 -6 -20 -20 -20 -20 -20 -20 -20
17 15 12 2 -4 3 14 24 15 -9 -20 -11 19 12 20 -20 -20 -20 -16 13 -20 -20 -20 -9 -20 -20 -20 -20 -20 -20 -20 -20 -20 -20 -20 -20 -20 -20 -20 15 2 -20 -20 -20 -20 -20 -20
-16 15 15 17 7 -16 13 13 29 22 20 -10 12 15 13 11 -18 -20 6 26 6 -20 -20 4 -1 -9 -20 -20 -20 -20 -20 -20 -20 -20 -20 -20 -20 -20 -20 -12 -7 -20 -20 -20 -20 -20 -20
8 11 17 12 11 16 3 5 8 21 24 -14 -15 23 22 21 3 -20 6 -20 -20 -20 7 -20 -20 -20 -20 -20 -20 -20 -20 -20 -20 -20 -20 -20 -20 -20 -20 -20 -20 -20 -20 -20 -20 3 -20
15 16 13 19 19 10 -5 7 12 22 27 17 15 4 20 17 15 1 -20 -20 -20 -20 -20 -20 -20 -20 -20 -20 -20 -20 -20 -20 -20 -17 -20 -3 -4 -20 -20 -20 -20 -20 -20 -20 -20 -20 -5
-20 -9 16 14 10 11 14 -5 4 1 29 25 18 -3 11 13 18 14 -18 -20 -20 -20 -15 -20 -20 -9 -20 -9 -13 -20 -20 -20 -20 -11 4 -20 -20 -20 -20 -20 -17 -20 -20 -20 -20 -20 -20
14 -12 -9 15 10 16 1 18 -9 7 32 29 21 20 19 16 15 -20 4 -20 -20 -20 -14 -20 -16 9 -15 9 -16 -18 -11 -19 7 -14 -20 -9 -20 -20 -19 1 -20 -20 -20 -20 -4 8 -4
-20 -17 15 12 2 25 18 10 7 12 17 31 29 25 21 8 -20 -20 -20 -20 -20 -18 -20 -20 -20 -20 8 9 -19 -20 -20 -4 8 -4 -5 -3 -20 -20 -20 -20 -20 -20 -20 -20 8 12 13
12 14 10 5 10 24 16 3 11 17 5 36 33 27 14 6 -17 -20 -20 -20 -15 -12 -20 1 -20 -19 -5 -10 8 -20 -18 3 23 26 11 -15 -20 -18 -20 -20 -20 3 9 5 4 17 10
-19 5 9 18 18 20 16 -12 30 -6 23 35 36 29 2 8 -20 -20 -20 -5 -20 -20 -20 4 -14 -15 -20 -8 -8 -20 -13 18 27 18 18 30 15 -16 -14 -3 11 11 16 11 -20 7 -20
17 -17 6 1 17 17 18 -19 4 -2 14 33 34 34 20 -17 14 14 -16 -4 -20 -20 -20 -20 -12 -16 -19 -20 8 8 17 9 -2 31 28 -1 12 16 -20 -17 9 10 10 -15 -20 -20 -20
-20 12 -20 7 -20 17 33 34 5 3 21 37 36 36 25 22 -19 -8 20 -1 -20 -20 -20 -20 2 -6 6 -19 -15 9 -5 4 -20 6 -0 -7 -3 16 21 -4 19 7 16 -1 -20 -20 5
17 -13 -20 -20 7 29 36 32 20 7 19 38 43 38 35 7 4 24 27 -19 -20 -20 -20 -20 -20 -13 -20 -20 2 5 -3 -20 -16 -17 -20 5 -13 -20 -20 -20 -10 -8 -3 7 11 -3 -14
8 -20 -20 6 6 20 32 35 33 25 15 22 39 26 34 24 19 34 26 -13 -20 -20 -20 -20 -12 3 -20 -20 -20 -20 -20 -20 -20 -20 -20 -20 -20 -20 -20 -20 -20 -17 10 12 -20 -20 14
10 13 -6 -12 -20 11 35 28 33 20 13 31 42 47 23 25 34 28 17 -20 -20 -20 -20 -20 -12 9 6 -20 -20 -20 -20 -20 -20 -20 -20 -20 -8 17 19 19 19 29 -20 -20 7 -6 -20
7 -20 -2 -20 -20 10 31 31 32 31 38 30 40 38 36 30 22 15 1 -20 -11 -19 -12 8 7 6 -20 -20 -20 -20 -20 -20 -20 -20 -18 -1 26 14 8 18 28 28 16 -16 9 -20 -17
16 -20 2 -20 -20 10 19 27 17 32 32 44 33 37 27 38 19 14 -6 2 -4 -19 -0 14 22 12 -1 -20 -20 -20 -20 -20 -20 -1 17 27 24 14 23 37 13 16 -8 -20 -18 -20 -12
18 -16 -20 -20 -20 5 19 25 32 34 24 33 36 27 14 26 25 2 -4 -5 -20 1 3 19 17 4 -7 -9 -20 -20 -20 -20 -20 5 26 36 21 32 34 18 40 7 -0 7 20 23 23
17 -20 8 -20 6 0 17 25 27 21 23 35 37 17 -20 -20 -15 -20 -2 -12 -11 -8 3 23 12 5 -14 -16 -20 -20 -20 -20 -20 3 23 31 21 36 32 -9 11 14 -4 12 14 17 27
19 -17 -6 -20 15 5 12 22 26 28 35 42 29 -20 -20 -20 -20 -16 -5 -14 -15 -8 -15 18 17 14 -19 -20 -20 -20 -20 -20 -20 -19 20 31 33 38 26 36 21 20 11 15 19 24 32
20 -20 9 -20 9 4 13 22 29 36 36 37 4 -20 -20 -14 -18 -20 -20 12 -11 -20 -6 21 12 20 1 -20 -20 -20 -20 -20 -3 -20 7 25 -9 15 27 20 16 25 12 26 35 23 31
14 -20 -20 -20 -18 2 10 23 22 14 29 35 -1 -20 -20 -16 -6 -3 25 21 -9 -20 -12 14 31 16 -5 -20 13 14 -20 -20 -20 -20 -20 -19 -14 -20 -20 -20 -20 -20 3 -20 -8 -15 -19
-20 20 -20 -12 -20 4 0 16 30 32 32 36 28 -20 -20 -20 -7 -5 3 -20 -12 -20 -10 21 22 24 -12 8 24 13 -1 -19 -20 -18 -20 -20 -20 -20 -20 -20 -20 -20 -20 -20 -20 -20 -20
11 16 -20 -16 -13 -11 -4 14 23 35 33 19 23 14 -3 7 -8 -16 -10 -3 -19 -20 -11 26 27 19 19 4 30 -15 -12 -20 -20 -20 3 -20 -20 -20 -20 -20 -20 -20 -20 -20 -20 -20 -20
18 15 2 -20 -19 -20 -20 11 15 31 25 30 30 -18 -9 -2 -2 -18 -20 -4 -16 -20 21 24 29 25 14 26 16 -9 3 -20 -20 -20 -20 -19 -16 -20 -20 -20 -20 -20 -20 -20 -20 -20 -20
3 18 15 -20 1 -20 -20 5 11 15 20 22 -0 5 20 10 -12 -20 -20 -14 -20 8 23 25 17 16 15 -2 -5 -12 25 -20 -20 -20 -20 -20 -20 -20 -20 -20 -20 -20 -20 -20 -20 -20 -20

GFSGBSN_prec_radar_021.txt.gz
Reflectivity
-20 -20 -17 9 5 9 21 20 -20 -20 12 -20 21 -1 14 -20 -20 7 -20 -20 -20 -20 -20 -20 -20 -20 -20 -20 -20 -20 -20 -20 -20 10 1 -20 -20 -20 -20 -20 -20 -20 -20 -20 -20 -20 -20
14 13 12 14 15 0 -9 20 27 -3 5 -8 3 22 11 -3 -20 -15 7 -20 -20 -20 -20 -20 -20 -20 -20 -20 -20 -20 -20 -20 -20 -18 -5 -12 -20 -20 -20 -20 -20 -20 -20 -20 -20 -20 -20
17 16 16 14 7 -14 3 -19 24 25 -9 9 -20 1 -7 13 -20 -20 7 -20 -20 -20 -20 -20 -20 -20 -20 -20 -20 -20 -20 -20 -20 -20 -20 -20 -20 5 8 -13 -20 -20 -20 -20 -20 -20 -20
-19 -17 17 15 12 11 -15 -20 10 26 25 -13 17 17 21 21 9 -20 -20 -3 14 -17 -20 -20 -20 -20 -20 -20 -20 -20 -20 -20 -20 -20 -20 -20 6 9 3 -16 -20 -20 -20 -20 -20 -20 -20
-20 -10 11 20 18 9 2 -6 -18 9 30 22 11 16 1 20 17 -20 -20 -20 13 2 -20 5 -20 -20 -20 -20 -20 -20 -20 -20 -20 -20 -20 -20 -20 -20 -19 -13 5 -20 -14 -20 -20 -20 -20
-20 -20 -20 14 20 18 17 9 -20 -19 16 21 22 5 19 23 16 6 -20 9 21 -20 -13 -0 11 -20 -20 -20 -20 -20 -20 -20 -20 -20 -20 -20 -20 -12 -8 10 -17 -19 -20 -20 -20 -20 -20
-20 -7 10 -18 18 19 19 16 13 2 -4 3 29 5 16 27 -16 22 -14 13 -15 -20 -20 -20 -20 -20 -20 -20 -20 -20 -20 -20 -20 -20 -20 -20 -20 -18 -20 -20 -20 -20 -20 -20 -20 -20 -20
-20 12 15 -3 -4 -0 11 18 15 3 -1 -9 28 27 21 22 21 13 2 -20 -20 -20 -20 -20 -20 -20 -20 -20 -20 -20 -20 -20 -20 -20 -20 -15 -20 -20 -20 -20 -20 -20 0 -13 -20 -20 -20
-20 -16 9 18 12 7 16 11 14 4 8 -17 23 22 28 26 20 14 -6 -20 -20 -20 -20 -20 -20 -20 -20 -20 -13 -20 -20 -20 -20 -20 -20 -20 -20 -20 -20 -20 -20 -20 -12 -17 -20 -20 -20
-20 -20 3 -11 10 14 17 -13 20 13 9 13 11 28 33 28 23 16 5 -20 -20 -20 -20 -20 -18 -18 1 10 2 -20 -20 -20 -17 -20 -20 3 -20 -20 -20 -20 -20 -20 -20 -20 -20 5 -6
-20 -18 -19 10 12 15 7 29 24 19 23 -13 8 35 38 32 3 -11 -12 -20 -20 -20 -20 -20 3 -20 10 -3 -20 -20 -20 -19 -11 -19 -18 -14 -20 -20 -20 -20 -20 -20 -20 -20 3 -20 -15
-20 15 -13 -20 -11 2 20 23 23 19 -14 -20 0 33 38 35 13 -16 -20 -20 -12 -20 -20 -19 -16 -6 6 5 6 -15 -20 11 6 16 -3 -19 -20 -20 -20 -20 -20 1 -10 -1 2 6 6
-7 -0 19 -20 4 -20 20 16 13 -4 -20 -20 3 35 38 37 6 18 -20 -20 -12 -20 -20 -1 -18 -11 -20 -19 -13 -6 -20 11 13 21 6 19 7 5 -20 -20 5 14 16 15 15 11 -15
18 17 0 -11 14 23 6 10 23 31 20 -16 -19 31 35 39 23 16 -20 -20 -20 -20 -20 -20 -20 -20 -20 -20 -10 7 10 -4 2 20 19 3 -18 -3 -6 -20 -18 -10 7 14 -7 -20 -20
16 19 -20 5 -15 10 21 25 32 22 15 19 -9 24 33 42 27 -10 -6 3 -20 -20 -20 -20 -20 -0 -20 -16 -11 3 6 -20 -20 -20 -1 -11 -20 -20 -20 -20 -19 27 19 16 7 7 10
15 18 9 9 18 13 13 25 37 29 26 26 -1 26 40 26 17 -19 -8 -20 -20 -20 -20 -20 -20 -20 -20 -14 -1 -13 -16 -20 -20 -20 -15 -13 -10 -20 -20 -17 26 26 10 14 26 9 -7
4 17 -5 -13 5 -19 -3 26 34 34 25 22 30 38 38 25 8 31 27 -20 -20 -20 -20 -20 -20 -20 -20 -20 -20 -20 -20 -20 -20 -20 -20 6 -8 -20 -18 -7 -20 7 11 -10 -15 -20 -7
15 17 19 15 -20 -20 -7 16 30 31 34 20 35 34 37 34 31 19 17 -20 -20 -20 -20 -20 -20 -20 -1 -20 -20 -20 -20 -20 -20 -20 -20 -20 -8 -14 6 -1 -19 -20 -20 -4 3 -20 -20
16 15 17 -4 -20 -20 7 9 24 33 32 29 36 36 37 38 16 25 16 -20 -20 -12 -20 -17 -15 -1 -7 8 -11 -20 -20 -20 -20 -20 -20 -10 20 8 11 18 26 28 -9 -16 -20 14 -20
17 17 -5 -7 -20 -11 9 11 19 21 20 27 25 37 41 35 22 -20 -14 -6 -13 -20 -20 -9 3 24 23 -7 1 -20 -20 -20 -20 -20 -10 11 27 19 18 28 29 13 5 -14 -7 4 -20
19 18 13 -20 -20 1 10 8 14 1 8 14 14 32 32 35 25 -20 -20 2 -1 6 -20 -3 20 14 20 0 -20 -20 -20 -20 -20 -18 6 33 22 29 35 34 35 23 -10 -16 -1 -20 -8
17 16 20 6 -20 8 9 7 14 -7 26 20 37 21 1 -4 -20 4 8 4 -20 -20 17 6 19 19 -4 12 -20 -20 -20 -20 -20 12 28 31 28 36 19 11 11 19 2 -13 -13 -20 -10
17 -20 23 -20 9 -17 6 -15 12 29 39 36 25 12 22 4 -3 2 -11 -20 -19 -3 -12 -18 8 25 6 13 -12 -20 -20 -20 -1 12 24 24 32 34 28 15 -2 18 -2 -2 -8 6 0
6 -19 22 -16 9 -18 1 -8 11 33 31 29 25 33 6 14 -2 -20 3 -20 -19 9 5 -11 -14 23 -10 9 -20 -20 -20 -20 -20 -7 -5 0 32 29 32 34 8 21 17 6 10 3 7
2 20 11 -12 1 -17 -0 -20 15 26 20 8 15 19 5 -6 -17 -20 -18 -5 16 14 -19 -7 1 10 25 17 -2 -12 -20 -20 -20 -20 -20 -14 14 19 3 -18 17 9 22 32 22 20 27
17 15 10 8 -20 -16 -5 -20 11 15 6 16 27 25 12 -20 9 -14 -19 -1 22 -16 -13 -20 -2 17 16 25 13 -4 -20 -18 -20 -20 -20 -20 -18 19 -20 -20 -20 -20 -18 -1 -20 7 -20
18 18 16 -7 -20 -20 -20 -20 10 18 23 8 35 -20 -20 -20 -20 -20 -20 -20 -20 -18 -20 -20 17 12 20 10 12 -0 -20 -20 -20 -20 -20 -20 -16 -6 -20 -20 -20 -20 -20 -20 -20 -20 -20
4 15 11 8 -20 -20 -20 -20 7 22 18 21 35 21 -9 -20 -13 -11 -20 -12 -19 -18 -20 -3 10 21 26 16 22 18 -20 -20 -20 -20 -20 -20 -11 7 -20 -20 -20 -20 -20 -20 -20 -20 -20
8 8 17 -4 -0 -3 -20 -20 0 12 21 19 30 -13 -7 -4 -9 -19 -5 -20 -18 -20 -15 8 18 31 28 -8 -16 3 9 -20 -20 -20 -20 -20 -20 -20 -20 -20 -20 -20 -20 -20 -20 -20 -20

GFSGBSN_prec_radar_024.txt.gz
Reflectivity
-3 -16 -20 -11 1 12 9 -13 -12 20 15 -6 -2 -10 22 -20 2 -20 -20 -20 -20 -20 -20 -20 3 8 -20 -20 -20 -20 -20 -20 -20 4 -2 -10 -20 -20 -20 -20 -20 -20 -20 -20 -20 -20 -20
-19 9 13 17 15 15 15 14 -5 -10 20 15 3 3 -20 23 -1 -20 -20 -20 -20 -20 -20 -20 -20 -4 -20 -20 -20 -20 -20 -20 -20 -5 -1 -20 -20 -20 -20 -20 -20 -20 -20 -20 -20 -20 -20
-0 -20 -20 -19 5 15 18 18 11 -20 -16 23 16 19 -20 -17 16 8 -20 -20 -20 -20 -20 -20 0 -20 -20 -20 -20 -20 -20 -20 -20 -20 -19 -17 -20 -20 1 -20 -20 -20 -20 -20 -20 -20 -20
-20 -20 -20 -20 -20 2 16 -1 19 14 7 -20 28 19 17 -12 22 2 -20 -9 -20 -13 -20 -20 10 -20 -20 -20 -20 -20 -20 -20 -20 -20 -20 -20 -17 7 14 -20 -20 -16 -15 -18 -20 -20 -20
-20 -20 -20 -19 -14 -20 -2 10 10 10 8 -19 8 30 14 18 23 -11 12 1 -15 18 -4 -2 -20 -20 -20 -20 -20 -20 -20 -20 -20 -20 -20 -20 -20 -20 -20 -20 -9 -19 -20 -20 -20 -20 -20
-20 -20 -17 -19 -6 16 12 11 12 13 4 10 -19 19 28 19 23 22 16 18 1 6 -16 -20 8 -18 -20 -20 -20 -20 -20 -20 -20 -20 -20 -20 -20 -20 -20 -13 -20 -20 -20 -20 -20 -20 -20
-18 2 4 -20 -20 -20 -20 17 14 11 16 -4 -10 5 32 27 23 23 3 10 -9 -20 -17 -20 -20 -20 -20 -20 -20 -20 -20 -20 -20 -20 -20 -20 -20 -20 -20 -20 -20 -20 -20 -20 -20 -20 -20
-13 11 0 11 17 -15 -11 1 -7 17 -8 6 3 2 28 25 24 24 4 -10 -20 -20 -20 -20 -20 -20 -20 -20 -20 -20 -20 -20 -20 -20 -20 -20 -15 -20 -20 -20 -6 -20 -20 -20 -20 -20 -20
-20 -7 -20 6 14 -19 10 17 -19 11 22 17 14 4 16 27 32 31 -4 -20 -20 -20 -20 -20 -20 -20 -20 -20 -20 -20 -20 -20 -20 -20 -20 -20 -20 -20 -20 -20 -20 -20 -20 -20 -20 -20 -20
-5 -20 -20 12 -20 -20 -6 -2 -10 12 19 -13 21 -20 18 26 37 34 21 1 -20 -20 -20 -20 -15 -20 -20 -2 -5 -20 -20 -20 -20 -20 -20 -20 -20 -20 -20 -20 -20 -20 -20 -20 -20 -4 -18
-20 -20 8 -20 -20 16 0 22 25 20 13 18 -3 -1 -5 37 38 35 23 32 -12 -20 -20 -20 4 -20 9 -18 -20 -20 -20 -11 -3 -20 -20 -20 -20 -20 -20 -20 -20 -6 -20 -20 -20 -19 -13
5 15 17 15 -7 -11 13 24 12 -11 2 11 -20 -20 -15 16 32 32 13 30 -20 -20 -20 -10 -7 3 12 -6 -4 -20 -4 11 -15 11 -7 -16 -20 -20 -20 -20 -20 -20 -13 -20 -9 -10 6
-6 13 16 16 18 -20 18 13 6 19 24 16 4 -1 -2 35 38 35 24 -1 -20 -20 -20 -11 -14 12 5 -6 3 8 2 1 5 -3 -17 -6 3 -7 -15 -20 -18 15 28 7 4 10 -18
18 14 17 15 -15 19 12 -18 25 29 36 20 21 -20 4 26 37 36 24 -20 -20 -20 -20 -20 -16 8 -12 -20 -18 -3 -7 -3 14 19 16 -19 -20 -2 -20 -20 -20 -20 11 13 -9 -20 -20
9 17 17 16 11 14 -20 -20 24 35 22 -12 27 -20 -13 33 39 39 9 -20 -20 -20 -20 -20 -11 -14 -18 -20 -11 5 -6 -5 -20 -3 -11 -17 -20 -20 -20 -20 -20 23 11 1 10 -8 11
19 15 16 17 18 6 -20 4 19 36 33 22 3 -0 -0 26 35 39 9 -20 -20 -20 -20 -20 -20 -20 -20 -20 -19 -10 -20 -20 -20 -20 -20 -20 1 -20 -20 -12 -11 13 -1 -2 11 21 13
13 19 17 18 7 -20 -11 7 17 20 32 21 19 26 35 38 36 36 7 -20 -20 -20 -20 -20 -20 -20 -20 -20 -20 -20 -20 -20 -20 -20 -20 -14 9 -20 -13 -12 -20 5 2 16 -0 9 -4
14 18 16 20 -20 -20 5 14 4 18 38 25 13 14 22 40 40 36 -6 -20 -20 -20 -20 -20 -20 -20 -20 -20 -20 -20 -20 -20 -20 -20 -20 -20 3 -2 -20 -10 10 11 -18 9 9 -19 -20
17 19 16 17 13 -20 -1 14 3 17 35 30 28 11 28 20 28 30 -12 -20 -20 -20 -20 -20 -20 -20 -20 -19 -16 -20 -20 -20 -20 -20 -20 -20 10 -3 -16 1 8 30 25 27 14 -13 -20
1 20 19 -13 -20 10 -20 11 16 21 31 21 11 25 37 35 28 -1 -20 1 -20 -20 -20 -20 -16 -2 -14 5 -16 -20 -20 -20 -20 -20 -20 -20 4 10 15 23 35 21 18 31 25 15 -20
-6 21 18 21 16 9 -20 2 13 30 22 9 9 36 29 32 26 -17 -16 -20 -20 -20 -20 -20 1 2 -8 13 7 -5 -19 -20 -20 -20 -20 -2 4 16 16 29 36 34 27 29 22 -6 -20
-20 -15 -3 20 13 -20 -20 4 13 31 20 3 23 11 11 -5 -2 -19 -15 -20 -20 -13 -17 -20 1 -17 10 14 4 -19 -20 -20 -20 -20 -19 23 15 -9 11 28 28 14 18 6 -20 -20 -20
17 19 16 -12 -20 -20 -20 8 7 32 21 26 23 2 7 15 -3 -12 -18 -15 -20 -13 -20 -20 -17 14 5 16 17 11 -20 -20 -20 -12 8 19 13 29 11 30 14 5 6 -12 -8 1 -3
5 -10 -9 11 8 -20 -14 18 8 24 28 20 24 26 12 30 20 -12 4 30 6 -13 2 -5 -16 -17 -9 17 20 6 -20 -20 -20 -20 -20 -1 24 30 22 26 17 23 11 -20 -20 -20 -20
1 20 19 -10 -2 -20 -20 2 -0 14 22 27 22 19 21 21 -8 9 19 3 -20 -10 3 14 -20 -20 -14 24 21 -12 -20 -20 -20 -20 -18 -19 2 28 24 17 23 -18 3 3 -19 -20 -20
6 1 19 -17 -2 -20 -20 -20 -20 13 16 19 12 15 -5 -20 -16 -20 -20 -20 5 15 16 23 -20 -20 9 24 25 -13 -20 -20 -20 -20 -20 -20 -20 22 22 -5 -18 -20 -19 -3 10 22 -19
-15 2 13 5 3 2 -5 -20 -19 11 19 17 21 22 5 -14 -20 -20 -20 -20 -19 3 24 -1 -20 -20 -0 21 24 -3 -7 -20 -20 -20 -20 -7 -17 -4 9 -5 -20 -20 -20 -20 -20 -20 -20
4 7 7 12 -5 -0 6 -20 -20 4 14 10 17 22 6 -20 -20 -20 -20 -20 -20 -20 -20 -13 -17 -7 21 29 26 -17 -19 -20 -20 -20 -20 -20 -20 -20 -11 -19 -20 -20 -20 -20 -20 -20 -20
1 -1 8 8 4 3 -2 -20 0 10 22 15 -6 -19 -20 -20 -20 -11 -11 -20 -9 -20 -18 -20 -18 16 23 26 6 -11 15 -20 -20 -20 -20 -20 -20 -20 -20 -20 -20 -20 -20 -20 -20 -20 -20

GFSGBSN_prec_radar_027.txt.gz
Reflectivity
-20 -20 -20 -20 -20 -20 9 14 15 15 12 -13 18 12 20 -1 27 10 -20 -20 -20 -20 -20 -20 -20 -20 -20 -20 -20 -20 -20 -20 -20 2 -15 -20 -20 -20 -20 -20 -20 -20 -20 -20 -20 -20 -20
-20 -20 -20 -20 -20 11 -10 -3 13 15 13 8 -14 15 7 11 19 24 0 -20 -20 -20 -20 -20 -20 -20 -20 -20 -20 -20 -20 -20 -20 13 5 3 -20 -20 -20 -20 -20 -20 -20 -20 -20 -20 -20
-20 -20 -20 -20 -20 -5 -20 -1 15 15 16 11 -5 9 14 3 -7 24 2 -20 -20 -20 -20 -20 -15 -20 -20 -20 -20 -20 -20 -20 -20 -2 12 12 -0 -20 -20 -20 -20 -20 -20 -20 -20 -20 -20
-20 -20 -20 -20 -20 -20 -20 11 7 23 17 -3 16 3 7 26 8 21 25 8 -20 -20 -20 -20 -6 -20 -20 -20 -20 -20 -20 -20 -20 -20 -20 -20 12 15 13 -20 -20 -18 -20 -20 -20 -20 -20
-20 -19 -5 -18 -20 -20 -20 -20 -20 -12 -15 7 14 -9 -2 25 25 18 20 22 7 -20 12 -1 -20 -20 -20 -20 -20 -20 -20 -20 -20 -20 -20 -20 -12 -20 -20 -20 -20 -20 -20 -20 -20 -20 -20
2 8 16 -15 -1 -20 -20 -20 -20 2 -6 8 7 10 -10 8 32 21 25 22 18 12 11 -1 -4 -20 -20 -20 -20 -20 -20 -20 -20 -20 -20 -20 -20 -20 -8 -18 -20 -20 -20 -20 -20 -20 -20
15 16 15 -20 17 -20 -20 -20 -19 15 -5 16 1 -6 -4 5 29 30 25 24 11 4 -1 -20 -20 -20 -20 -20 -20 -20 -20 -20 -20 -20 -20 -20 -20 -6 -20 -20 -20 -20 -20 -20 -20 -20 -20
12 15 12 13 16 -20 12 -16 -12 11 -7 16 20 6 -4 1 25 36 34 8 -20 -20 -20 -20 -20 -20 -20 -20 -20 -20 -20 -20 -20 -20 -20 -20 -20 -20 -20 -20 -20 -20 -14 -16 -20 -20 -20
16 16 2 -9 -20 -20 13 -20 13 -13 -19 21 16 5 15 -15 16 35 35 19 3 -20 -20 -20 -20 -20 -20 -20 -20 -20 -20 -20 -20 -20 -20 -20 -20 -20 -20 -20 -20 -19 -19 -20 -20 -20 -20
-0 3 12 -20 -20 -18 -20 -14 9 18 22 16 1 -8 18 -1 -17 34 30 28 -4 -20 -20 -20 -20 -20 -20 -16 -16 -20 -20 -20 -20 -20 -20 -20 -20 -20 -20 -20 -20 -20 -20 -20 -20 1 -20
16 3 17 13 17 3 1 12 -17 -18 13 13 5 8 11 7 -1 28 37 37 -2 -19 -20 -20 -19 -20 -14 -19 -19 -13 -20 -16 -11 -20 -20 -20 -20 -20 -20 -20 -20 -20 -20 -20 -20 -20 -2
10 17 21 4 12 -9 -3 -9 7 -20 20 24 12 -2 8 -13 -5 -1 39 38 23 -19 -20 -7 -11 11 14 1 8 -20 -18 10 -20 -1 -20 -17 -20 -20 -20 -20 -20 -20 -18 -14 -8 4 7
14 18 12 11 4 5 -15 15 -20 -13 22 35 29 7 -9 7 -10 29 38 39 22 -20 -20 4 -13 7 -11 -16 8 2 10 -1 -14 -4 -7 -17 5 -18 -18 -18 -20 -20 22 1 13 15 -17
13 16 14 16 14 11 -16 -13 -20 7 32 25 17 19 11 -20 -15 36 38 34 9 -20 -20 -20 -20 4 -15 -0 -19 -19 -20 4 3 10 -2 -16 -20 2 -16 -19 -20 -17 -18 -11 -20 -20 -20
17 17 -13 16 16 7 -5 -20 -20 15 29 25 -20 13 16 10 14 29 40 24 -12 -20 -20 -20 -3 -13 2 7 -20 -5 -2 -18 -20 5 5 -20 -20 -20 -20 -20 -20 6 -3 -20 2 -20 12
-20 6 16 17 0 0 -20 -20 -11 16 39 25 19 18 -4 9 10 40 42 2 -6 -20 -20 -20 -20 -20 -20 -20 -15 -4 -9 -20 -20 -20 1 -18 -20 -20 -20 -14 -20 -1 5 -2 10 8 10
16 16 16 16 17 -17 -20 3 9 18 34 28 17 18 1 25 33 38 27 -7 -20 -20 -20 -20 -20 -20 -20 -20 -20 -20 -20 -20 -20 -20 -20 -20 -20 -20 -19 -8 -20 2 15 21 4 8 2
16 13 18 18 20 12 -4 -20 -17 15 27 36 25 23 16 26 35 32 34 -20 -20 -20 -20 -20 -20 -20 -20 -20 -20 -20 -20 -20 -20 -20 -19 -20 -20 -20 -20 -20 -18 4 12 22 24 -4 6
14 14 18 17 19 -20 11 -20 3 19 20 27 34 14 19 28 25 28 27 -19 -20 -20 -20 -20 -20 -20 -20 -20 -20 -20 -20 -20 -20 -20 -20 -20 -20 -20 -20 -20 -8 9 3 25 33 30 18
6 16 18 14 -20 -8 -7 -20 7 25 29 13 14 23 34 25 8 -5 -20 -20 -20 -20 -20 -20 -20 -20 -20 -20 -20 -20 -20 -20 -20 -20 -20 -20 -9 -20 1 18 26 22 23 30 29 23 7
13 9 16 16 -20 15 -20 -0 15 29 22 16 12 9 25 19 18 14 9 -8 -20 -20 -20 -20 -20 -19 -17 11 17 -12 -20 -20 -20 -20 -20 -20 -8 -3 6 -6 16 27 27 30 20 5 11
12 13 6 16 -20 17 -20 -6 7 32 8 26 17 20 18 -19 -1 -7 -4 -11 -11 -20 -20 -20 -20 -20 6 8 -20 -20 -20 -20 -20 -20 -20 -1 -19 18 12 -20 17 28 19 0 10 -2 -14
12 2 4 19 -20 5 -20 -20 10 21 24 10 7 28 22 7 -0 -14 -20 -20 -20 -20 2 -20 -20 -20 7 16 -20 -16 -13 7 -12 -10 -12 7 9 25 -0 -16 21 16 -11 19 3 -20 -20
-5 -5 -6 10 0 13 -1 -20 -20 -11 25 27 22 23 2 15 -13 -20 1 -20 -20 -20 -20 -20 -20 -11 -18 -19 -11 -20 -20 -6 -18 -17 -20 -17 -10 24 -10 9 17 27 29 3 -16 -18 -9
12 -13 -3 0 3 7 3 2 -20 -17 14 10 20 32 11 -17 1 0 -20 -1 27 13 17 7 4 17 -6 6 1 -15 -20 -20 -20 -20 -20 -20 -6 17 8 7 14 32 28 23 20 14 -13
-17 7 -20 -20 -4 -5 0 -5 -20 -14 17 25 27 34 17 -19 -20 -17 -2 -20 -20 -19 9 -7 13 -20 9 7 17 -3 -20 -20 -20 -20 -20 -20 -15 17 -17 3 -20 -2 17 20 -10 -9 6
9 11 -20 8 -0 -10 -2 -20 -20 -14 7 21 3 28 1 -20 -20 -20 -20 -20 -20 -13 -3 16 13 7 -14 15 27 7 -20 -20 -20 -20 -20 -2 7 -17 -2 15 -20 -20 -20 -6 -20 17 4
-2 7 8 6 6 10 10 -20 -20 -14 4 20 16 27 22 -19 -20 -20 -20 -20 -20 -20 -20 -15 -5 -14 7 28 19 -8 -20 -20 -20 -20 -20 -20 -20 -13 -20 -20 -20 -20 -20 -20 -20 -20 -20
-3 1 -1 8 10 10 -19 -20 -17 5 7 13 26 15 20 -20 -20 -20 -20 -20 -20 -20 -5 -5 11 -19 20 16 25 -10 -10 -20 -20 -20 -20 -20 -20 -20 -20 -20 -20 -20 -20 -20 -20 -20 -20

GFSGBSN_prec_radar_030.txt.gz
Reflectivity
-20 -20 -20 -20 -20 -20 -20 -20 -1 12 4 10 9 -6 -12 5 -2 15 25 -20 -20 -20 -20 -20 -20 -20 -20 -20 -20 -20 -20 -20 -20 20 21 -20 -20 -20 -20 -20 -20 -20 -20 -20 -20 -20 -20
-20 -20 -20 -20 -20 -20 -12 -20 -12 -20 1 -1 15 -10 -20 4 8 12 25 14 -20 -20 -20 -20 -20 -20 -20 -20 -20 -20 -20 -20 -20 7 17 1 -20 -20 -20 -20 -20 -20 -20 -20 -20 -20 -20
-20 -20 -20 -20 -20 -4 -20 -20 -20 -20 -20 -20 -7 10 -11 -19 7 13 24 24 -19 -20 -20 -20 -20 -20 -20 -20 -20 -20 -20 -20 -20 19 13 -1 -20 -9 -20 -5 -20 -20 -20 -20 -20 -20 -20
-15 4 -4 5 -15 -20 -20 -8 -17 -20 -20 -17 -13 -19 10 -20 13 15 14 28 13 -18 -20 -20 -18 -20 -20 -20 -20 -20 -20 -20 -17 -20 -16 23 -14 10 8 -20 -20 -20 -20 -20 -20 -20 -20
-5 16 3 -19 -20 -15 -20 -18 -20 -20 -20 13 -19 -4 11 0 2 5 23 27 26 1 -20 -20 -20 -20 -20 -20 -20 -20 -20 -20 -20 -11 -20 -1 11 18 7 -20 -20 -20 -20 -20 -20 -20 -20
11 18 -18 -20 -18 -3 -1 -17 -20 -20 -20 -6 13 -20 10 -20 8 13 28 24 25 21 19 17 -13 -20 -20 -20 -20 -20 -20 -20 -6 -20 -20 -20 -20 -20 -20 -20 -20 -20 -20 -20 -20 -20 -20
-0 -18 10 12 12 12 -20 -20 19 17 -20 -20 8 -18 -17 15 8 19 20 37 36 31 10 -20 -20 -20 -20 -20 -20 -20 -20 -20 -20 -20 -2 -1 -5 -20 -20 -20 -20 -20 -20 -20 -20 -20 -20
19 12 7 13 -17 16 5 2 9 7 18 7 19 1 -18 -5 16 14 27 44 26 -6 -2 3 -20 -20 -20 -20 -20 -20 -20 -20 -20 -7 -20 -20 -20 -20 -20 -20 -20 -18 -14 -19 -20 -20 -20
13 13 12 15 19 16 -20 5 18 -13 17 -20 -19 -8 -20 -12 -18 -17 28 39 27 -10 -20 -19 -20 -20 -20 -20 -20 -20 -20 -20 -20 -20 -20 -20 -20 -20 -20 -20 -20 -20 -20 -16 -20 -20 -20
-20 10 -1 16 8 16 15 17 -20 8 12 -16 15 2 9 10 -9 -17 21 25 37 31 26 -20 -20 -20 -20 -20 -20 -20 -20 -20 -20 -20 -20 -19 -20 -20 -20 -20 -20 -20 -20 -20 -20 -5 -10
-1 14 17 -20 20 17 17 10 15 19 -20 -20 20 22 -11 19 16 -20 2 24 38 35 5 -20 -12 -12 -19 -20 -20 -11 -20 -20 -10 -20 -20 -20 -20 -20 -4 -20 -20 -5 -20 -20 -20 -8 -19
-20 7 -8 16 16 -3 17 7 9 -20 -20 11 26 31 22 15 22 -19 22 40 37 32 -20 -8 8 12 8 -3 -6 -5 4 6 -20 -4 -20 -20 -20 -20 -20 -20 -20 -15 -12 -11 2 6 8
-7 2 14 16 19 17 15 6 -20 -14 10 11 29 25 12 9 8 9 23 41 31 17 -20 8 -7 16 -4 1 5 -1 11 0 3 8 11 -11 2 -20 -20 -16 -20 -7 14 1 11 9 -20
14 14 15 17 -6 14 12 8 -20 13 8 37 24 -5 -16 -2 -20 16 27 34 26 -10 -11 -20 4 8 11 -18 9 -3 9 12 2 2 -0 -3 -20 -4 -20 -19 -7 -14 8 -3 -20 -20 -20
18 18 19 17 -15 17 2 -19 -9 10 6 34 30 -0 15 9 -12 26 21 21 20 -20 -20 -19 2 5 -3 -17 -20 0 -2 -18 -20 -20 -10 1 -20 -20 -20 -20 -11 8 -7 -17 10 3 13
16 14 15 -7 17 20 4 -20 -18 -12 13 34 18 17 2 7 9 19 33 32 10 -20 -20 -20 -20 -20 -20 -20 -16 -20 -20 -20 -20 -20 -20 -1 -10 -20 -20 -16 -19 -17 -12 7 2 -0 -5
13 0 17 16 18 11 -8 3 -20 -15 9 36 32 18 23 23 -3 31 34 34 -0 -4 -2 -20 -20 -20 -20 -15 -20 -20 -20 -20 -20 -20 -20 -15 -20 -20 -1 1 -20 -5 7 14 4 8 3
1 3 17 17 -12 13 15 -20 -20 -1 14 16 29 36 11 -20 19 -1 23 23 -15 -12 -20 -20 -20 -20 -20 -20 -20 -20 -20 -20 -20 -20 -19 -20 -3 -6 -19 -20 -20 -20 -19 -3 17 12 19
-4 10 9 16 11 13 8 -20 -11 13 27 31 29 29 10 4 6 22 22 12 -6 -18 -20 -20 -20 -20 -20 -20 -20 -20 -20 -20 -20 -20 -20 -11 8 -18 -20 -20 -19 -20 -20 1 21 26 18
13 16 2 16 13 1 -7 -20 -10 22 16 9 25 26 27 25 8 6 23 15 -16 -20 -20 -20 -20 -20 -20 -20 -20 -20 -20 -20 -20 -20 -20 -20 -2 -20 -20 -20 4 11 -20 24 27 20 -8
14 11 -12 8 16 -20 -9 -20 -19 23 15 6 17 -12 -15 12 3 15 11 12 -5 -20 -20 -20 -20 -20 -20 -20 -19 -12 -20 -20 -20 -20 -20 -18 -7 -20 -20 -20 -20 -20 -20 -15 17 15 14
-18 -20 -11 6 9 -20 -5 -20 -20 -7 -6 -15 25 13 7 -3 14 20 10 -6 -20 -20 -20 -20 -20 -20 -20 -20 -20 -20 -20 -20 -20 -20 -20 7 -12 4 -5 -20 -20 -10 4 10 6 7 -2
4 11 -5 6 -20 -7 2 -4 -20 -20 9 9 -15 0 15 -3 9 9 -20 -20 -20 -20 -20 -20 -20 -20 -20 -20 4 -6 -12 -20 1 -15 -20 -8 -9 1 -2 -19 -8 8 31 13 -9 -11 -20
6 10 -4 -20 -20 6 3 -10 -20 -20 10 14 11 10 12 -18 7 -17 -20 -20 -20 -20 -20 -8 -20 -20 -18 -20 -6 9 4 -4 -5 14 -20 3 4 7 -3 -6 13 18 24 10 25 20 -7
6 9 5 -5 0 -8 -17 1 -20 -13 7 17 24 11 14 3 -19 -9 -20 -20 -20 -20 -20 -17 -7 -20 -1 -5 -8 10 -16 -16 -20 -20 10 9 13 17 10 11 13 15 19 24 18 4 9
-19 -16 6 -4 8 -19 5 -16 -20 -0 9 0 23 27 6 6 -20 -20 -20 -20 -20 -20 -14 -20 -20 -18 15 15 20 10 -20 -20 -20 -20 -20 -20 5 10 -5 7 -2 13 28 -1 -13 9 2
-9 -20 -20 -20 8 13 -13 -20 -20 -2 4 15 21 21 4 1 -20 -20 -18 -6 -20 -20 6 18 1 1 4 12 11 10 -13 -20 -20 -20 -20 -4 18 7 0 12 -20 -20 -20 -19 -18 -13 -20
-19 -20 -20 -10 -9 -6 -20 -20 -20 -20 -20 20 23 28 19 1 -20 -20 -20 -20 -20 -20 -13 -19 6 -2 -9 10 8 1 0 0 -20 -20 -20 -20 -17 -6 -14 3 -17 -20 -20 -20 -20 -20 2
-1 -20 -20 -20 -20 -20 -20 -20 -20 -20 -20 14 11 12 -15 -17 -18 -20 -20 -20 -20 -20 -20 -20 -12 -20 -18 2 9 24 6 -20 -20 -20 -20 -20 -20 -20 -20 -20 -20 -20 -20 -20 -20 -20 -20

GFSGBSN_prec_radar_033.txt.gz
Reflectivity
-20 -20 -20 -20 -20 -20 -20 -9 -20 -20 -20 -20 -20 -20 9 12 -20 5 8 9 25 -20 -20 -20 -20 -20 -20 -10 -20 -20 -20 -20 -20 21 -1 -5 -20 -20 -20 -20 -20 -20 -20 -20 -20 -20 -20
-20 -20 -20 -20 -17 -18 -20 -20 0 -20 -20 -20 -20 -20 -13 8 -20 -20 -5 2 25 6 -20 -20 -20 -20 -20 -20 -20 -20 -20 -20 -20 11 4 -12 -16 -20 -20 -20 -20 -20 -20 -20 -20 -20 -20
-20 -20 -20 -12 10 -20 -8 -20 -20 -20 -20 -20 -20 -20 -20 -18 -3 -20 -9 13 20 29 -14 -20 -20 -20 -20 -20 -20 -20 -20 -20 -20 -20 7 4 -20 -20 -20 -20 -20 -20 -20 -20 -20 -20 -20
6 13 -4 -20 8 -18 -19 -20 -18 -20 -20 -20 -20 -20 -9 -16 -2 -12 9 -0 18 26 11 -20 -20 -20 -20 -20 -20 -20 -20 -20 -20 -7 -20 -11 -20 -20 -17 -20 -20 -20 -20 -20 -20 -20 -20
10 -7 -1 -17 13 14 -5 17 4 -17 -20 -20 -20 -12 -4 -14 -12 10 -17 3 13 32 18 2 -16 -20 -20 -20 -20 -20 -20 -20 -20 -20 -20 5 11 -2 -6 7 -16 -20 -20 -20 -20 -20 -20
11 15 -4 15 -20 -2 9 3 18 -20 19 6 -20 -20 -14 -20 -20 -19 5 -12 6 40 32 16 6 -20 -20 -20 -20 -20 -20 -20 -20 -12 9 -7 6 -5 -20 8 -17 -20 -20 -20 -20 -20 -20
-20 1 13 14 14 14 7 21 18 -8 -4 18 -15 4 -20 -20 23 -3 13 9 27 42 33 8 -20 -20 -20 -20 -20 -20 -20 -20 -20 -15 -20 -20 -15 -20 -20 -20 -20 -20 -20 -20 -20 -20 -20
13 14 -0 9 12 17 18 -9 -12 -9 16 18 -6 -14 -3 -14 -10 -16 24 23 34 36 24 -5 -20 -20 -20 -20 -20 -20 -20 -20 -14 -12 -20 -10 -10 -20 -20 -20 -20 -20 -20 -20 -20 -20 -20
-6 -20 -4 -19 19 17 6 18 7 -3 22 22 9 -4 19 -18 18 -20 9 10 30 35 35 -5 -20 -20 -20 -20 -20 -20 -20 -20 -2 -3 -20 -12 -20 -20 -20 -20 -20 -20 -20 -20 -20 -20 -20
-19 -4 8 -6 -20 -20 -2 20 19 21 19 5 -20 11 29 16 -16 2 3 19 35 41 31 14 1 -20 -20 -20 -20 -20 -20 -20 -20 -18 -20 -3 -20 -20 -20 -20 -20 -20 -20 -20 -20 -20 -20
-5 10 14 16 14 15 19 20 18 19 -7 -18 13 19 25 37 12 18 24 20 38 37 19 16 6 -20 -20 -20 -20 -7 -20 -19 -20 -20 -20 -20 -20 -20 -20 -20 -20 -20 -20 -20 -20 -20 -8
11 18 18 17 12 18 20 7 4 -20 -20 9 17 31 27 24 23 -20 15 34 38 29 26 6 7 0 -19 -20 -20 0 -12 -11 -20 -12 -12 -20 -20 -12 -20 -20 -20 -20 -20 -20 -20 -3 1
14 18 3 -10 16 15 8 20 4 1 -20 14 15 -18 21 5 12 -20 15 36 30 26 -4 9 -4 8 0 -19 -3 8 -8 4 -12 3 -3 -8 -20 -20 -20 -18 -16 -7 -4 -16 -6 5 -20
9 15 12 10 16 15 16 13 -20 -20 5 10 18 -14 26 -16 -14 3 18 35 24 20 -16 -20 9 9 6 -20 -1 -14 -18 9 -1 -20 -20 -19 -13 -20 -20 -19 -19 -20 3 -20 -20 -20 -20
-1 2 13 -7 17 -8 -12 2 6 -20 7 16 28 -18 24 25 19 -0 16 18 29 -17 -20 -18 12 11 9 3 -12 1 2 0 -3 -20 -20 -20 -20 -20 -20 -20 -20 -6 -6 -20 -4 -20 -14
8 8 13 12 15 -5 8 7 -20 -20 6 18 28 2 21 -1 20 2 17 14 33 -12 -18 -8 -9 -17 4 4 1 -7 -19 -20 -20 -20 -20 -11 -13 -20 -20 -12 -20 -20 -20 -9 -0 -1 -20
14 14 14 8 -20 6 7 -18 -20 1 7 2 8 19 17 13 -2 22 -7 -3 16 -8 -17 -7 -20 -20 -20 -14 -8 -15 -20 -20 -20 -20 -20 -20 -16 -20 -19 -16 -20 -14 2 1 -12 9 -2
8 13 4 -15 -11 9 -5 -14 -4 15 18 29 23 29 25 -3 3 27 28 28 9 22 -19 -20 -13 -20 -20 -20 -3 -20 -20 -20 -20 -20 -19 -20 -20 -4 -20 -20 -20 -20 -20 -13 11 -20 12
-15 9 11 16 -20 -4 7 -12 -12 16 26 15 3 17 22 18 15 16 30 20 3 -1 -19 -20 -20 -20 -20 -20 -5 -15 -20 -20 -20 -20 -20 -20 -2 -20 -20 -16 -20 -20 -20 -10 11 22 11
-7 11 -1 -20 9 -7 4 -5 -20 -10 32 9 14 16 7 7 2 11 27 20 5 8 -20 -20 -20 -20 -20 -20 -20 -20 -20 -20 -20 -20 -20 -18 -7 -20 -20 -20 -20 -19 -14 -1 26 21 -7
6 5 14 -20 12 -13 4 -13 -20 -20 -20 -15 2 7 -1 -19 22 -10 17 17 20 4 -20 -20 -20 -20 -20 -20 -20 -20 -20 -20 -20 -20 -20 -15 -1 -8 -20 -20 -20 -20 -2 4 20 24 20
9 9 6 -20 5 6 4 5 -20 -20 -20 6 9 13 7 6 -10 11 -20 14 9 -20 -20 -20 -20 -20 -20 -20 -20 -15 -20 -20 -11 -20 -20 -3 2 3 -20 -20 -20 -20 -3 23 7 5 8
5 7 -10 -14 12 5 -1 7 -20 -12 -16 0 -10 -4 5 0 8 -8 -20 -7 5 -20 -20 -20 -20 -20 -20 -20 -20 -20 -20 -20 -20 -12 -6 4 9 -2 -20 -20 -19 -11 16 8 3 30 22
-15 -13 -8 -20 3 -2 5 -18 -20 4 13 9 5 3 4 7 5 -20 -20 -20 -20 -20 -18 -20 -20 -15 -2 -20 -20 -20 -19 -20 -20 -12 13 0 10 9 -20 -15 -15 -9 -11 -20 -18 -12 11
-20 -20 -20 -20 -20 9 8 -20 -20 -5 8 3 3 -3 10 -13 -12 -20 -9 -20 -20 -20 -20 0 -1 -16 -16 -20 7 -20 -16 -2 -18 -19 5 -1 1 6 8 -5 -20 -20 -20 -20 -9 -19 2
-19 -20 -20 -20 -19 -7 -20 -20 -20 -20 -14 -19 18 9 5 12 -3 -12 -19 -18 4 -1 -16 0 -3 -20 -20 -1 8 4 -18 -20 -7 -1 -20 -4 9 -12 1 7 -18 -20 -20 -20 -20 2 -20
-19 -20 -20 -20 -20 -20 -20 -20 -20 -20 -20 0 12 20 7 6 -4 -20 -8 -1 -17 -8 -2 2 -2 -10 -7 16 4 4 -8 -20 -15 -1 -13 6 22 1 3 10 -20 -20 -20 -20 -15 -20 9
3 -20 -20 -20 -20 -20 -20 -20 -20 -20 -20 -6 15 -1 -0 -12 13 -20 -20 3 -14 -20 1 -12 -16 -15 15 15 10 2 12 10 -20 -12 -20 -20 -17 -4 -1 8 -18 -20 -20 -20 -20 -20 -20
3 3 -20 -20 -20 -20 -20 -20 -4 -20 -20 -17 24 22 19 -16 4 -20 -20 -20 -17 7 11 -20 9 -20 -15 -19 8 11 14 -14 4 -6 -20 -20 -19 1 -18 -18 -20 -20 -20 -20 -20 -20 -20

GFSGBSN_prec_radar_036.txt.gz
Reflectivity
-20 -20 -20 -13 10 5 -20 -7 -20 -20 -20 -20 -20 -7 -19 -20 -20 11 11 10 5 19 24 -20 -20 -20 -20 -6 -20 -20 -20 -20 -8 24 -20 7 -20 -20 -20 -20 -20 -20 -20 -20 -20 -20 -20
-15 8 13 -7 -20 -8 -20 8 -20 -20 -2 -11 -6 -20 7 -20 -9 -11 6 8 -9 6 26 14 -20 -20 -20 -20 -20 -20 -20 -20 -20 -20 6 7 -20 -20 -20 -20 -20 -20 -20 -20 -20 -20 -20
16 3 -6 -6 9 9 14 15 -0 -19 -20 -20 -18 -10 1 3 -15 -20 9 8 -4 -8 29 22 -20 -20 -20 -20 -20 -20 -20 -20 -20 -20 24 6 -15 -20 -20 -20 -20 -20 -20 -20 -20 -20 -20
-0 15 19 10 14 14 11 -4 16 17 -5 13 -20 -20 4 -20 4 -7 0 -1 -3 11 28 25 23 -18 -17 -20 -20 -20 -20 -20 -14 -12 -20 21 -1 -4 -19 -16 -20 -20 -20 -20 -20 -20 -20
-4 2 11 14 18 -7 14 19 20 21 17 18 -4 -17 4 14 1 -2 16 -20 -6 -1 15 31 19 -7 -19 -20 -20 -20 -20 -20 -20 -20 -12 -9 -4 -4 -19 -9 4 -20 -20 -20 -20 -20 -20
-10 14 15 -7 1 5 17 19 -10 -1 -9 0 21 -14 -20 2 -4 -18 -20 4 -20 8 20 36 17 -1 -20 -20 -20 -20 -20 -20 -20 -20 16 28 -15 1 9 7 -14 -20 -20 -20 -20 -20 -20
13 1 -20 -12 17 17 -20 17 19 -18 20 21 -14 -19 -20 -10 -11 22 20 -20 15 16 37 32 9 -20 -20 -20 -20 -20 -20 -20 -20 -2 14 -6 -17 5 -20 -20 -20 -20 -20 -20 -20 -20 -20
17 -10 0 18 13 -6 19 13 18 20 21 -18 -4 -14 8 -10 -13 17 17 6 14 14 37 27 2 -17 -20 -20 -20 -20 -20 -20 -3 9 6 -20 -20 -20 -20 -20 -20 -20 -20 -20 -20 -20 -20
17 16 13 18 14 17 17 19 19 10 10 2 5 -20 5 22 12 -20 -20 -17 10 29 36 32 1 -3 -20 -20 -20 -20 -20 -20 -17 -0 -3 -12 -20 -20 -20 -20 -20 -20 -20 -20 -20 -20 -20
15 12 14 14 13 0 15 15 -2 -6 10 15 -18 4 15 22 12 4 -5 17 16 36 26 26 29 17 -20 -20 -20 -20 -20 -19 -19 -3 2 4 -20 -20 -20 -20 -20 -20 -20 -20 -20 -20 -20
8 14 17 11 1 -3 -4 13 17 -20 -10 -18 -8 1 19 22 38 5 23 13 20 37 15 21 25 14 -20 -20 -20 -20 -20 -20 -20 -20 1 -20 -20 -20 -20 -20 -20 -20 -20 -20 -20 -20 -20
3 10 12 -2 11 -0 15 15 14 -20 8 9 12 15 16 -9 18 1 -20 25 28 30 23 34 33 -4 2 9 -8 -20 -20 -20 -20 -20 -10 -20 -20 -20 -20 -20 -20 -20 -20 -20 -20 -20 -20
-3 11 8 10 14 3 8 17 12 8 5 0 -15 11 -15 21 -9 -20 6 19 27 15 25 12 15 7 -5 5 9 -20 -12 -20 -20 -20 -20 -20 -20 -20 -20 -20 -20 -20 -19 -20 -14 -13 -20
13 16 -9 14 16 7 -20 16 0 -20 -20 7 11 3 19 -7 7 -7 -7 20 23 21 32 -1 3 2 -17 -16 9 -8 8 -3 -20 -20 -20 -20 -20 -20 -20 -20 -20 -20 -20 -20 -20 -20 -20
8 15 10 13 5 -6 -20 11 -20 -20 3 -5 10 -18 5 24 -20 -8 17 -3 25 29 5 10 12 -13 -6 -20 -11 7 -3 -4 -20 -20 -20 -20 -20 -20 -20 -20 -20 -6 -20 -20 -20 -20 -20
9 14 10 17 17 4 -20 0 -20 12 13 17 20 -20 6 24 -20 -17 11 7 34 27 -12 -11 4 4 2 -17 -7 4 -19 -20 -20 -20 -20 -20 -17 -20 -2 -20 -20 -20 -20 -19 -17 -20 -20
12 12 11 3 -2 0 -2 -12 -11 14 19 11 -20 13 16 23 -12 0 8 6 26 23 0 21 -20 -20 -20 -13 -8 -18 -20 -20 -20 -20 -20 -20 -20 -20 -20 -20 -20 -20 -20 -15 -11 -20 -20
11 8 16 12 5 -1 4 1 -7 25 23 -20 -19 -9 5 18 21 23 -5 5 29 34 -12 -20 -20 -20 -20 -20 -7 -20 -20 -20 -20 -20 -20 -6 -20 -20 -20 -20 -20 -20 -20 -20 -3 -20 -20
-12 -13 14 9 -5 -20 -0 -18 -20 12 8 -6 9 6 15 32 16 12 -5 34 30 -8 8 4 -9 -20 -20 -12 -20 -19 -20 -20 -20 -20 -20 -20 -20 -20 -20 -20 -20 -20 -20 -20 -17 -14 -16
11 11 14 -3 -6 -2 -12 -17 -20 -20 -12 14 3 -20 -19 3 22 33 32 22 23 7 -1 -20 -20 -20 -20 -20 -20 -20 -20 -20 -20 -20 -20 -20 -20 -20 -20 -20 -20 -20 -20 -20 -5 13 -18
9 -13 9 -14 10 -19 -9 -20 -20 -20 -20 -3 14 -18 -18 -16 16 28 16 21 18 7 -20 -20 -1 3 -11 -20 -20 -20 -20 -20 -20 -20 -20 -20 -20 -20 -20 -20 -20 -20 -20 -18 22 5 12
6 -20 -20 8 -20 -20 5 -20 -20 -20 -20 -20 -20 -4 3 -20 -18 8 28 33 12 -20 8 -20 -20 -20 -20 -20 -20 -20 -20 -20 -20 -20 -20 -8 -20 -7 -20 -20 -20 -20 -20 -20 -11 5 -0
3 -20 -20 -8 9 -6 10 -20 -20 -19 -18 -6 -20 -20 -2 2 -20 -4 -10 -20 -5 -10 -20 -20 -20 -19 -20 -20 -20 -20 -20 -20 -20 -20 -20 1 -20 -20 -20 -20 -20 -20 -20 -20 -20 -17 25
7 1 -20 -20 -2 9 6 -3 -20 -19 6 11 1 10 -10 2 -6 -7 -4 -20 -8 -20 -20 -20 -20 -8 -20 -20 -20 -20 -20 -20 -20 -20 -20 0 -5 11 -20 -20 -20 -20 -20 -20 -20 -20 -13
9 -20 5 -15 -20 -19 -20 -20 -20 -20 -19 -7 0 4 -1 -12 -20 -20 -20 8 -20 -20 -20 -11 -17 -19 -20 -20 -20 -20 -20 -4 -20 -20 -20 -12 5 -11 -0 -10 -20 -20 -20 -20 -20 -19 -20
13 6 -20 -14 -20 -20 -1 -20 -20 -20 -20 23 -3 3 1 -2 -9 -20 -17 -20 -19 -20 -20 -18 -13 -20 -20 -19 -7 -20 -0 2 -5 -12 -7 10 9 9 -18 -20 -20 -20 -20 -20 -20 -18 -20
13 6 5 3 -20 -20 2 -8 -20 -14 -20 2 20 6 -2 5 13 -20 -20 -20 -2 -8 -8 10 -1 -8 -13 -4 -2 -18 -20 -20 -19 -4 -20 12 10 -7 1 -16 -20 -20 -20 -20 -20 -20 -20
11 10 6 7 -13 -20 5 4 -1 -20 -20 -7 0 6 -2 -2 -10 -20 -20 -20 -17 -16 9 -20 -18 -11 -20 9 -18 -18 -10 -2 -7 -10 -20 -20 -15 -18 -4 -9 -20 -20 -20 -20 -20 -20 -20
9 1 6 8 0 -20 4 6 -18 -8 -20 -20 2 -3 -13 -5 -14 -20 -20 -20 -19 -20 6 -20 4 -20 -7 -20 -15 -20 -18 -11 -20 -15 -12 -20 -19 -20 -20 -20 -20 -20 -20 -20 -20 -20 -20

GFSGBSN_prec_radar_039.txt.gz
Reflectivity
15 14 12 -7 13 13 -17 -0 14 -5 -14 13 10 -8 -20 -20 17 -2 -20 13 13 11 10 24 22 -20 -20 3 -20 -20 -20 -12 21 -14 -20 -20 -20 -20 -20 -20 -20 -20 -20 -20 -20 -20 -20
18 10 11 16 11 7 15 14 -19 5 12 0 -16 14 -7 -19 -20 -2 -20 -20 14 10 8 25 22 10 -18 -20 -20 -20 -20 -20 7 16 9 7 -20 -20 -20 -20 -20 -20 -20 -20 -20 -20 -20
-9 1 13 8 16 6 -18 8 15 19 22 24 0 -15 -6 11 7 -20 -20 -20 10 1 11 20 24 14 1 -20 -20 -20 -20 -20 -20 -20 13 -20 -5 -20 -20 -20 -20 -20 -20 -20 -20 -20 -20
5 12 20 10 -13 -18 -9 -14 -4 7 -15 -12 20 5 -20 2 -20 -3 3 1 -14 -20 5 11 31 16 -16 -20 -20 -20 -20 -20 -20 -20 -20 -9 -12 -20 -20 -20 -20 -20 -20 -20 -20 -20 -20
14 16 12 -20 -9 15 7 -6 2 -8 19 20 -14 -13 -17 -6 21 -11 -15 -8 -20 -20 5 9 33 -20 -20 -20 -20 -20 -20 -20 -20 -16 -20 10 15 -16 -10 -19 -11 -20 -20 -20 -20 -20 -20
14 14 18 12 16 17 16 15 16 15 16 18 20 -8 22 12 2 -10 -17 -20 -20 -20 -1 28 32 11 -20 -20 -20 -20 -20 -20 -20 6 9 29 24 34 19 10 -8 -20 -20 -20 -20 -20 -20
10 12 13 8 16 16 16 14 15 6 4 15 15 4 -20 6 12 -20 -20 -20 12 -13 -20 26 31 2 -20 -20 -20 -18 -20 -20 -20 -20 -20 17 15 12 -20 -20 -20 -20 -20 -20 -20 -20 -20
-6 11 14 17 14 -20 13 -16 -2 16 7 -18 -13 7 -4 8 -20 -2 -6 -20 -17 8 -15 27 23 15 -20 -20 -20 -20 -20 -20 -20 -2 -20 -13 2 -15 -11 -19 -20 -20 -20 -20 -20 -20 -20
-2 1 12 2 -8 -20 -20 8 -2 5 6 -5 5 5 4 1 16 -7 -4 -20 -20 1 13 10 29 21 -20 -20 -20 -20 -20 -20 -20 1 -20 -20 -20 -18 -8 -19 -15 -20 -20 -20 -20 -20 -20
13 11 -9 -2 -4 7 11 12 15 -12 -1 5 -5 -3 -11 20 10 13 -13 -20 -20 13 23 30 36 29 -20 -20 -20 -20 -20 -20 -20 10 -20 -20 -20 -20 -20 -20 -20 -20 -20 -20 -20 -20 -20
-18 -20 -1 14 17 -3 14 15 14 11 3 -20 -20 10 -19 23 14 9 16 13 21 28 21 27 31 17 7 -20 -20 -13 -20 -19 -20 -20 -20 -20 -20 -20 -20 -20 -20 -20 -20 -20 -20 -20 -20
-17 10 5 15 17 8 4 -20 17 12 -20 -20 -20 -16 20 2 6 -9 3 15 21 24 21 34 23 12 12 -11 -16 -20 -9 -20 -20 -16 -20 -20 -20 -20 -20 -20 -20 -20 -20 -20 -20 -20 -20
-20 10 13 1 -6 -10 8 -17 12 -20 -20 -20 -18 7 19 22 8 -20 -20 -8 17 -4 36 28 18 -9 -5 12 -14 -20 -19 -13 -20 -20 -20 -14 -20 -20 -20 -20 -20 -20 -20 -20 -20 -20 -20
-11 12 7 3 -15 -9 7 5 -20 12 6 7 -5 18 -20 23 -20 -13 -16 7 -4 27 33 21 2 9 8 -11 -19 -17 -20 -20 -20 -20 -20 -20 -20 -20 -20 -20 -20 -20 -20 -20 -20 -20 -20
-20 -20 2 6 -20 -1 -9 11 -16 2 12 12 9 -20 22 22 -20 -20 2 12 21 31 20 23 5 -0 10 -0 -4 7 7 -20 -20 -20 -20 -20 -20 -20 -20 -20 -20 -20 -20 -20 -20 -20 -20
-20 -9 0 16 -20 2 8 8 6 4 19 -20 -11 21 17 16 14 -11 26 18 20 30 7 -13 13 -12 -2 -1 -1 -12 0 -20 -20 -20 -20 -20 -20 -20 -12 -20 -20 -20 -20 -20 -20 -20 -20
-20 7 5 13 -20 1 7 3 1 12 -20 -20 -20 4 14 12 11 21 7 29 34 21 27 15 -20 -18 -20 -4 -6 -1 -20 -20 -20 -20 -20 -20 -20 -20 -20 -20 -20 -20 -19 -20 -20 -20 -20
6 8 -4 9 -20 10 -3 0 -11 17 4 -20 -20 -20 -20 6 -6 -6 15 20 28 36 -9 -20 -20 -20 -20 -3 -20 -20 -20 -20 -20 -20 -20 -20 -20 -20 -20 -20 -20 -20 -20 -20 -20 -20 -20
5 -16 -20 11 -20 -7 -20 -16 -5 -6 -2 -17 -20 -17 4 -3 -8 11 6 18 14 12 13 0 -20 -20 -20 -20 -20 -20 -20 -20 -20 -20 -20 -20 -20 -20 -20 -20 -20 -20 -20 -20 -20 -20 -20
-10 -20 -20 -20 -20 -16 -2 -20 -20 -20 -20 -19 -20 -20 -20 -17 -17 -7 22 37 25 7 7 -20 -20 -20 -9 -12 -20 -17 -20 -20 -20 -20 4 -20 -20 -20 -20 -20 -20 -20 -20 -20 -20 -2 -20
3 -20 -20 -20 0 5 4 -20 -20 -20 -20 -20 -20 -20 -20 -20 23 3 -3 -18 7 -6 -20 -19 -1 -20 -13 -20 -20 -20 -20 -20 -20 -20 -20 -20 -20 -20 -20 -20 -20 -20 -20 -20 -20 -20 14
5 -1 -20 -20 -20 -20 4 -20 -20 -20 -20 -20 -20 -13 -20 -20 1 -18 -20 -20 -11 -20 -20 -20 -20 -20 -20 -20 -20 -20 -20 -20 -20 -20 -20 -20 -20 -20 -20 -20 -20 -20 -20 -20 -20 -20 -20
-13 6 -20 3 -20 -20 -20 -20 -20 -20 -20 -17 -20 -20 -7 -20 -19 1 -20 -20 -15 -20 -20 -20 -20 -20 -20 -20 -20 -20 -20 -20 -20 -20 -20 -20 -20 -20 -20 -20 -20 -19 -9 -20 -20 -19 -1
-20 10 -20 12 -2 -20 -20 -20 -20 -20 -20 2 -1 -0 -14 -20 -20 -20 -4 -20 -20 -20 -20 -20 -20 -20 -20 -20 -20 -20 -20 -20 -20 -20 -20 -20 -20 -20 -20 -20 -17 -19 -20 -20 -20 -20 -20
-20 10 -15 11 3 -3 -20 -20 -20 -6 -20 -5 -20 10 15 -20 -20 -20 -20 -20 -20 -20 -20 -20 -20 -20 -20 -20 -20 -20 -20 -7 -20 -20 -20 -20 -20 -20 -20 -20 -20 -20 -20 -20 -20 -20 -20
-8 12 -15 15 6 3 -20 -20 -20 -20 -19 12 -18 3 6 9 -20 -20 -20 -19 -20 -14 -19 -20 -19 -20 -20 -20 -20 -20 -20 -18 -20 -20 -1 -14 -7 11 -19 -4 -20 -20 -20 -20 -20 -20 -20
5 11 6 12 9 4 -20 -5 -20 -20 -20 6 -13 -5 -7 8 -18 -12 -14 -6 -20 -20 -20 -14 -11 -20 -20 -20 -20 -20 -20 -20 -20 -20 -2 19 17 -10 -20 -14 -20 -20 -20 -20 -20 -20 -20
-20 12 9 12 7 5 -20 -14 -20 -6 -20 2 15 11 -5 1 -16 -20 -19 -20 -19 -7 -11 -20 -20 -19 -20 -8 -20 -20 -20 -20 -15 -20 -20 -15 -16 -4 10 -9 -20 -20 -20 -20 -20 -20 -20
-20 9 -8 12 12 -0 8 14 11 7 -20 -5 19 16 -20 -2 16 -20 -20 -20 -20 -20 -20 -20 -15 -20 -4 -13 -20 -20 -20 -20 -20 -20 -20 -20 -20 -20 -20 -20 -20 -20 -20 -20 -20 -20 -20

GFSGBSN_prec_radar_042.txt.gz
Reflectivity
4 -20 -13 -4 10 15 -4 -20 -19 4 -10 9 11 12 16 2 2 -1 2 -20 -20 7 -20 10 -3 29 -9 -1 -14 -20 -20 -20 -7 16 -20 -20 -20 -20 -20 -20 -20 -20 -20 -20 -20 -20 -20
-10 5 -20 18 4 -20 -8 -8 6 -7 -3 23 21 19 -5 -19 -19 -13 -20 -16 -19 -2 -20 -15 -5 33 1 -20 -8 -20 -20 5 -6 9 -20 -20 -8 -20 -20 -20 -20 -20 -20 -20 -20 -20 -20
17 -13 12 -13 -20 9 15 13 -15 -15 -1 -5 -5 20 -4 26 23 -18 0 -20 -13 2 -15 -1 -13 24 8 -1 -20 -20 -20 10 1 -20 -20 -20 -19 -20 -20 -20 -20 -20 -20 -20 -20 -20 -20
12 13 -20 13 13 3 -0 15 10 13 9 13 19 -13 -20 -7 -15 -10 -20 -7 -20 -20 -20 -15 8 38 13 24 -15 -13 -20 -20 -20 -20 -20 -18 14 -20 -20 -20 -20 -20 -20 -20 -20 -20 -20
17 15 10 -8 -3 17 5 -5 -11 -20 8 16 16 -17 1 22 -20 -17 -20 -20 -20 -20 -20 -13 13 32 10 -20 -3 -18 -20 -20 -20 -20 -7 -20 12 -2 -20 -20 -20 -20 -20 -20 -20 -20 -20
8 9 13 10 16 6 -20 -20 8 8 -20 17 16 -5 15 15 7 14 -12 -20 -20 -20 -20 -7 18 28 17 -20 -4 3 -20 -20 -20 12 25 -8 27 23 8 -14 -15 -20 -20 -20 -20 -20 -20
17 -3 -8 11 14 -20 -16 -20 16 -4 10 -15 24 10 11 8 19 -20 -20 -20 -20 -20 -17 12 19 19 -19 -20 -20 7 -20 -20 -20 27 4 23 13 28 18 -16 -20 -20 -20 -20 -20 -20 -20
8 10 8 -7 7 -1 16 10 3 -8 -6 -20 -13 -20 6 8 22 16 -12 -6 -20 -4 -20 5 16 28 15 -20 -9 -20 -20 -20 -20 6 -11 13 3 6 31 19 -13 -20 -20 -20 -20 -20 -20
-9 -20 -9 -4 16 17 14 0 5 15 -8 2 -18 4 -20 3 20 -20 -20 -10 -20 -20 -10 0 36 38 -2 -20 -20 -20 -0 -20 -20 -20 -20 -9 -20 -20 -20 -11 -1 -16 -20 -20 -20 -20 -20
-9 3 12 16 3 14 -10 7 -3 12 16 -17 -16 -0 -10 19 -10 17 1 9 -20 -15 -20 4 35 10 12 15 -20 -20 -20 -5 2 -1 -20 -20 -20 -19 1 -6 -18 -20 -20 -20 -20 -20 -20
-19 10 8 13 1 13 10 1 3 -20 -20 -20 -20 -20 -20 22 24 24 18 -20 4 -11 -20 -17 32 12 5 -6 -20 -7 -20 -20 -20 -4 -20 -20 -20 -20 -20 -20 -20 -20 -20 -20 -20 -20 -20
-19 17 -0 14 14 -16 12 14 8 5 10 10 -8 2 15 24 -19 10 11 -12 -7 8 -9 18 20 17 11 -4 -20 -17 -9 -20 -20 -20 -20 -20 -20 -20 -20 -20 -20 -20 -20 -20 -20 -20 -20
-20 6 6 14 2 3 10 9 -19 10 13 23 29 15 23 7 35 10 -20 21 -11 -6 35 23 38 10 -18 0 -14 7 -7 -20 -20 -8 16 -20 -20 -20 -20 -20 -20 -20 -20 -20 -20 -20 -20
-20 -15 8 14 -16 -12 -20 -20 5 5 20 19 25 5 3 -12 -20 -19 -20 -0 17 27 34 19 7 3 1 3 10 9 -20 -20 -20 -20 -20 -20 -20 -20 -20 -20 -20 -20 -20 -20 -20 -20 -20
-14 -13 8 11 -20 10 2 6 -7 15 -3 18 -20 -5 -13 -20 -20 -20 -18 10 20 26 36 8 6 12 20 6 -2 7 3 -20 -20 -20 -20 -20 -20 -20 -20 -20 -20 -20 -20 -20 -20 -20 -20
2 8 -20 7 -20 9 -20 4 -20 2 -20 -20 -20 -15 -17 6 -11 1 15 21 21 36 15 -20 13 6 -14 -8 -15 7 5 -20 -20 -20 -20 -20 -20 -20 -20 -20 -20 -20 -20 -20 -20 -20 -20
6 2 -20 -2 -20 -20 -20 4 -20 -19 -20 -18 -20 -18 -20 -20 -20 -20 -2 15 25 20 27 -9 -20 -20 -20 -20 -19 6 -20 -20 -20 -20 -20 -20 -20 -20 -19 -20 -20 -20 -20 -20 -20 -20 -20
-8 -19 -20 -20 -20 -20 -18 1 -20 -20 -20 -20 -20 -20 -7 -20 -10 9 26 33 33 25 -20 -20 -20 -20 -20 -20 -20 -20 -20 -20 -20 -20 -20 -20 -20 -20 -20 -20 -20 -20 -20 -20 -20 -20 -20
1 -20 -20 -20 -20 -1 -17 -20 -20 -20 -20 5 -20 -20 -20 -20 -15 -10 14 3 -11 4 -12 -20 -20 -20 -20 -20 -13 -18 -20 -20 -20 -20 -20 -20 -20 -20 -20 -20 -20 -20 -20 -20 -20 -20 -20
3 3 -20 -20 -20 -20 -20 -20 -20 -20 -20 -20 -20 -20 -20 -19 -7 27 35 22 -14 -13 -20 -20 -20 -20 -20 -20 -20 -20 -20 -20 -20 -20 -20 -20 -20 -20 -20 -20 -20 -20 -20 -20 -20 -12 -20
-1 11 -20 -20 -20 -20 -20 -20 -20 -20 -20 -20 -20 -20 -20 -20 -20 -13 -15 -11 2 8 -19 -20 -20 -20 1 -20 -20 -20 -20 -20 -20 -12 -20 -20 -20 -20 -20 -20 -20 -20 -20 -20 -20 -20 -20
6 7 -20 -1 -20 -20 -20 -20 -20 -20 -20 -20 -20 -20 -20 -20 -20 -20 -20 -20 -20 -20 -20 -20 -20 -20 -20 -20 -20 -20 -20 -20 -20 -20 -20 -20 -20 -20 -20 -20 -20 -20 -20 -20 -20 -20 -20
-19 10 -0 -0 -15 -20 -20 -20 -20 -15 -20 -20 -2 -20 -2 -20 -20 -20 -20 -20 -20 -20 -20 -20 -20 -20 -20 -20 -20 -20 -20 -20 -20 -20 -20 -20 -20 -20 -20 -20 -20 -20 -20 -20 -20 -20 -20
4 6 1 -20 4 -20 -20 -20 -20 -19 -17 -11 -3 -3 8 -20 -20 -20 -20 -20 -20 -20 -20 -20 -20 -20 -20 -20 -20 -20 -20 -20 -20 -20 -20 -20 -20 -20 -20 -20 -20 -20 -20 -20 -20 -20 -20
5 6 3 -19 7 -20 -20 -20 -20 -20 -10 -20 -9 2 6 -20 -20 -20 -17 -20 -20 -20 -20 -20 -20 -20 -20 -20 -20 -20 -20 -20 -20 -20 -20 -20 -20 -20 -20 -20 -20 -20 -20 -20 -20 -20 -20
-5 6 12 -20 9 1 -20 -20 -20 -20 -20 -9 6 13 10 -0 -20 -20 -20 -20 -20 -20 -20 -20 -20 -20 -20 -20 -20 -20 -20 -20 -20 -9 4 -1 3 11 -20 -20 -20 -20 -20 -20 -20 -20 -20
20 6 15 -20 -10 6 -20 -20 -20 2 -20 -10 11 12 3 -1 -20 -20 -20 -20 -20 -16 -20 -20 -20 -20 -20 -20 -20 -20 -20 -20 -20 -20 3 10 5 -4 -20 -20 -20 -20 -20 -20 -20 -20 -20
14 12 14 -20 8 4 6 -11 6 13 8 -15 12 19 10 -6 -20 -20 -20 -20 -20 -20 -20 -20 -20 -20 -20 -20 -20 -20 -20 -20 -20 -20 -16 -17 -11 -18 -20 -20 -20 -20 -20 -18 -20 -20 -20
22 6 13 -12 2 13 7 9 9 12 -10 -3 27 13 16 11 20 -20 -20 -20 -20 -20 -20 -20 -17 -20 -20 -20 -20 -20 -18 -20 -20 -20 -20 -20 -20 -20 -20 -20 -20 -20 -20 -20 -20 -20 -20

GFSGBSN_prec_radar_045.txt.gz
Reflectivity
10 10 9 9 -19 -6 10 15 15 15 -2 15 2 2 -17 -6 23 22 14 -4 -16 -20 3 -20 9 8 39 8 -20 -12 -7 -20 -9 12 13 -20 -20 -20 -20 -20 -20 -20 -20 -20 -20 -20 -20
-10 -14 17 -18 9 15 13 3 4 13 4 1 14 11 4 -3 12 9 11 8 -13 -20 5 -20 2 -8 17 -8 -10 -19 4 -20 -16 3 -20 -12 -20 -20 -20 -20 -20 -20 -20 -20 -20 -20 -20
6 15 10 14 7 13 10 -3 2 -20 -4 7 9 -1 3 -3 21 21 2 -5 21 -20 8 -20 -11 19 29 20 -11 -12 -9 -17 -20 2 -18 -19 -20 -20 -20 -20 -20 -20 -20 -20 -20 -20 -20
11 -4 15 8 12 10 18 -14 1 -12 11 2 19 18 6 1 -11 1 -13 -1 -10 -20 -13 -20 5 32 26 14 24 -19 -19 -20 25 29 24 -14 -15 -20 -20 -20 -20 -20 -20 -20 -20 -20 -20
12 13 10 -3 10 7 -5 -3 4 -20 18 17 -1 9 -3 -6 -14 -9 15 -9 -14 3 -16 -15 6 30 22 -18 -2 -12 -20 -11 8 26 25 14 19 -1 -20 -8 -20 -20 -20 -20 -20 -20 -20
8 13 13 8 -6 14 7 18 -7 -9 -20 -6 6 8 6 -17 1 -7 3 -15 -20 -20 -20 -2 -13 30 -8 -18 23 -17 -20 -19 -20 -18 21 10 25 14 -13 4 -15 -20 -20 -20 -20 -20 -20
10 -12 5 13 15 18 16 -5 -20 5 -17 -11 12 7 -3 -20 -18 4 -9 -20 -2 -20 -20 -20 4 12 -14 11 -7 -16 -8 -20 -0 22 15 12 6 12 -20 -20 -20 -20 -20 -20 -20 -20 -20
11 2 13 14 -8 10 7 3 -13 -9 8 22 16 -20 3 -20 13 6 -13 -17 -16 -17 -19 -20 14 3 -1 -6 24 -20 -20 -20 -6 2 13 -10 -8 25 -3 13 -20 -12 -20 -20 -20 -20 -20
4 -8 14 7 -0 10 -20 15 8 17 0 -20 -20 -20 -14 -15 8 -20 -20 -20 -20 -20 -6 -19 18 14 25 -7 19 -20 -20 -20 3 18 12 -11 -11 17 24 22 29 1 -20 -20 -20 -20 -20
-12 7 18 8 10 8 -20 3 11 -20 5 3 7 8 -20 -5 -20 -0 18 20 -20 -19 -19 -19 13 33 15 -12 3 -20 -20 14 -16 26 -20 -20 -20 29 -1 -2 -20 -20 -20 -20 -20 -20 -20
-20 -11 3 9 13 -2 1 -13 -20 17 8 -13 15 28 23 26 -12 22 18 -20 -20 -19 -20 8 24 25 12 -20 -20 -9 17 -16 -20 -20 -18 6 -20 -20 -20 -16 -20 -20 -20 -20 -20 -20 -20
-20 -4 5 11 13 -20 4 1 8 9 22 -10 18 -2 19 22 33 14 22 -15 -20 -0 2 10 19 41 4 -8 -20 -15 -1 -20 -20 -20 -20 -20 -20 -20 -20 -20 -20 -20 -20 -20 -20 -20 -20
-20 10 6 9 -4 -20 10 -1 10 18 19 11 12 -10 11 22 9 5 13 9 -20 -12 9 35 36 27 20 13 6 13 -5 -17 -13 3 -13 -20 -20 -20 -20 -20 -20 -20 -20 -20 -20 -20 -20
-20 2 2 -6 8 -17 -18 13 18 10 15 -15 -17 -20 -20 -20 -20 -20 -20 -15 -9 -12 22 28 26 1 14 10 18 4 -20 -20 -20 -18 -2 -11 -20 -20 -20 -20 -20 -20 -20 -20 -20 -20 -20
-3 3 -12 -17 -17 -20 -3 8 12 9 -12 23 -20 -20 -20 -15 -10 -1 -18 -6 -10 -19 27 24 11 0 26 -7 25 9 -0 -20 -20 -20 -20 -20 -20 -20 -20 -20 -20 -20 -20 -20 -20 -20 -20
3 7 -17 -8 -20 6 18 1 -20 -3 -13 1 -20 -20 -20 3 9 13 10 22 26 34 27 8 7 -5 -12 -18 -5 -17 -19 -20 -20 -20 -20 -20 -20 -20 -20 -20 -20 -20 -20 -20 -20 -20 -20
-14 13 -20 -4 -20 -20 -16 -19 -20 -20 -12 -20 -20 -20 -20 -20 -20 -14 2 22 30 28 10 -16 -20 -20 -20 -20 -20 -18 -20 -20 -20 -20 -20 -20 -20 -5 -20 -20 -20 -20 -20 -20 -20 -20 -20
-20 10 -15 -9 -4 -20 -20 -20 -20 -20 -20 -20 -20 -20 -20 -20 -20 -20 4 23 0 -20 -20 -20 -20 -20 -20 -20 -20 -20 -20 -20 -20 -20 -20 -20 -20 -20 -20 -20 -20 -20 -20 -20 -20 -20 -20
-20 -10 -4 -15 2 -20 -20 -20 -20 -20 -20 -17 -20 -20 -20 -20 -20 -16 -20 -19 -20 -20 -20 -20 -20 -20 -20 -20 -20 -20 -20 -20 -20 -20 -20 -20 -20 -20 -20 -20 -20 -20 -20 -20 -20 -20 -20
-20 -17 5 -19 8 -20 -20 -20 -20 -20 -20 -20 -20 -20 -20 -20 -19 6 -19 -20 -19 -20 -20 -20 -20 -20 -20 -20 -20 -20 -20 -20 -20 -20 -20 -20 -20 -20 -20 -20 -20 -20 -20 -20 -20 -20 -20
-20 -10 7 -5 2 -20 -20 -20 -20 -20 -20 -20 -20 -20 -16 -20 -20 -20 -17 -20 -9 -20 -20 -20 -20 -20 -20 -20 -20 -20 -20 -20 -20 -14 -20 -20 -20 -20 -20 -20 -20 -20 -20 -20 -20 -20 -20
-20 -20 5 11 4 -10 -20 -20 -20 -20 -20 -20 -20 -20 -19 -20 -20 -20 -20 -20 -20 -20 -20 -20 -20 -20 -20 -20 -20 -20 -20 -20 -20 -20 -20 -20 -20 -20 -20 -20 -20 -20 -20 -20 -20 -20 -20
-20 -20 -18 14 11 -20 -20 -20 -20 -20 -20 -20 -20 -20 -12 -20 -20 -20 -20 -20 -20 -20 -19 -20 -20 -20 -20 -20 -20 -20 -20 -20 -20 -20 -20 -20 -20 -20 -20 -20 -20 -20 -20 -20 -20 -20 -20
-20 -20 -16 -11 13 3 -20 -20 -20 -20 -14 -20 -20 3 -17 -20 -20 -20 -20 -20 -20 -20 -20 -20 -20 -20 -20 -20 -20 -20 -20 -20 -20 -20 -20 -20 -20 -20 -20 -20 -20 -20 -20 -20 -20 -20 -20
-20 -20 -20 9 19 -1 0 -20 -20 -20 -20 -20 -20 -7 6 -19 -20 -20 -20 -20 -20 -20 -20 -20 -20 -20 -20 -20 -20 -20 -20 -20 -20 -20 -20 -20 -20 -20 -20 -20 -20 -20 -20 -20 -20 -5 -20
-20 -14 -20 5 20 -19 6 -20 -20 -20 -20 -20 -7 10 2 -11 -20 -20 -20 -20 -20 -20 -20 -20 -20 -20 -20 -20 -20 -20 -19 -20 -20 -13 -20 -7 -19 -11 -20 -20 -20 -20 -20 -20 -20 -20 -20
-11 -4 -20 -4 -7 -2 6 -0 -19 -1 10 -20 -1 15 7 -16 -20 -20 -20 -20 -20 -20 -19 -1 -20 -20 -20 -20 -20 -20 -20 -20 -20 -10 6 7 6 -6 -10 -20 -20 -20 -20 -20 -20 -19 -20
-20 -17 -20 -20 17 -16 5 11 4 14 13 -7 -3 25 23 7 -16 -20 -20 -20 -20 -20 -20 -20 -20 -20 -20 -20 -20 -20 -20 -20 -20 -20 -20 -12 -12 -14 -12 -19 -20 -20 -20 -20 -20 -20 -20
-19 -19 -20 -8 5 -18 12 9 12 15 6 8 -13 28 17 -2 -20 -20 -20 -20 -20 -20 -20 -20 -19 -20 -20 -20 -20 -20 -20 -20 -20 -20 -20 -20 -20 -20 -20 -20 -20 -20 -20 -20 -20 -20 -20

GFSGBSN_prec_radar_048.txt.gz
Reflectivity
10 -14 15 -7 12 12 12 13 14 -9 2 -19 -20 9 9 4 10 17 18 -20 27 -7 -3 -20 -20 3 10 34 21 21 -1 -2 -20 -16 -1 15 -16 -20 -20 -20 -20 -20 -20 -20 -20 -20 -20
2 -11 -14 11 -8 12 10 2 13 -11 -20 16 -2 -3 13 4 2 17 -7 24 -10 -10 -17 7 4 -5 17 13 -8 16 -10 6 -17 10 -7 13 -6 -20 -20 -20 -20 -20 -20 -20 -20 -20 -20
7 10 10 13 -18 -19 5 -12 -18 7 -20 -20 18 -11 -2 -18 -6 -1 23 24 14 4 1 4 -7 14 30 18 2 29 -20 25 -18 -19 6 -20 -20 -20 -20 -20 -20 -20 -20 -20 -20 -20 -20
13 -16 8 -2 -20 -11 16 2 19 7 13 -19 -20 4 15 -15 3 -13 16 -15 -20 -7 1 2 -12 23 24 10 25 -18 -20 25 27 26 -12 -20 -20 -20 -20 -20 -20 -20 -20 -20 -20 -20 -20
-8 5 -13 -20 13 6 14 -0 2 -2 0 2 -20 -9 11 -9 -8 12 -6 -20 -20 -8 -17 -19 2 2 -0 -16 -2 -12 -20 11 29 16 28 26 -13 -5 -20 -20 -20 -20 -20 -20 -20 -20 -20
-20 6 -20 3 14 8 10 -17 19 18 -5 20 5 -6 8 6 8 -6 13 -20 -20 -20 -20 -20 -9 18 18 -4 30 3 -20 17 8 23 26 22 20 12 -20 -6 -20 -8 -20 -20 -20 -20 -20
5 -6 11 15 12 16 -8 -20 -0 19 17 -20 0 4 -20 -20 9 17 -18 -20 -20 -20 -20 -20 2 12 -0 -11 -17 13 -20 19 10 27 33 11 14 11 -20 -20 -20 -20 -20 -20 -20 -20 -20
-19 -19 7 13 4 12 -10 -15 18 -9 -20 15 17 -16 -14 -20 9 25 -14 -20 -20 -20 -16 -20 -20 16 12 3 -11 15 -6 -15 -2 22 31 40 18 -12 -20 -18 -20 -20 -20 -20 -20 -20 -20
-19 -20 -6 11 17 11 -20 -5 -20 -15 20 20 24 24 -6 -20 -20 -20 -20 -20 -10 -20 -5 1 -15 18 27 10 30 -2 -19 -20 1 26 23 33 30 26 7 10 9 -13 -20 -20 -20 -20 -20
-19 -19 2 8 15 6 -3 12 -18 17 24 22 -19 14 24 14 -20 4 -12 11 -13 -19 -20 -18 -20 11 13 29 27 -4 -13 22 -4 -9 -0 1 -18 2 34 34 12 16 -4 -20 -20 -20 -20
-20 -20 7 10 11 -18 13 -18 15 3 20 -18 -19 2 10 17 6 18 1 1 -13 -20 -20 -20 -7 13 20 5 21 -17 -19 21 3 14 -18 13 7 -20 34 21 9 -8 -20 -20 -20 -20 -20
-19 -20 7 -20 8 -20 -17 8 8 -2 15 -2 -20 2 -2 -20 -17 19 -20 -20 -20 -20 -20 -20 19 39 29 -1 32 -3 18 -9 -12 2 24 -12 -16 -16 -3 5 -11 -20 -20 -20 -20 -20 -20
-20 -17 3 -13 -20 -5 15 8 2 6 4 14 -20 -20 -20 -19 -20 -18 -20 -20 -20 -20 -11 23 27 29 12 11 12 14 -7 6 -17 -14 13 1 -19 -15 -20 -19 -14 -20 -20 -14 -20 -20 -20
-20 -17 -9 -14 -20 -20 2 3 11 12 -15 -20 -20 -15 -5 -8 -7 -17 -19 -20 -20 -18 20 5 26 13 21 11 14 0 27 -20 -12 -20 -20 -20 -11 -20 -20 -20 -20 -20 -20 -20 -20 -20 -20
-20 -17 -19 -20 -20 -20 -20 -20 -9 13 -5 -20 -20 -20 -14 -20 -19 -20 -20 -20 -2 16 28 35 29 9 5 15 17 28 -20 -20 5 -20 -20 -20 -20 -20 -20 -20 -20 -20 -20 -20 -20 -20 -20
-20 -17 -20 -19 -20 -20 -20 -20 -20 -5 11 -20 -20 -20 -20 -20 -11 -20 -20 -12 -0 31 34 24 19 10 -20 -2 -15 10 -20 -20 -20 -20 -20 -20 -20 -20 -20 -20 -20 -20 -20 -20 -20 -20 -20
-20 -11 -8 -13 -20 -20 -20 -20 -20 -13 12 -20 -20 -20 -20 -20 -20 -20 -20 8 16 -18 -20 -20 -20 -20 -20 -7 -20 -20 -20 -20 -20 -20 -20 -20 -20 -9 -20 -20 -20 -20 -20 -20 -20 -20 -20
-20 -7 3 -5 -10 -20 -12 -20 -20 -20 11 -20 -20 -20 -20 -20 -20 -20 -4 1 -20 -20 -20 -20 -20 -20 -20 -20 -20 -20 -20 -20 -20 -20 -20 -20 -20 -20 -4 -20 -20 -20 -20 -20 -20 -20 -20
-20 -20 9 -4 7 -19 -11 -20 -20 -20 -12 12 -20 -20 -20 -20 -20 -18 -20 -20 -20 -20 -20 -20 -20 -20 -20 -20 -20 -20 -20 -20 -20 -20 -20 -20 -20 -20 -20 -20 -20 -20 -20 -20 -20 -20 -20
-20 -20 -10 7 -13 -3 -3 -19 -20 -20 -20 -7 -20 -20 -20 -20 -20 -18 -20 -11 -20 -20 -20 -20 -20 -20 -20 -20 -20 -20 -20 -20 -20 -20 -20 -20 -20 -20 -20 -20 -20 -20 -20 -20 -20 -20 -20
-20 -20 -20 9 -20 13 4 -17 -20 -20 -20 -20 -20 -20 -16 -20 -20 -20 -20 -20 -20 -20 -20 -20 -20 -20 -20 -20 -20 -20 -20 -20 -20 -20 -20 -20 -20 -20 -20 -20 -20 -20 -20 -20 -20 -20 -20
-20 -20 -20 15 -6 -18 12 -7 -20 -20 -20 -20 -20 -9 -8 -20 -2 -20 -20 -20 -20 -20 -20 -20 -20 -20 -20 -20 -20 -20 -20 -20 -20 -20 -20 -20 -20 -20 -20 -20 -20 -20 -20 -20 -20 -20 -20
-20 -3 -1 13 2 -16 1 12 -20 -20 -20 -20 -17 -10 -8 -20 -20 -20 -20 -20 -20 -20 -18 -20 -20 -20 -20 -20 -20 -20 -20 -20 -20 -20 -20 -20 -20 -20 -20 -20 -20 -20 -20 -20 -20 -20 -20
-5 -10 -2 8 -4 -20 -8 21 -9 -20 -20 -20 -14 7 -17 -20 -20 -20 -20 -20 -20 -20 -20 -20 -20 -20 -20 -20 -20 -20 -20 -20 -20 -20 -20 -20 -20 -20 -20 -20 -20 -20 -20 -20 -20 -20 -20
14 -7 -12 -13 15 -20 -9 12 10 -13 -20 -20 -20 -13 -2 -19 -20 -20 -20 -20 -20 -20 -20 -20 -20 -20 -20 -20 -20 -20 -20 -20 -20 -20 -20 -20 -20 -20 -20 -20 -20 -20 -20 -20 -20 -12 -20
8 -19 -14 -20 12 -20 -20 5 -8 -2 6 -20 -17 1 14 7 -20 -20 -20 -20 -20 -20 -20 -20 -20 -20 -20 -20 -20 -20 -20 -20 -19 -19 -20 -20 -20 -20 -20 -20 -20 -20 -20 -20 -20 -20 -20
4 -20 -20 -15 5 0 7 -3 -20 -7 7 -12 -20 -8 18 4 -17 -18 -20 -20 -20 -20 -20 -20 -20 -20 -20 -20 -20 -20 -20 -20 -20 -4 -7 -12 -6 -13 -16 -16 -20 -20 -18 -20 -20 -18 -20
4 -20 10 2 -20 -2 -1 -11 -19 -16 4 -17 -20 10 24 29 9 2 -20 -20 -20 -20 -20 -20 -20 -20 -20 -20 -20 -20 -20 -18 -20 -20 -20 -20 -20 -10 -9 -20 -20 -20 -20 -17 -19 -20 -20
-1 -17 2 5 -20 16 15 -7 -20 -10 9 -20 -20 -10 26 27 -14 2 -20 -20 -20 -20 -20 -20 -18 -20 -20 -20 -20 -20 -20 -19 -20 -10 -20 -20 -20 -20 -20 -20 -20 -20 -19 -20 -20 -20 -20

GFSGBSN_prec_radar_051.txt.gz
Reflectivity
-20 8 11 14 6 -7 9 5 2 -11 -19 10 -20 -20 -11 -1 2 7 -1 13 -5 -20 -17 21 -15 -4 -1 21 5 6 -9 8 -12 -20 -20 11 -15 6 -13 -20 -20 -20 -20 -20 -20 -20 -20
-4 8 -20 15 2 9 10 8 17 4 -13 17 -20 -16 -1 -12 -20 -20 -20 14 8 -6 -9 4 16 23 15 10 -2 15 -20 -18 1 -18 6 -7 -20 -20 -20 -20 -20 -20 -20 -20 -20 -20 -20
10 -18 9 -1 -6 12 8 -3 -6 -3 -9 17 -20 5 22 -18 -9 -6 20 18 -20 -12 -20 -3 -8 19 14 -19 -14 -20 -20 -20 10 2 10 3 -20 -20 -20 -20 -20 -20 -20 -20 -20 -20 -20
16 -1 14 1 4 8 15 16 2 -16 17 15 19 11 -8 -14 5 2 -16 -9 -20 28 -17 -17 -20 5 5 3 -11 9 14 -13 1 2 11 11 -19 -20 -20 -20 -20 -20 -20 -20 -20 -20 -20
-4 -10 5 16 18 12 15 14 -20 -5 13 16 11 9 -15 23 -20 12 -19 -20 -20 -7 -7 1 -0 -20 13 8 9 -12 22 -15 3 24 26 29 22 21 -9 -20 -20 -20 -20 -20 -20 -20 -20
13 -20 18 5 4 6 14 -20 -1 10 9 8 16 5 9 -2 -20 -7 3 -20 -20 -20 11 7 19 12 0 12 18 3 11 8 23 22 30 29 20 3 -2 -13 -20 -20 -20 -20 -20 -20 -20
12 -15 12 -19 16 16 -20 3 19 -7 19 18 23 20 16 15 -20 11 -20 -20 -20 -20 -20 -20 6 -20 16 20 2 11 -18 10 24 28 21 23 5 -3 -19 -20 -20 -20 -20 -20 -20 -20 -20
-20 8 0 15 -13 9 -20 11 -19 20 15 21 10 22 20 9 -0 8 -20 -20 -20 -20 -20 -20 -20 -8 10 14 21 5 -15 26 25 32 39 18 6 -10 -20 -5 -20 -20 -20 -20 -20 -20 -20
6 -18 15 12 -20 -4 -20 9 15 8 16 17 5 0 22 23 5 -20 -20 -20 -1 -19 -9 -13 12 8 23 30 10 13 12 24 18 33 39 25 13 12 -20 11 -3 -20 -20 -20 -20 -20 -20
-18 -17 13 -13 -2 -20 -18 7 12 10 12 12 5 -2 21 -12 -20 -11 -20 11 17 -20 -20 4 14 23 30 15 19 4 18 18 27 39 34 39 33 16 21 2 -17 -20 -20 -20 -20 -20 -20
-4 -8 5 -20 -20 -20 -4 0 16 18 1 13 -3 -10 -18 -16 9 17 -4 3 -20 -20 -20 -20 -13 19 18 7 -12 19 -3 12 17 28 27 11 34 36 33 27 -15 -15 -20 -20 -20 -20 -20
-0 4 6 -4 -20 -20 -20 -20 11 18 8 11 -19 -20 -20 -20 -20 -20 -20 -20 -20 -20 -20 -17 10 28 31 7 9 -9 -2 -8 28 17 -5 1 9 5 12 29 31 22 -20 -20 -20 -20 -20
-1 12 11 12 -1 -20 -20 -20 -18 17 15 -14 -20 -20 -20 -20 -7 -20 -20 -20 -20 -17 -13 10 -3 16 15 22 9 -1 29 -5 -2 18 25 21 7 -10 9 20 16 -20 -20 -20 -20 -20 -20
-17 8 13 12 6 -20 -20 -20 -20 6 17 -18 -20 -20 -20 -20 -20 -20 -20 -20 -20 -14 18 31 29 19 9 25 16 -0 34 -19 -20 7 -17 13 12 -17 -17 -17 -19 -20 -20 -20 -20 -20 -20
-20 9 15 -4 17 -9 -20 -20 -20 -20 16 4 -20 -20 -20 -20 -20 -20 -20 -20 -20 -12 3 36 25 -3 14 3 4 4 -6 -20 -20 -20 -20 -20 -20 -20 -20 -20 -20 -20 -20 -20 -20 -20 -20
-20 -19 6 10 16 -0 -20 -20 -20 -20 11 6 -20 -20 -20 -20 -20 -20 -20 1 -10 16 -8 19 -15 -12 -20 -4 11 15 6 -20 -20 -20 -20 -20 -20 -20 -20 -20 -20 -20 -20 -20 -20 -20 -20
-20 -20 -12 11 -20 13 -20 -20 -20 -20 6 -19 -20 -20 -20 -20 -20 -20 -20 -16 -7 -20 -20 -20 -20 -20 -19 -20 -20 -20 -20 -20 -20 -20 -20 -20 -20 -19 -20 -20 -20 -20 -20 -20 -20 -20 -20
-20 -20 -20 8 0 -3 -20 -20 -20 -20 4 -6 -20 -20 -20 -20 -20 -20 -20 -20 -7 -20 -20 -20 -20 -20 -20 -20 -20 -20 -20 -20 -20 -20 -20 -20 -20 -20 -12 -20 -20 -20 -20 -20 -20 -20 -20
-20 -20 -10 -1 -20 -20 -20 -20 -20 -20 -11 -2 -20 -20 -20 -20 -20 -20 -20 -20 -20 -20 -20 -20 -20 -20 -20 -20 -20 -20 -20 -20 -20 -20 -20 -20 -20 -20 -16 -18 -20 -20 -20 -20 -20 -20 -20
-20 -5 -1 -10 6 -20 -16 -20 -20 -20 -20 -12 -20 -20 -20 -20 -20 -20 -20 -20 -20 -20 -20 -20 -20 -20 -20 -20 -20 -20 -20 -20 -20 -20 -20 -20 -20 -20 -20 -20 -20 -20 -20 -20 -20 -20 -20
-20 -20 -3 -18 8 7 -1 -20 -20 -20 -20 -20 -20 -20 -17 -20 -20 -20 -20 -20 -20 -20 -20 -20 -20 -20 -20 -20 -20 -20 -20 -20 -20 -20 -20 -20 -20 -20 -20 -20 -20 -20 -20 -20 -20 -20 -20
-20 -5 -7 -20 11 -20 -4 -20 -20 -20 -20 -20 -20 -7 -16 -20 -20 -20 -20 -20 -20 -20 -20 -20 -20 -20 -20 -20 -20 -20 -20 -20 -20 -20 -20 -20 -20 -20 -20 -20 -20 -20 -20 -20 -20 -20 -20
15 6 -18 -20 8 -14 -20 -20 -20 -20 -20 -20 -18 1 7 -20 -20 -20 -20 -20 -20 -20 -20 -20 -20 -20 -20 -20 -20 -20 -20 -20 -20 -20 -20 -20 -20 -20 -20 -20 -20 -20 -20 -20 -20 -20 -20
11 7 -15 -12 -14 8 -20 -16 -20 -20 -20 -20 -12 -1 1 -20 -20 -20 -20 -20 -20 -20 3 -20 -20 -20 -20 -20 -20 -20 -20 -20 -20 -20 -20 -20 -20 -20 -20 -20 -20 -20 -20 -20 -20 -20 -20
10 1 -9 -5 -19 9 -6 -16 -20 -20 -20 -20 -20 5 17 -19 -20 -20 -20 -20 -20 -20 -20 -20 -20 -20 -20 -20 -20 -20 -20 -20 -20 -20 -20 -20 -20 -20 -20 -20 -20 -20 -20 -20 -20 -20 -20
-3 10 -20 -20 14 -19 13 -5 2 -20 -20 -17 -7 6 7 7 -20 -20 -20 -20 -20 -20 -20 -20 -20 -20 -20 -20 -20 -20 -20 -20 -20 -20 -20 -20 -20 -20 -20 -20 -20 -20 -20 -20 -20 -15 -20
-20 -11 -20 -20 17 -20 2 -4 -20 -20 -20 -18 -13 7 0 18 -14 -1 1 -20 -20 -20 -20 -20 -20 -20 -20 -20 -20 -20 -20 -20 -20 -2 -20 -4 -4 -20 -20 -20 -20 -20 -20 -20 -9 -14 -19
-15 -20 -12 -13 17 -20 1 -8 -17 -20 -20 -5 -20 -20 8 25 -11 7 27 -20 -20 -20 -20 -20 -20 -20 -20 -20 -20 -20 -20 -20 -20 -20 -20 -20 -14 -11 -20 -11 -20 -20 -8 12 2 -20 -20
-20 11 0 -16 -0 1 21 5 -20 -1 4 14 -20 -20 -11 22 -16 15 24 7 -20 -20 -20 -20 -20 -20 -20 -20 -20 -20 -20 -20 -20 -4 -20 -20 -20 -20 -20 -20 -20 -20 -19 -20 -20 -20 -20

GFSGBSN_prec_radar_054.txt.gz
Reflectivity
-19 -2 -2 13 -20 -20 -3 17 -13 6 -2 11 19 19 3 2 -6 11 -14 -11 12 -3 -3 -20 0 -5 -16 -2 -12 8 -19 -20 -9 9 4 2 8 10 8 -15 -20 -20 -20 -20 -20 -16 -3
8 5 9 10 -5 -2 -12 20 -4 9 -13 12 21 17 1 8 -18 -6 -18 -0 -19 -1 9 -20 -18 -4 9 0 -20 1 22 -3 -20 9 -1 6 -8 7 7 2 -20 -20 -20 -20 -20 -20 -20
-18 10 -6 5 12 6 -2 3 2 -20 -20 14 18 12 19 -20 15 -15 19 2 -20 -20 -19 23 -10 -18 -4 -20 -20 -20 28 -20 5 -12 -2 5 -20 11 -19 4 -20 -20 -20 -20 -20 -20 -20
-6 -20 -1 3 11 -11 15 -20 -20 -11 9 18 18 19 16 14 -14 16 15 -7 -20 4 -12 -20 -7 8 -16 -20 -18 -20 14 -20 -15 -20 -17 2 -16 4 -14 -20 -20 -20 -16 -20 -20 -20 -20
9 2 5 -1 10 -1 -19 -11 16 -2 12 15 20 21 23 20 -16 -20 2 -20 -20 -20 -14 29 5 -11 -20 -20 13 -7 19 -17 8 -17 8 12 24 -9 -7 -20 -13 -20 -20 -20 -20 -20 -20
-18 13 9 12 12 -7 -12 13 5 7 11 13 11 18 4 23 -20 -20 -12 -20 -20 -20 -20 18 24 1 -20 13 7 -1 19 -11 8 6 25 27 28 21 18 -7 -20 -20 -20 -20 -20 -20 -20
7 2 13 11 -20 -20 -20 13 15 7 19 15 4 12 10 18 21 -14 -20 -20 -20 -20 -20 -20 -20 -20 -5 -20 21 -13 -20 -17 25 8 4 18 41 17 -19 -20 -20 -20 -20 -20 -20 -20 -20
-6 -11 9 2 2 -20 8 14 11 11 14 20 5 9 -2 21 1 -20 -20 -20 -20 -20 -20 -20 -20 -20 12 35 27 36 27 31 10 12 14 16 27 -2 8 -10 -20 -20 -19 -20 -20 -20 -20
-1 -20 -4 -18 -20 -20 -17 -6 6 9 13 13 5 -19 9 -2 -20 -20 -20 -9 9 -11 -11 -20 -0 -20 -9 18 22 27 11 35 14 8 19 24 8 20 -1 -20 -20 -20 -6 -18 -20 -20 -20
-2 -17 1 -6 -14 -17 -20 3 12 3 10 10 -7 6 4 -20 -20 -16 -20 1 -19 -20 2 2 19 32 22 6 21 18 31 38 34 17 13 34 -8 9 11 -4 -20 -19 -20 -20 -20 -20 -20
13 2 1 5 5 -20 -20 -19 -19 7 11 1 -20 -20 -12 -20 -8 -19 -7 9 -20 -20 22 32 34 30 39 11 -19 16 4 41 16 20 34 33 25 8 6 -1 -1 7 -20 -20 -20 -20 -20
-20 -8 4 -1 -1 -20 -20 -20 -20 -19 12 13 -4 -20 -20 -20 -6 -3 -20 -20 -19 -20 14 13 19 13 -5 -5 -3 7 20 24 28 30 30 31 40 29 16 -13 3 -20 -20 -20 -20 -20 -20
-11 3 -2 1 -6 -20 -20 -20 -20 -20 -8 14 -9 -20 -20 -20 -20 -20 -20 -20 -20 -11 -20 -8 15 14 -11 11 10 10 -2 4 21 19 15 34 26 27 34 30 28 -20 -20 -3 -20 -20 -20
-9 -3 -3 -11 4 -19 -20 -20 -20 -20 -3 10 -20 -20 -20 -20 -20 -20 -20 -20 -20 -8 -14 3 24 10 5 16 19 1 10 -11 -19 22 18 17 5 29 33 12 17 15 -20 -20 -20 -20 -20
-20 -7 -16 6 -17 -8 -20 -20 -20 -20 -10 9 -20 -20 -20 -20 -20 -20 -20 -20 -7 -20 -13 23 20 -8 32 -20 7 17 21 -20 -20 9 22 26 3 7 -14 -15 -20 -20 -20 -20 -20 -20 -20
-20 -8 -17 -13 1 -11 -20 -20 -20 -20 -7 -2 -20 -20 -20 -20 -20 -20 -12 -20 -19 -20 -9 -20 -20 -20 -8 -13 -20 14 -20 -20 -20 -13 -20 -4 -13 -20 -20 -20 -20 -20 -20 -20 -20 -20 -20
-16 -9 -6 -20 -1 -13 -20 -20 -20 -20 -10 2 -20 -20 -20 -20 -20 -20 -11 2 -20 -20 -20 -20 -20 -20 -20 -20 -20 -20 -20 -20 -20 -20 -20 -20 -20 -9 -20 -20 -20 -20 -20 -20 -20 -20 -20
-20 -6 -19 -20 6 -20 -9 -20 -20 -20 -10 -20 -20 -20 -20 -20 -20 -20 -20 -20 -5 -20 -20 -20 -20 -20 -20 -20 -20 -20 -20 -20 -20 -20 -20 -20 -20 -3 3 -20 -20 -20 -20 -20 -20 -20 -20
-20 -20 -20 -20 8 -7 -20 -20 -20 -20 -20 11 -20 -20 -20 -20 -20 -20 -20 -20 -20 -20 -20 -20 -20 -20 -20 -20 -20 -20 -20 -20 -20 -20 -20 -20 -20 -3 3 -15 -20 -20 -20 -20 -20 -20 -20
-20 -12 -20 -20 5 3 -20 -20 -20 -20 -20 -20 -20 -11 -20 -20 -20 -20 -20 -20 -20 -20 -20 -20 -20 -20 -20 -20 -20 -20 -20 -20 -20 -20 -20 -20 -20 -20 -20 -20 -20 -20 -20 -20 -20 -20 -20
-18 9 -20 -20 -20 -16 -20 -20 -20 -20 -20 -20 -20 -20 -17 -20 -20 -20 -20 -20 -20 -20 -20 -20 -20 -20 -20 -20 -20 -20 -20 -20 -20 -20 -20 -20 -20 -20 -20 -20 -20 -20 -20 -20 -20 -20 -20
-20 13 5 9 -20 8 -10 -20 -20 -20 -20 -20 -20 -11 -20 -20 -20 -20 -18 -20 -20 -20 -20 -20 -20 -20 -20 -20 -20 -20 -20 -20 -20 -20 -20 -20 -20 -20 -20 -20 -20 -20 -20 -20 -20 -20 -20
8 12 13 3 -20 5 -12 -20 -20 -20 -20 -20 -20 -20 3 -14 -20 -20 -20 -20 -20 -20 -20 -20 -20 -20 -20 -20 -20 -20 -20 -20 -20 -20 -20 -20 -20 -20 -20 -20 -20 -20 -20 -20 -20 -20 -20
4 9 -16 -20 -20 -20 8 -20 -20 -20 -20 -20 -20 -5 -2 -20 -20 -20 -20 -20 -20 -20 -9 -20 -20 -20 -20 -20 -20 -20 -20 -20 -20 -20 -20 -20 -20 -20 -20 -20 -20 -20 -20 -20 -20 -20 -20
-20 -15 -9 -6 -20 10 -18 11 -20 -20 -20 -20 -20 0 1 -15 -20 -20 -20 -20 -20 -20 -20 -20 -20 -20 -20 -20 -20 -5 -18 -18 -20 -20 -20 -20 -20 -20 -20 -20 -20 -20 -20 -20 -20 -20 -20
-20 -18 11 2 -20 7 -20 -19 7 -18 -18 -20 -20 -20 9 1 -20 -20 -20 -20 -20 -20 -20 -20 -20 -20 -20 -20 -20 -20 -19 -7 -2 -19 -20 -20 -20 -6 -20 -20 -20 -20 -20 -20 -20 4 -20
-19 -8 -10 -17 -20 10 -20 -20 9 3 -6 4 -20 -20 -20 12 2 -4 18 7 -20 -20 -20 -20 -20 -20 -20 -20 -8 -20 -20 -20 -20 -3 -1 6 -10 5 1 -18 -20 -20 -20 -20 3 -14 -20
1 -7 -20 -15 -20 -20 -13 12 6 -18 -20 10 -4 -20 1 9 19 10 -1 30 6 -20 -20 -20 -20 -20 -20 7 -16 -20 -20 -1 -8 -3 -20 -8 1 7 4 -11 -20 -20 -20 -11 3 -7 -15
-20 -5 -8 -20 -20 1 -20 -17 17 -20 -20 12 3 -20 9 7 -9 -0 -3 20 -0 -20 -20 -20 -20 -20 -20 -20 -20 -20 -20 -20 -7 4 -20 -20 -20 -20 -20 -20 -20 -20 -20 -11 -10 -11 -20

GFSGBSN_prec_radar_057.txt.gz
Reflectivity
-10 -9 -14 -20 -20 -6 7 7 9 -10 -20 -20 10 1 -1 -0 2 16 9 -15 -9 -4 -13 -16 -20 -2 -7 12 -20 -20 -20 -20 -3 27 -20 7 -20 -7 4 -12 -17 -20 -20 -20 -20 11 15
-20 -2 -20 -16 1 -2 14 14 -20 -20 2 12 14 11 18 -18 3 5 4 13 -11 -17 -11 24 24 6 -20 -6 -20 -20 7 -15 13 22 -20 -20 -20 -20 -20 -7 -18 -20 2 -20 -20 3 13
-0 3 -20 -20 -20 8 8 2 8 7 5 1 18 19 19 22 18 2 18 19 -3 -11 -20 -20 23 -0 10 -20 -20 10 12 -20 -16 17 -20 -20 -20 -13 -20 -20 -18 -20 5 -20 -20 -19 -10
-5 -20 -20 -20 8 -20 -16 11 -20 -16 21 10 11 21 7 20 24 2 -20 -20 -20 -14 -8 -11 17 22 5 -20 -20 -20 2 17 -2 21 -20 -20 -12 -9 -19 -20 -20 1 -7 -18 -20 -16 -20
-20 -13 -20 -6 -20 -15 -6 10 7 13 10 2 21 -3 21 2 26 -6 -20 -20 -20 -9 -20 -2 4 20 -14 -20 -20 -20 39 39 16 26 -20 -20 22 -4 -1 11 14 9 -7 -20 10 -20 -20
-19 -10 -20 1 -20 -20 -20 11 10 9 10 4 -1 7 11 9 24 -20 -20 -20 -20 -20 -17 -15 27 20 -20 -20 -20 -20 -2 -6 17 23 19 27 29 26 19 18 -1 -20 -20 -20 -19 -20 -20
-2 -20 -20 -15 -20 -20 -20 -4 13 10 13 13 9 -4 -8 -20 -20 -20 12 -20 -2 24 -5 20 18 -20 13 -20 8 -12 25 17 31 6 6 19 10 27 -20 -20 -20 -20 -19 -11 -17 -20 -20
-16 -20 -9 -16 -20 -7 -20 -6 14 10 11 12 11 -2 13 -20 -20 -20 -20 1 -15 -8 13 -20 -20 -20 -18 33 8 29 -18 15 28 5 2 29 -9 11 -20 -20 -20 -20 -20 -20 -13 -20 2
-13 -20 -9 -20 -8 -2 -20 -20 12 10 7 13 12 7 -20 8 -20 -15 -12 -12 -20 -20 10 -17 16 -10 11 30 42 27 21 -2 17 -13 11 4 19 19 21 -20 -20 -20 -20 -20 -16 -20 -20
-20 -20 -8 -20 -20 0 -5 -3 -10 13 -2 7 7 -6 -20 -20 4 3 -11 -20 -20 -14 21 -20 9 13 33 25 -3 -16 -9 32 28 8 15 -18 16 35 31 7 -20 -20 -20 -20 -9 -16 -20
-20 0 -20 -15 -20 -8 -1 -4 -19 -20 7 9 7 3 -20 -20 -9 -19 -11 -20 9 9 16 19 27 13 26 32 33 19 15 21 -18 -15 11 -19 -2 37 13 13 -20 0 -20 -20 -20 -3 -20
-20 -13 -20 -3 -20 -8 -1 -20 -20 -20 -20 9 9 -18 -20 -4 -20 -20 -20 -19 -18 3 24 33 32 34 37 30 36 36 34 7 -17 -13 -13 9 -4 27 23 -3 -16 -12 -20 -20 -20 -20 -20
-5 -16 -15 -17 -20 -20 -20 -20 -20 -20 -20 -18 13 -20 -20 -20 -14 -20 -1 8 -3 12 24 17 11 19 7 15 23 33 37 30 18 30 32 30 22 21 2 -17 11 -20 9 9 -14 -5 -13
-18 -20 -20 -20 -20 -20 -20 -16 -20 -20 -20 -6 -20 -20 -20 -20 -20 2 -10 -20 -20 -5 -2 -7 -9 -5 10 10 3 16 31 19 21 11 32 30 28 33 34 -19 -9 -19 13 15 -1 -4 -20
-20 -20 -20 -20 1 -20 -20 -1 -20 -20 -20 -20 -20 -20 -20 -20 -20 -6 -20 -20 -19 -11 -2 -18 2 -17 4 8 -11 -19 2 1 -18 -20 3 7 16 27 24 30 12 27 -16 -20 -20 -20 -20
-20 -20 -20 -20 -8 -20 -20 -5 -20 -20 -20 -20 -20 -20 -20 -20 -20 -20 -1 -5 -18 -20 -20 -20 -15 -20 -20 -0 -18 -20 2 -20 -20 -20 -19 -20 19 22 29 32 35 27 1 -17 -20 -20 -20
-20 -20 -20 -20 -15 -20 -20 -20 -20 -20 -20 -20 -20 -20 -20 -20 -20 -20 -9 4 -16 -20 -19 -20 -20 -20 -11 -7 -19 -18 -20 -20 -20 -20 -20 -20 -4 6 -20 -17 -7 -14 -18 -2 -16 -20 -20
-20 -20 -20 -20 -5 -20 -20 -20 -20 -20 -20 -20 -20 -11 -20 -20 -2 -20 -2 -19 -20 -20 -20 -20 -20 -20 -2 -20 -20 -20 -20 -20 -20 -20 -20 -20 -20 -1 6 -20 -20 -20 -20 -20 -20 -20 -20
-20 -19 -18 -16 -20 -8 -20 -20 -20 -20 -20 6 -20 -20 -20 -20 -16 -20 -20 -20 -20 -20 -20 -20 -20 -20 -20 -20 -18 -20 -20 -20 -20 -20 -20 -20 -20 -10 -8 -18 -20 -20 -20 -20 -20 -20 -20
-20 -20 1 9 -20 0 -20 -20 -20 -20 -20 -10 -20 -12 -18 -20 -20 -6 -20 -20 -20 -20 -20 -20 -20 -20 -20 -20 -20 -20 -20 -20 -20 -20 -20 -20 -20 -20 -20 -20 -20 -20 -20 -20 -20 -20 -20
-20 10 12 13 2 -14 -11 -20 -20 -20 -20 -20 -20 -20 -17 -14 -5 -20 -20 -20 -20 -20 -20 -20 -20 -20 -20 -20 -20 -20 -20 -20 -20 -20 -20 -20 -20 -20 -20 -20 -20 -20 -20 -20 -20 -20 -20
-20 8 5 8 -8 -17 -7 -20 -20 -20 -20 -20 -20 -2 -12 -18 -20 -20 4 -20 -20 -20 -20 -20 -20 -20 -20 -20 -20 -20 -20 -20 -20 -20 -20 -20 -20 -20 -20 -20 -20 -20 -20 -20 -20 -20 -20
-20 -19 -14 -20 -20 -20 -15 -20 -20 -20 -20 -20 -20 1 6 -20 -20 -17 -4 8 -2 -20 -20 -20 -20 -20 -20 -20 -20 -20 -20 -20 -20 -20 -20 -20 -20 -20 -20 -20 -20 -20 -20 -20 -20 -20 -20
-20 -20 3 -11 -20 -16 -15 2 -20 -20 -20 -20 -20 -11 6 -20 -20 -20 -20 -20 -20 -6 3 -20 -20 -20 -20 -20 -20 -20 -20 -20 -20 -20 -20 -20 -20 -20 -20 -20 -20 -20 -20 -20 -20 -20 -20
-20 -20 -7 -14 12 -20 15 -15 -14 -20 -20 -20 -19 3 2 1 -20 -20 -20 -12 -20 -20 6 -20 -20 -20 -20 -20 -14 -6 0 -4 -11 -20 -20 -20 -7 -1 -20 -20 -20 -20 -20 -20 -20 -20 -20
-20 -20 2 -7 -20 -20 -7 -20 8 -14 -20 -20 -20 -20 10 8 -18 -20 -19 -5 -15 10 -17 -20 -20 -20 -20 8 9 -12 -19 -20 -3 -2 -20 -20 -11 -16 -1 -20 -20 -20 -20 -20 -20 -6 -20
-20 -13 5 -19 -20 -6 6 -20 13 14 -20 -16 -4 -13 -15 2 -20 -18 9 25 6 -13 13 -20 -20 -19 -20 -17 15 -11 -20 -20 -5 -12 1 5 7 1 -19 -20 -20 -20 -20 -20 -6 7 -20
-20 2 -13 -14 -3 -20 -0 -20 -7 10 15 -7 6 -20 1 5 -20 -17 -16 -4 22 -11 14 -6 3 -13 -1 10 10 3 -3 -5 -15 -14 -11 3 -6 -12 -13 -20 -20 -20 -20 -14 -14 -20 -20
-20 -18 -20 0 -20 -20 15 -20 -20 18 -20 4 2 -3 1 17 -20 -19 -19 -20 19 8 4 -16 14 -17 15 13 -17 -18 -20 -3 -14 -7 -20 -20 -20 -7 -20 -10 -20 -20 -18 -20 -20 -20 -17

GFSGBSN_prec_radar_060.txt.gz
Reflectivity
-20 -13 -20 -20 -20 11 -7 7 6 -7 -10 6 9 10 18 23 12 20 -13 9 -1 -7 4 -20 -13 -2 -20 12 -9 -20 -20 -20 -20 -10 -3 14 -20 -4 -4 -20 -20 -20 -20 -20 0 -7 -20
-12 -20 -20 -20 7 -16 1 -13 -20 -20 12 10 7 10 20 20 -6 26 -6 -20 -7 -6 25 28 16 -20 -9 -20 -20 -20 -20 -6 17 18 31 -17 -20 -5 -20 -0 -20 -20 -16 3 -16 -20 -20
-20 -20 -20 -20 2 -1 -20 -18 14 15 7 7 8 9 16 8 22 -6 -18 -2 15 6 15 -20 -20 -20 -2 -20 -16 -20 -20 -20 3 11 19 -20 -20 -20 -20 8 -20 -20 8 9 3 -20 -13
-19 -20 -20 4 -20 -20 -20 1 3 8 5 12 15 11 11 17 20 26 18 -20 -20 -20 -20 -20 7 5 -16 -20 -20 -20 -20 12 -3 23 21 -20 -20 -20 -11 -15 6 7 -17 -14 -0 -20 7
-19 -20 -20 -15 -20 -20 -8 3 9 12 10 8 9 6 7 5 -20 -20 -20 -20 -20 -20 -20 -3 3 -2 -18 -20 -20 -20 -20 6 -8 16 -20 -20 -20 -8 -15 3 8 16 -20 -20 -20 -13 12
-20 -20 -20 -9 -9 -9 -20 -20 11 10 8 8 3 9 5 -20 -20 -20 -20 -20 -20 -20 -12 -4 16 23 -20 -17 -20 -20 -20 5 18 19 27 28 16 -2 8 26 -11 -15 -20 -20 -20 -20 8
-20 -20 -20 -20 3 5 -20 -20 -20 16 9 4 -11 8 -20 -19 -20 -20 -20 -20 -5 2 -16 -18 9 -8 -11 -20 -20 -10 1 22 24 22 42 4 13 -20 -20 -20 -20 -20 -20 -20 -20 -4 -9
-20 -20 -20 2 7 10 -5 -19 -20 7 7 8 -5 7 -20 -20 -20 -20 -20 -12 -4 -20 -16 -20 -20 -20 -20 -20 -16 -20 29 37 15 30 8 19 -11 -20 -20 -20 -19 -20 -20 -20 -20 -20 -10
-20 -20 -20 1 8 -2 -10 -7 -20 -4 -1 12 6 -10 -12 -20 -20 -6 -20 -20 -20 -9 -11 0 0 -8 -18 -18 5 17 39 39 45 37 0 -4 -6 -20 -6 -20 -8 -20 -20 -20 -20 -20 -20
-20 -20 -20 -6 10 11 -14 -18 -20 -17 -20 -17 13 10 -19 -20 -16 -17 -19 -20 -20 -7 8 13 13 20 7 -6 -1 13 24 28 33 22 9 21 -13 -20 -2 -15 -20 5 -20 -20 -20 -20 -18
-20 -20 -20 -20 -1 14 -5 -20 -20 -20 -20 -20 13 12 -20 -20 4 -20 -20 -16 -20 -13 -1 4 7 10 34 39 23 29 9 -0 25 8 -20 17 17 -15 10 -15 -17 -19 -20 -20 -20 -20 -4
-20 -20 -20 -20 5 12 14 12 -14 -20 -20 -20 -8 15 -20 -20 -1 -20 -20 -12 -5 -14 19 34 16 32 35 9 1 -17 -20 0 17 -20 -20 -9 -9 6 24 32 12 -4 -20 -20 -20 -20 -18
-20 -20 -20 -20 -20 16 -3 6 -6 -20 -20 -20 -20 -10 -20 -20 -3 -20 -18 -20 -5 -12 7 24 41 29 24 3 -12 -7 9 18 19 -13 4 4 -12 21 34 38 12 17 -20 -9 14 2 -20
-20 -20 -20 -20 -20 -17 -2 -17 -20 -20 -20 -20 -20 -20 -20 -20 -20 -19 -20 -4 -20 -11 -16 -8 17 8 9 33 36 34 27 1 5 -20 -18 -19 -4 13 32 20 13 10 -13 -20 -20 -3 -20
-20 -20 -20 -20 -20 -9 -20 -20 -20 -20 -20 -20 -20 -20 -20 -20 -20 -1 -4 -20 -20 -20 -19 -20 -12 7 29 -11 1 26 12 2 26 24 28 22 9 12 29 30 -20 -13 -20 -20 -20 -20 -20
-20 -20 -20 -20 -20 -20 -20 -20 -20 -20 -20 -20 -20 -20 -20 -20 -20 -20 -18 4 -20 -20 -20 -20 5 -7 -19 -20 -20 4 4 -20 -20 -9 6 4 -8 26 25 17 -5 -20 -20 -20 -20 -20 -20
-20 -20 -20 -13 -20 -20 -20 -20 -20 -20 -20 -20 -20 -20 -20 -20 -20 -20 -20 -19 -20 -20 -20 -20 -16 -20 -20 -20 -17 -16 -14 -20 -20 -20 -20 -2 9 24 16 32 26 27 9 -20 -20 -20 -20
-20 -20 -17 4 -20 -10 -20 -20 -20 -20 -20 -20 -20 -8 -20 -20 -20 -8 -20 -20 -20 -20 -20 -20 -20 -20 -19 -20 -20 -20 -19 -20 -20 -20 -20 -20 -13 1 -3 -17 -3 24 -0 8 -15 -20 -20
-20 -20 -20 15 -7 -20 -8 -20 -20 -20 -20 2 -20 -20 -20 -20 -16 -13 -20 -20 -20 -20 -20 -20 -20 -20 -20 -20 -19 -20 -20 -20 -20 -20 -20 -20 -20 -9 -20 -20 -16 -20 3 -0 -8 4 2
-20 -20 0 14 13 -20 -5 -20 -20 -20 -20 -20 -20 -20 -20 -1 -20 -20 -20 -20 -20 -20 -20 -20 -20 -20 -20 -20 -20 -20 -20 -20 -20 -20 -20 -20 -20 -20 -20 -14 -18 -20 -20 -20 -20 -20 -17
-20 -20 -6 -14 -14 -20 -20 -20 -20 -20 -20 -20 -20 -19 -15 -20 -20 -20 -20 -15 -20 -20 -20 -20 -20 -20 -20 -20 -20 -20 -20 -20 -20 -20 -20 -20 -20 -20 -20 -20 -20 -20 -20 -20 -20 -20 -20
-20 -20 -20 -20 -20 -20 7 -20 -20 -20 -20 -20 -20 2 -20 -5 -20 -20 -4 -12 -20 -20 -20 -20 -20 -20 -20 -20 -20 -20 -20 -20 -20 -20 -20 -20 -20 -20 -20 -20 -20 -20 -20 -20 -20 -20 -20
-20 -20 -20 -20 -20 -20 7 -20 -20 -20 -20 -20 -20 -20 -1 -20 -20 -11 -3 7 -16 -20 -20 -20 -20 -20 -20 -20 -20 -20 -20 -20 -20 -20 -20 -20 -20 -20 -20 -20 -20 -20 -20 -20 -20 -20 -20
-20 -20 -20 5 -7 -20 -16 -20 -19 -20 -20 -20 -20 -1 -8 -20 -20 -17 -20 -20 -20 1 -6 -20 -20 -20 -20 -20 -20 -20 -20 -20 -20 -20 -20 -20 -20 -20 -20 -20 -20 -20 -20 -20 -20 -20 -20
-20 -20 -20 -18 -15 -20 -18 -20 -20 -20 -20 -20 -20 -7 -10 -20 -20 -20 -20 -20 -20 -15 -6 12 -20 -20 -20 -20 -13 -20 -4 -20 -20 -20 -20 -20 -20 -20 -20 -20 -20 -20 -20 -20 -20 -20 -20
-20 -20 -20 2 -20 -20 -16 -15 8 -3 -20 -20 -19 -20 0 2 -20 -20 -19 -20 -20 -20 12 -20 -20 -20 -20 -20 -10 1 -17 -16 -8 -13 -20 -20 -20 -15 -3 -20 -20 -20 -20 -20 -20 -20 -20
-20 -20 -20 -13 -8 -20 -18 6 -20 -20 -15 -20 -19 -18 -6 -20 -20 -20 -20 2 15 -16 18 -19 -20 -20 -20 -18 6 -20 -9 -17 -5 -7 -20 -20 -10 4 -4 -16 -20 -20 -20 -20 -14 -18 -20
-20 -20 -20 -12 -16 -20 -20 -18 -20 -20 13 -18 -20 -16 15 10 -20 -20 -20 -20 -12 6 4 -2 -7 -20 -20 1 -10 -11 -20 -14 -0 -14 -20 -2 4 5 4 1 -20 -20 -20 -20 -16 -20 -20
-20 -20 -20 -20 -20 -20 -13 -20 3 -20 -1 12 1 -20 12 6 -20 -20 -20 -20 -7 21 20 10 0 4 8 5 -19 -20 -20 -20 -20 -10 -20 -20 -20 -20 -20 -20 -20 -20 -20 -20 -20 -20 -20

GFSGBSN_prec_radar_063.txt.gz
Reflectivity
-20 -20 -20 -7 11 -20 -20 14 10 12 -0 1 -0 11 0 3 5 10 -0 30 -20 -16 -19 -20 -20 7 -18 1 -20 12 -18 -19 11 0 4 -15 -20 -8 -19 -20 -9 2 8 5 6 7 8
-20 -20 -3 15 -19 0 -5 2 12 8 -1 8 11 14 9 12 14 12 17 29 2 16 13 10 -20 -20 -10 1 -12 23 -19 -20 6 22 23 13 -20 -20 -19 -3 -20 -2 -9 14 9 -20 -20
-20 -20 -6 14 1 -20 -11 -20 6 13 4 10 11 17 3 4 7 -12 -20 -16 -20 -18 -8 -17 -20 -20 -16 11 -20 -6 -19 -10 -2 19 4 21 -20 -20 -20 -20 -20 -19 5 11 9 -20 -20
-20 -20 -20 6 14 6 -14 -20 6 14 11 8 7 10 4 -7 -20 -20 -20 -20 -20 -20 -20 -20 -17 -20 -20 -20 -20 15 14 -20 0 3 16 -20 1 -20 16 3 -17 11 -20 5 -20 -20 -20
-20 -20 -20 13 13 11 13 -20 -20 15 9 17 6 9 -10 -19 -20 -20 -20 -20 -20 -20 -20 -12 -3 -20 -20 -20 -20 -20 -20 12 -0 13 17 -16 11 -20 -20 -12 16 22 -20 -20 -20 -20 -20
-20 -20 -20 13 10 17 -20 -20 0 -19 16 9 14 4 -20 -15 -20 -20 -20 -20 -20 -20 -20 -20 3 -20 -20 -13 -20 -20 -20 12 5 -12 14 27 19 -16 6 -3 -15 -11 -20 -20 -20 -20 -20
-20 -20 -20 4 15 -4 -4 -5 -4 -7 -7 14 14 12 5 -20 -20 -20 -20 -20 -20 -20 -20 -20 -20 -20 -20 -20 -20 -20 -20 9 30 8 29 21 -9 -8 -20 -20 -20 -20 -20 -20 -20 -20 -20
-20 -20 -20 -1 17 7 6 4 -18 -2 -2 -4 13 14 -2 -20 -20 -20 -20 -20 -20 -20 -20 -20 -20 -20 -20 -20 -20 -20 -20 -16 29 33 46 21 -9 -20 -20 -20 -20 -20 -20 -20 -20 -20 -20
-20 -20 -20 -4 12 11 14 15 15 -3 -6 -2 1 14 1 -20 -20 -20 -20 -20 -20 -15 -2 17 -2 -2 -20 -20 -20 4 -20 -20 19 40 28 -14 -20 -20 -20 -20 -20 -20 -20 -20 -20 -20 -20
-20 -20 -20 -18 -20 7 10 15 17 14 -20 -17 -8 -8 -6 -20 -20 -20 -20 -20 -20 -20 2 31 26 13 5 1 15 -0 -20 -8 9 35 34 7 -20 -20 3 -20 -20 -20 -20 -20 -20 -20 -20
-20 -20 -20 -20 -20 -5 14 10 13 -3 -14 -20 -18 15 -14 -20 -20 -20 -20 -20 -20 -17 14 5 1 15 11 27 17 40 32 21 6 28 -5 -17 -19 -20 12 -19 -20 -20 -20 -20 -20 -20 -20
-20 -20 -20 -20 -20 -19 3 -14 -20 -20 -20 -20 -20 13 -6 -20 -20 -20 -20 -20 -20 -6 23 24 5 32 16 15 35 25 28 43 28 36 -20 -11 -20 -20 -20 -20 -20 -20 -18 -20 -20 -20 -20
-20 -20 -20 -20 -20 -16 12 -14 -20 -20 -20 -20 -20 -6 -20 -20 -20 -20 -17 -20 -20 -15 3 28 35 -1 -20 -6 -14 -1 39 9 15 -19 7 21 -5 -13 -12 -19 -20 -20 -8 -20 -2 -19 -20
-20 -20 -20 -20 -20 -20 13 -17 -20 -20 -20 -20 -20 -20 -20 -20 -20 -20 -20 -20 -20 -20 -20 -19 20 -8 17 28 6 11 10 -2 -20 -20 -20 -19 12 18 -20 4 17 -19 -19 -20 -20 -20 -20
-20 -20 -20 -20 -20 -20 -3 -3 -20 -20 -20 -20 -20 -20 -20 -20 -20 -20 -20 -20 -20 -20 -20 -20 -13 1 -16 17 35 23 15 -19 -20 -20 -20 -20 -16 4 23 19 24 22 -4 -20 -20 -20 -20
-20 -20 -20 -20 -20 -20 -2 -7 -20 -20 -20 -20 -20 -20 -20 -20 -20 -20 -20 -20 -20 -20 -20 -20 -14 -20 -20 -14 -5 -20 -19 -17 -20 -20 -20 -20 -13 -14 -11 29 23 -2 6 -11 -20 -20 -20
-20 -20 -20 -20 -20 -20 -20 -19 -20 -20 -20 -20 -20 -20 -20 -20 -20 -20 -20 -20 -20 -20 -20 -20 -20 -20 -20 -20 -17 -20 -20 -20 -20 -20 -20 -20 -20 20 -5 20 25 18 -8 -20 -20 -20 -20
-20 -20 -20 -10 -20 -20 -14 -20 -20 -20 -20 -20 -20 -20 -20 -20 -20 -20 -20 -20 -20 -20 -20 -20 -20 -20 -20 -20 -20 -20 -20 -20 -20 -20 -20 -19 -20 -13 21 -19 -19 -20 -12 -18 -20 -20 -20
-20 -20 -20 -20 -5 -20 -20 -20 -20 -20 -20 -20 -20 -20 -20 -20 -18 -19 -20 -20 -20 -20 -20 -20 -20 -20 -20 -20 -20 -20 -20 -20 -20 -20 -20 -20 -11 -17 3 15 0 18 -20 -20 -20 -20 -20
-20 -20 -20 -20 -20 -20 -20 -20 -20 -20 -20 -20 -20 -20 -20 -11 -19 -3 -18 -20 -14 -20 -20 -20 -20 -20 -20 -20 -20 -20 -20 -20 -20 -20 -20 -20 -20 -20 -20 -20 -20 -20 -12 -20 -3 -3 -10
-20 -20 -20 -20 -20 -20 -20 -20 -20 -20 -20 -20 -20 -20 -15 -19 -20 -20 -20 -15 -20 -20 -20 -20 -20 -20 -20 -20 -20 -20 -20 -20 -20 -20 -20 -20 -20 -20 -20 -20 -20 -20 -20 -20 -20 -9 -20
-20 -20 -20 -20 -20 -7 -14 -20 -20 -20 -20 -20 -20 -20 -20 -20 -20 -20 -11 -20 -6 1 -20 -20 -20 -20 -20 -20 -20 -20 -20 -20 -20 -20 -20 -20 -20 -20 -20 -20 -20 -20 -20 -20 -20 -20 -20
-20 -20 -20 -20 -20 -20 -20 -20 -20 -20 -20 -20 -20 -20 -14 -20 -20 -20 -12 -20 -20 -7 -20 -20 -20 -20 -20 -20 -20 -20 -20 -20 -20 -20 -20 -20 -20 -20 -20 -20 -20 -20 -20 -20 -20 -20 -20
-20 -20 -20 -20 -20 -20 -20 -20 -20 -20 -20 -20 -20 -20 -19 -20 -20 -20 -20 -20 -20 -18 10 7 -20 -20 -20 -20 -20 -20 -20 -20 -20 -20 -20 -20 -20 -20 -20 -20 -20 -20 -20 -20 -20 -20 -20
-20 -20 -20 -20 -20 -20 -20 -20 -19 -20 -20 -20 -20 -20 -20 -20 -20 -20 -20 -20 -20 -20 -20 5 -20 -20 -20 -20 -20 -20 -20 -20 -20 -20 -20 -20 -20 -20 -20 -20 -20 -20 -20 -20 -20 -20 -20
-20 -20 -20 -20 -20 -20 -20 -20 -20 -20 -20 -20 -20 -20 -20 -20 -20 -20 -20 -20 -7 -12 5 -20 -20 -20 -20 -20 -20 -20 -20 -20 -13 -20 -20 -20 -20 -20 -20 -20 -20 -20 -20 -20 -20 -20 -20
-20 -20 -20 -13 -20 -20 -20 -18 -20 -20 -20 -20 -20 -20 -20 -13 -20 -20 -20 -20 7 14 -9 20 -20 -20 -20 -20 -20 -20 -20 -20 -20 -3 -20 -20 -20 -20 -20 -20 -20 -20 -20 -20 -20 -20 -20
-20 -20 -20 -20 -20 -20 -20 -20 -15 -20 -12 -20 -20 -20 -20 -20 -20 -20 -20 -20 -20 -10 10 30 -16 -20 -20 -20 -20 -17 -20 -20 -20 -20 -20 -20 -4 3 4 -11 -20 -20 -20 -12 -20 -20 -20
-20 -20 -20 -20 -20 -20 -20 -20 -20 4 -4 12 -20 -20 -20 -14 -20 -20 -20 -20 -20 -20 -20 34 14 -19 13 -20 -20 -20 -20 -20 -20 -20 -20 -20 -20 -20 -20 -20 -20 -20 -20 -20 -20 -20 -18

GFSGBSN_prec_radar_066.txt.gz
Reflectivity
-5 -1 14 18 9 -11 11 -18 1 11 14 11 7 10 9 15 9 12 -11 -20 4 25 -20 3 -20 -20 -20 -20 -20 -20 -20 -16 7 -17 -12 16 -20 -15 7 -20 -2 -4 9 18 22 25 25
-20 1 -1 18 2 7 16 -8 -19 10 10 18 15 11 5 2 -4 1 -5 -20 -7 -20 -20 -20 -20 -20 -20 -20 -20 -18 26 -20 5 12 -20 16 -10 -20 0 -12 5 -15 14 19 28 -10 19
-20 -1 -2 16 11 12 16 9 -20 4 14 16 17 10 3 -4 -20 -20 -20 -20 -20 -20 -20 -20 -20 -20 -20 -20 -20 -20 24 -8 -7 8 -13 18 -20 -20 -20 -20 -20 -8 18 11 5 10 14
-20 1 -4 17 15 13 7 7 -20 -17 15 16 14 10 7 -19 -20 -20 -20 -20 -20 -20 -20 -20 -20 -15 -20 -20 -20 8 14 15 -16 6 7 28 23 -20 -20 -20 15 21 13 9 11 -4 11
-20 -19 -6 4 9 5 11 -18 -19 -20 -4 16 11 10 5 -20 -20 -20 -20 -20 -20 -20 -20 -19 -20 -20 -20 -20 -19 1 12 -10 -20 -19 20 23 29 -20 20 3 1 25 4 -20 8 -8 4
-20 -20 -17 -1 16 11 14 14 11 -5 -1 -14 14 12 8 -19 -20 -20 -20 -20 -20 -20 -20 -4 -20 -20 -20 -20 -20 -18 4 -16 7 15 23 30 27 -19 8 -8 -12 -20 -20 -20 -12 0 -20
-20 -20 -20 -1 10 17 15 14 12 13 9 0 -0 13 15 -8 -20 -20 -20 -20 4 -20 -20 -20 -20 -20 -20 -20 -20 -0 6 -20 19 25 38 36 24 -20 -20 -20 -20 -20 -11 -20 -20 -2 -20
-20 -20 -20 -11 -16 11 13 4 14 14 15 -0 1 5 -1 -20 -20 -20 -20 -20 14 -20 -2 -20 -20 -20 -20 -20 -20 12 -8 -18 17 33 26 39 -20 -20 -20 -20 -20 -20 -20 -20 -20 -4 0
-20 -20 -20 -20 -4 1 10 15 -12 6 13 -1 -5 14 8 -20 -20 -20 -20 -20 -20 -20 -17 -20 -14 1 -20 -20 -15 11 -10 6 30 25 37 15 -17 -20 -20 -20 -20 -20 -20 -20 -20 -20 -20
-20 -20 -20 -20 -4 -2 -0 -18 -20 -3 2 -6 -7 -11 12 -20 -20 -20 -20 -20 -20 -20 -10 29 18 -15 -2 -20 -19 -6 -20 -17 13 8 34 10 -20 -20 -20 -20 -20 -20 -20 -20 -20 -20 -20
-20 -20 -20 -20 -7 -3 -5 -1 -20 -20 -2 -20 -20 -14 -17 -20 -20 -20 -20 -20 -20 -15 5 8 12 20 20 21 2 -20 -19 6 -0 -4 34 30 -20 -20 -20 -20 -20 -20 -20 -20 -20 -20 -20
-20 -20 -20 -20 -20 -20 -20 13 -12 -20 -20 -20 -20 -10 -11 -20 -20 -13 -20 -20 -17 -16 -8 19 11 17 20 -6 13 16 23 24 30 40 28 -20 -20 -20 -20 -20 -4 -20 -20 -20 -20 -20 -13
-20 -20 -20 -20 -20 -20 -20 10 -19 -20 -20 -20 -20 -20 -8 -20 -20 -20 -20 -20 -20 -20 -0 -7 30 1 27 34 19 28 19 22 22 32 22 3 -13 -20 -20 -20 -8 -20 -20 -20 4 -5 -20
-20 -20 -20 -20 -20 -20 -20 -18 -20 -20 -20 -20 -20 -20 -20 -20 -20 -20 -20 -20 -20 -20 -20 -15 20 34 8 4 30 38 36 35 -7 -13 -3 -18 14 -20 -20 -20 -0 9 -20 -20 -20 -20 -20
-20 -20 -20 -20 -20 -20 -20 -20 -20 -20 -20 -20 -20 -20 -20 -20 -20 -20 -20 -20 -20 -20 -20 -20 -20 7 34 0 22 9 -2 -20 -20 -20 -20 -20 -20 -16 -20 -20 -20 -13 -20 -20 -20 -20 -20
-20 -20 -20 -20 -20 -20 -20 -20 -20 -20 -20 -20 -20 -20 -20 -20 -20 -20 -20 -20 -20 -20 -20 -20 -20 -20 -3 -19 -7 -20 -20 -20 -20 -20 -20 -20 -20 -6 -18 -19 3 -18 -20 -20 -20 -20 -20
-20 -20 -20 -20 -20 -20 -20 -20 -20 -20 -20 -20 -20 -20 -20 -20 -20 -20 -20 -20 -20 -20 -20 -20 -20 -20 -20 -20 -20 -20 -20 -20 -20 -20 -20 -20 -20 -1 6 13 7 31 -10 -20 -20 -20 -20
-20 -20 -20 -20 -20 -20 -20 -20 -20 -20 -20 -20 -20 -20 -20 -20 -20 -20 -20 -20 -20 -20 -20 -20 -20 -20 -20 -20 -20 -20 -20 -20 -20 -20 -20 -20 -20 6 11 -16 -14 -8 -20 -20 -20 -20 -20
-20 -20 -20 -20 -20 -20 -20 -20 -20 -20 -20 -20 -20 -20 -20 -20 -17 -20 -20 -20 -20 -20 -20 -20 -20 -20 -20 -20 -20 -20 -20 -20 -20 -20 -20 -20 -20 -20 -17 -20 -11 10 -20 -20 -20 -20 -20
-20 -20 -20 -20 -20 -20 -20 -20 -20 -20 -20 -20 -20 -20 -20 -20 -8 -17 -20 -11 -20 -20 -20 -20 -20 -20 -20 -20 -20 -20 -20 -20 -20 -20 -20 -20 -20 -20 -20 -20 -20 -20 -20 -20 -20 -20 -20
-20 -20 -20 -20 -20 -20 -20 -20 -20 -20 -20 -20 -20 -20 -20 -20 -20 -12 -20 -9 -19 -15 -20 -20 -20 -20 -20 -20 -20 -20 -20 -20 -20 -20 -20 -20 -20 -20 -20 -20 -20 -20 -20 -20 -20 -10 -18
-20 -20 -20 -20 -20 -20 -20 -20 -20 -20 -20 -20 -20 -20 -20 -20 -20 -20 -20 -20 9 -9 -20 -20 -20 -20 -20 -20 -20 -20 -20 -20 -20 -20 -20 -20 -20 -20 -20 -20 -20 -20 -20 -20 -20 -20 -20
-20 -20 -20 -20 -20 -20 -20 -20 -20 -20 -20 -20 -20 -20 -20 -20 -20 -20 -20 -20 -12 -10 -20 -20 -20 -20 -20 -20 -20 -20 -20 -20 -20 -20 -20 -20 -20 -20 -20 -20 -20 -20 -20 -20 -20 -20 -20
-20 -20 -20 -20 -20 -20 -20 -20 -20 -20 -20 -20 -20 -20 -20 -20 -20 -20 -20 -20 -20 -17 -20 -20 -20 -20 -20 -20 -20 -20 -20 -20 -20 -20 -20 -20 -20 -20 -20 -20 -20 -20 -20 -20 -20 -20 -20
-20 -20 -20 -20 -20 -20 -20 -20 -20 -20 -20 -20 -20 -20 -20 -20 -20 -20 -20 -20 -20 -20 -20 -20 -15 -20 -20 -20 -20 -20 -20 -20 -20 -20 -20 -20 -20 -20 -20 -20 -20 -20 -20 -20 -20 -20 -20
-20 -20 -20 -20 -20 -20 -20 -20 -18 -20 -20 -20 -20 -20 -20 -20 -20 -20 -20 -20 -20 -1 -18 15 -18 -20 -20 -20 -20 -20 -20 -20 -20 -20 -20 -20 -20 -20 -20 -20 -20 -20 -20 -20 -20 -20 -20
-20 -20 -20 -20 -20 -20 -20 -20 7 10 -9 -20 -20 -20 -20 -20 -20 -20 -20 -20 -20 -5 -17 23 -20 -20 -20 -20 -20 -20 -20 -20 -20 -20 -20 -20 -20 -20 -20 -20 -20 -20 -20 -20 -20 -20 -20
-20 -20 -20 -20 -20 -20 -20 -20 -4 10 16 -20 -20 -20 -20 -20 -20 -20 -20 -20 -20 -20 -20 5 22 -18 -19 13 -7 -20 -20 -20 -20 -20 -20 -20 -11 -13 -19 -17 -20 -20 -20 -20 -20 -20 -20
-20 -20 -20 -20 -20 -20 -20 -20 -17 12 15 13 0 -20 -19 8 -20 -20 -20 -20 -20 -20 -15 -16 28 3 14 -20 -20 -20 -20 -20 -20 -20 -20 -20 -20 -20 -20 -20 -20 -20 -20 -20 -20 -20 -20

GFSGBSN_prec_radar_069.txt.gz
Reflectivity
10 -1 1 3 9 15 11 13 -20 -7 6 15 11 14 11 19 4 9 -13 -20 -20 17 -13 -20 -20 -20 -20 -20 -20 -4 -15 7 1 6 2 6 -20 -20 -3 2 -12 -19 20 7 21 26 25
-0 -2 -12 -2 16 15 10 -6 -19 -11 -9 8 14 12 13 -5 1 -2 9 -20 -20 -20 -20 -20 -20 -20 -20 -20 -20 -20 -20 4 -7 16 -1 -12 -20 -20 -18 -20 11 -19 -20 13 19 26 20
-4 -4 -14 -3 3 17 7 2 -20 -20 -19 8 11 14 12 -17 -4 -20 -19 -4 -5 -20 -20 -20 -20 -20 -20 -20 -20 -20 -20 -19 -6 12 2 -11 -3 -20 -20 -16 -20 -20 -20 -0 -14 24 22
-20 -6 -20 -20 12 -13 8 15 15 -1 -20 -15 10 14 11 11 -16 -19 -20 -20 -20 -20 -20 5 -8 -20 -20 -20 -20 -20 -20 -1 -20 1 12 6 7 -20 -19 -20 -20 6 7 -4 -9 26 27
-20 -20 -20 -20 -20 17 6 11 12 11 13 -19 2 11 14 4 -0 -20 -7 7 -20 -20 -20 -18 -20 -20 -20 -20 -20 -20 7 20 24 17 13 20 26 -20 -19 -20 -20 10 -20 -20 7 24 17
-20 -20 -20 -20 -20 -6 7 11 16 15 12 10 -19 14 13 15 1 -20 -20 -20 -20 -20 -20 -20 -4 -20 -20 -20 -20 -20 7 29 28 -13 23 26 33 -20 -20 -4 -16 -20 -20 -20 1 6 9
-20 -20 -20 -20 -20 -20 9 14 14 13 9 13 -20 -20 13 15 1 -20 -20 -20 -20 -20 -20 -20 -20 -20 -20 -20 -20 24 10 25 2 6 20 7 32 -12 -20 -20 -20 -20 -20 -20 -4 2 11
-20 -20 -20 -20 -7 -20 -20 -20 -2 14 15 14 -4 -6 12 13 -20 -20 -20 -20 -20 -20 -20 -20 -20 -20 -20 -20 -20 -19 1 -13 20 16 26 22 29 0 -20 -20 -20 -20 -20 -20 -4 9 1
-20 -20 -20 -20 -14 -20 -5 6 1 16 18 12 -1 -14 12 8 -20 -20 -20 -20 -20 -20 -17 -5 -20 -20 -20 -20 -13 -20 -11 -20 13 17 12 22 20 13 -20 -20 -12 -20 -20 -20 -20 -9 -15
-20 -20 -20 -20 -20 -20 -12 -20 15 9 15 9 -1 -3 15 -11 -20 -20 -20 -20 -20 -20 -20 28 4 -20 2 -20 -2 -4 -20 3 27 32 1 24 27 -20 -20 -8 -20 -20 -20 -20 -20 -18 -20
-20 -20 -20 -20 -20 -20 -3 -17 -4 3 5 -0 -20 -2 15 4 -20 -20 -20 -20 -20 -19 -19 19 9 2 -17 13 7 -11 -20 9 18 35 39 33 -13 -20 -20 -20 -20 -20 -20 -20 -20 -20 -20
-20 -20 -20 -20 -20 -20 -16 -20 -20 -2 -2 -20 -20 7 10 -20 -20 -20 -16 -20 -20 -16 -20 31 12 15 11 14 -8 -20 -5 1 11 28 32 14 -17 -20 -20 -20 -20 -20 -20 -20 -20 -20 -20
-20 -20 -20 -20 -20 -20 -20 -20 -20 -20 -14 -20 -20 -20 4 -20 -20 -14 -7 -20 -20 -20 -20 9 22 27 -19 13 22 24 6 6 34 21 25 9 -19 -20 -20 -20 -20 -20 -20 -20 -3 -9 -20
-20 -20 -20 -20 -20 -20 -19 -18 -20 -20 -20 -20 -20 -20 -20 -20 -20 -20 -5 -20 -20 -20 -20 -14 22 8 6 8 0 -2 -20 3 10 31 29 8 14 -20 -20 -20 -20 -20 -20 -20 -20 -20 -20
-20 -20 -20 -20 -20 -20 -20 -18 -20 -20 -20 -20 -20 -20 -20 -20 -20 -20 6 -20 -20 -20 -20 -20 -18 -13 -2 17 34 12 14 -1 -20 2 7 -13 -11 -18 -20 -20 -20 -20 -20 -20 -20 -20 -20
-20 -20 -20 -20 -20 -20 -5 -11 -20 -20 -20 -20 -20 -20 -20 -20 -20 -16 -20 -20 -20 -20 -20 -20 -20 -20 -20 -8 -1 -20 6 -15 -15 -7 -10 -19 -9 -20 -20 -20 -20 -20 -20 -20 -20 -20 -20
-20 -20 -20 -20 -20 -20 -20 -20 -20 -20 -20 -20 -20 -20 -20 -20 -20 -20 -20 -20 -20 -20 -20 -20 -20 -19 -20 -20 -20 -20 -20 -16 -20 -20 -20 -20 -20 -18 -8 2 -14 -20 -20 -20 -20 -20 -20
-20 -20 -20 -20 -20 -20 -20 -20 -20 -20 -20 -20 -20 -20 -20 -20 -20 -20 -20 -20 -20 -20 -20 -20 -20 -20 -20 -20 -20 -20 -20 -20 -20 -20 -20 -20 -20 -20 -13 -20 -19 -11 -10 -20 -20 -20 -20
-20 -20 -20 -20 -20 -20 -20 -20 -20 -20 -20 -20 -20 -20 -20 -20 -20 -20 -20 -20 -20 -20 -20 -20 -20 -20 -20 -20 -20 -20 -20 -20 -20 -20 -20 -20 -20 -20 -20 -20 -16 12 -1 -10 -20 -20 -20
-20 -20 -20 -20 -20 -20 -20 -20 -20 -20 -20 -20 -20 -20 -20 -20 -20 -20 -20 -20 -20 -20 -20 -20 -20 -20 -20 -20 -20 -20 -20 -20 -20 -20 -20 -20 -20 -20 -20 -20 -20 -9 4 -7 -20 -20 -20
-20 -20 -20 -20 -20 -20 -20 -20 -20 -20 -20 -20 -20 -20 -20 -20 -20 -20 -20 -20 -20 -20 -20 -20 -20 -20 -20 -20 -20 -20 -20 -20 -20 -20 -20 -16 -3 -20 -20 -20 -20 -20 -20 -20 -20 -20 -20
-20 -20 -20 -20 -20 -20 -20 -20 -20 -20 -20 -20 -20 -20 -20 -20 -20 -20 -20 -20 -20 -20 -20 -20 -20 -20 -20 -20 -20 -20 -20 -20 -20 -20 -20 -20 -20 -20 -20 -20 -20 -20 -20 -20 -20 -20 -20
-20 -20 -20 -20 -20 -20 -20 -20 -20 -20 -20 -20 -20 -20 -20 -20 -20 -20 -20 -20 -20 -20 -19 -20 -20 -20 -20 -20 -20 -20 -20 -20 -20 -20 -20 -20 -20 -20 -20 -20 -20 -20 -20 -20 -20 -20 -20
-20 -20 -20 -20 -20 -20 -20 -20 -20 -20 -20 -20 -20 -20 -20 -20 -20 -20 -20 -20 -20 -20 -20 -20 -20 -20 -20 -20 -20 -20 -20 -20 -20 -20 -20 -20 -20 -20 -20 -20 -20 -20 -20 -20 -20 -20 -20
-20 -20 -20 -20 -20 -20 -20 -20 -20 -20 -20 -20 -20 -20 -20 -20 -20 -20 -20 -20 -20 -20 -20 -20 -20 -20 -20 -20 -20 -20 -20 -20 -20 -20 -20 -20 -20 -20 -20 -20 -20 -20 -20 -20 -20 -20 -20
-20 -20 -20 -20 -20 -20 -20 -20 -20 -20 -20 -20 -20 -20 -20 -20 -20 -20 -20 -20 -20 -14 -20 -20 -20 -20 -20 -20 -20 -20 -20 -20 -20 -20 -20 -20 -20 -20 -20 -20 -20 -20 -20 -20 -20 -20 -20
-20 -20 -20 -20 -20 -20 -20 -20 -20 -20 -10 -20 -20 -20 -20 -20 -20 -20 -20 -20 -20 -20 -20 -19 -7 -16 -20 -20 -11 -20 -20 -20 -20 -20 -20 -20 -20 -20 -20 -20 -20 -20 -20 -20 -20 -20 -20
-20 6 -4 -20 -20 -20 -20 -20 -20 -20 12 -20 -20 -9 -13 -20 -20 -20 -20 -20 -20 -20 -20 -15 19 -8 -19 6 6 -20 -20 -20 -20 -20 -20 -20 -20 -20 -20 -20 -20 -20 -20 -20 -20 -20 -20
10 12 -2 -20 -20 -20 -20 -20 -9 -20 -17 -20 -20 -20 -20 -10 -20 -20 -20 -20 -20 -20 -20 -20 13 20 24 10 -20 -20 -20 -20 -20 -20 -20 -20 -20 -20 -20 -20 -20 -20 -20 -20 -20 -20 -20

GFSGBSN_prec_radar_072.txt.gz
Reflectivity
-11 -20 -2 -8 16 15 10 -15 -20 -20 -20 11 5 8 12 12 -18 -10 6 -12 -20 -20 -20 -20 -20 -20 -20 -20 -20 -1 -8 6 24 17 -0 10 11 -20 -4 13 -20 -20 18 5 6 17 14
-20 -17 -20 -16 4 1 15 6 6 -20 -20 -18 12 9 9 14 3 -4 -20 -1 -20 -20 -20 -20 -20 -20 -20 -20 -20 -20 -20 18 16 16 8 15 1 -20 7 9 12 -19 -20 -4 34 21 19
-20 -20 -12 -20 -20 15 4 6 7 13 10 -17 -20 9 15 9 10 8 3 -20 -15 -20 -20 -20 -20 -20 -20 -20 -20 -20 -20 22 22 9 15 -5 19 -18 -20 2 4 -20 16 13 8 30 27
-20 -20 -20 -20 -20 -17 14 7 16 10 8 11 6 2 15 9 10 7 3 14 -20 -20 -20 -20 -20 -20 -20 -20 -20 -20 -20 -19 -7 11 11 -2 25 -9 -20 -20 -20 22 -11 10 6 3 37
-20 -20 -20 -20 -20 -20 -10 13 14 6 12 15 15 4 12 16 4 11 -20 -20 -20 -20 -20 -20 -20 -20 -20 -20 -20 -20 -20 -20 -20 15 18 -1 35 -20 -19 -3 -12 14 -18 -20 -20 10 -3
-20 -20 -20 -20 -20 -12 -2 14 -10 10 15 15 14 17 16 14 10 3 2 -20 -20 -20 -20 -20 -20 -20 -20 -20 -20 -20 -20 -20 -6 -1 21 22 34 -16 -20 -2 -20 -20 -20 -20 -20 -2 -4
-20 -20 -20 -20 -20 -20 -20 15 9 13 16 8 14 15 13 15 12 -9 -20 -20 -20 -20 -20 -20 -20 -20 -20 -20 -20 -20 16 24 3 33 12 9 31 18 -20 -20 -20 -20 -20 -20 -20 -20 -2
-20 -20 -20 -20 -20 -20 -18 1 -19 14 10 13 15 15 17 15 10 -7 -20 -20 -20 -20 -20 -20 -20 -20 -20 -20 -20 8 10 12 33 15 6 15 28 18 -20 -20 -20 -20 -20 -20 -20 -20 -20
-20 -20 -20 -20 -20 -20 -5 -3 3 16 15 15 17 18 12 15 -3 -20 -20 -20 -20 -20 -20 -20 -20 -20 -20 -20 -20 1 14 29 31 -14 21 10 28 23 -20 -11 -20 -20 -20 -20 -20 -20 -20
-20 -20 -20 -20 -20 -20 -5 -5 4 16 13 15 5 0 16 13 -18 -20 -20 -20 -20 -20 -20 -10 -9 -14 7 -2 -20 -13 -18 11 -18 -8 14 8 -4 4 -20 -10 -20 -20 -20 -20 -20 -20 -19
-20 -20 -20 -20 -20 -20 -4 -7 8 17 17 14 -3 14 14 14 -20 -20 -20 -20 -20 -20 -8 25 -18 3 -16 15 -18 -20 -20 -5 -19 27 13 16 16 6 12 9 -20 -20 -20 -20 -20 -20 -20
-20 -20 -20 -20 -20 -20 -13 -4 -5 14 11 -3 -12 13 13 -20 -20 -20 -17 -20 -20 -20 -20 26 13 7 -11 -10 -15 -20 3 -6 4 -20 -20 4 -0 31 8 -20 -20 -20 1 -20 -20 -20 -20
-20 -20 -20 -20 -20 -20 -20 -3 -5 2 -2 -20 -15 -20 -20 -20 -20 4 -2 -20 -20 -20 -20 5 31 9 7 -4 -6 2 -9 -20 -20 -20 -20 20 26 26 -20 -7 -20 -20 -20 -14 -11 -20 -20
-20 -20 -20 -20 -20 -20 -20 10 -20 -0 -14 -20 -20 -20 -20 -20 -20 -2 -6 -20 -20 -20 -20 -6 1 19 33 26 23 7 4 -5 17 38 35 29 28 20 -20 -20 -17 -20 -20 -20 -20 -20 -20
-20 -20 -20 -20 -20 -20 -2 -4 -20 -14 -20 -20 -20 -20 -20 -20 -20 16 -5 -20 -20 -20 -20 -20 1 -20 9 3 7 -6 -20 -18 31 35 15 -3 -1 -2 -20 -20 -20 -20 -20 -20 -20 -20 -20
-20 -20 -20 -20 -20 -20 -10 -14 -20 -20 -20 -20 -20 -20 -20 -20 -20 5 -20 -20 -20 -20 -20 -20 -20 -20 -20 -20 -18 1 5 -18 -18 28 15 -18 -20 -20 -20 -20 -20 -20 -20 -20 -20 -20 -20
-20 -20 -20 -20 -20 -20 -20 -20 -20 -20 -20 -20 -20 -20 -20 -12 -6 -5 -20 -20 -20 -20 -20 -20 -20 -20 -20 -20 -20 -20 -20 -20 -20 -20 -20 -20 -20 -9 -20 -20 -20 -20 -20 -20 -20 -20 -20
-20 -20 -20 -20 -20 -20 -20 -20 -20 -20 -20 -20 -20 -20 -20 -20 -9 -20 -20 -20 -20 -20 -20 -20 -20 -20 -20 -20 -20 -20 -20 -20 -20 -20 -20 -20 -20 -19 -19 -20 -20 -20 -20 -20 -20 -20 -20
-20 -20 -20 -20 -20 -20 -20 -20 -20 -20 -20 -20 -20 -20 -20 -20 -20 -20 -20 -20 -20 -20 -20 -20 -20 -20 -20 -20 -20 -20 -20 -20 -20 -20 -20 -20 -20 -20 -19 -20 -20 -20 -20 -20 -20 -20 -20
-20 -20 -20 -20 -20 -20 -20 -20 -20 -20 -20 -20 -20 -20 -20 -20 -20 -20 -20 -20 -20 -20 -20 -20 -20 -20 -20 -20 -20 -20 -20 -20 -20 -20 -20 -20 -20 -20 -20 -20 -20 -12 -19 -7 -20 -19 -20
-20 -20 -20 -20 -20 -20 -20 -20 -20 -20 -20 -20 -20 -20 -20 -20 -20 -20 -20 -20 -20 -20 -20 -20 -20 -20 -20 -20 -20 -20 -20 -20 -20 -20 -20 -20 -20 -20 -20 -20 -20 -20 -20 -12 -5 -20 -16
-20 -20 -20 -20 -20 -20 -20 -20 -20 -20 -20 -20 -20 -20 -20 -20 -20 -20 -20 -20 -20 -20 -20 -20 -20 -20 -20 -20 -20 -20 -20 -20 -20 -20 -20 -20 -20 -3 7 -20 -20 -20 -20 -20 -20 -20 -20
-20 -20 -20 -20 -20 -20 -20 -20 -20 -20 -20 -20 -20 -20 -20 -20 -20 -20 -20 -20 -20 -20 -20 -20 -20 -20 -20 -20 -20 -20 -20 -20 -20 -20 -20 -20 -20 -20 -20 -20 -20 -20 -20 -20 -20 -20 -20
-20 -20 -20 -20 -20 -20 -20 -20 -20 -20 -20 -20 -20 -20 -20 -20 -20 -20 -20 -20 -20 -20 -20 -20 -20 -20 -20 -20 -20 -20 -20 -20 -20 -20 -20 -20 -20 -20 -20 -20 -20 -20 -20 -20 -20 -20 -20
-20 -20 -20 -20 -20 -20 -20 -20 -20 -20 -20 -20 -20 -20 -20 -20 -20 -20 -20 -20 -20 -20 -20 -20 -9 -20 -20 -20 -20 -20 -20 -20 -20 -20 -20 -20 -20 -20 -20 -20 -20 -20 -20 -20 -20 -20 -20
-20 -20 -20 -20 -20 -20 -20 -20 -20 -20 -20 -20 -20 -20 -20 -20 -20 -20 -20 -20 -20 -20 -20 -20 -20 -20 -20 -20 -20 -20 -20 -20 -20 -20 -20 -20 -20 -20 -20 -20 -20 -20 -20 -20 -20 -20 -20
-20 -20 -20 -20 -20 -20 -20 -20 -20 -20 -20 -20 -20 -20 -20 -20 -20 -20 -20 -20 -20 -20 -20 -20 -20 -20 -20 -12 4 -7 -20 -20 -20 -20 -20 -20 -20 -11 -20 -20 -20 -20 -20 -20 -20 -20 -20
-1 -20 -20 -20 -20 -20 -20 -20 -20 -20 -20 -20 -20 -20 -20 -20 -20 -20 -20 -20 -20 -20 -20 -20 -14 15 5 13 10 -20 -20 -20 -20 -20 -20 -20 -20 -20 -20 -18 -20 -20 -20 -20 -20 -20 -20
-8 -20 -20 -20 -20 -20 -20 -20 -20 -20 -20 -20 -20 -20 -20 -20 -20 -20 -20 -20 -20 -20 -20 -20 -11 24 29 8 -13 -7 -20 -20 -20 -20 -20 -20 -20 -20 -20 -20 -20 -20 -20 -20 -20 -20 -20

GFSGBSN_prec_radar_075.txt.gz
Reflectivity
-20 -20 -20 -20 -20 12 -13 14 11 16 13 -7 -19 14 7 -11 3 -3 -20 6 -8 -20 -20 -20 -20 -20 -20 -20 -20 -20 -20 -20 28 30 7 14 19 -10 0 8 -20 -19 -4 19 -2 -5 -8
-20 -20 -20 -20 -20 -20 2 3 10 16 13 15 11 -16 16 4 11 -16 8 -20 3 -20 -20 -20 -20 -20 -20 -20 -20 -20 -20 4 14 33 -11 9 23 -20 -10 8 -2 -20 -20 12 6 19 28
-20 -20 -20 -20 -20 0 -20 7 -3 -3 17 15 15 -7 -4 12 -8 12 -14 12 -20 -20 -20 -20 -20 -20 -20 -20 -20 -20 -20 20 -3 8 -13 5 22 10 -18 14 4 11 -20 7 -16 20 15
-20 -20 -20 -20 -20 -17 -15 -12 10 6 18 13 15 17 -1 -11 16 -20 14 -20 -16 -20 -20 -20 -20 -20 -20 -20 -20 -20 -20 -12 25 8 14 7 18 2 -20 -20 16 12 13 -17 -20 -9 21
-20 -20 -20 -20 -20 -5 -2 -7 10 11 14 15 15 15 14 12 14 -20 10 -20 -20 -20 -20 -20 -20 -20 -20 -20 -20 -20 -20 -20 22 8 13 18 29 6 1 12 -9 -8 -18 -16 1 -20 -17
-20 -20 -20 -20 -20 -14 -1 -20 11 -19 13 14 5 15 14 1 7 -7 13 -20 -20 -20 -20 -20 -20 -20 -20 -20 -20 -20 -20 -19 -7 7 16 19 14 21 -20 -3 -20 -20 -18 -20 -20 -19 -17
8 -20 -20 -20 -20 -20 -11 1 -18 11 6 16 17 16 13 7 16 -2 -20 -20 -20 -20 -20 -20 -20 -20 -20 -20 -20 -20 -20 -20 -20 5 27 9 35 29 -20 -20 -20 -20 -20 -20 -5 -20 -20
-13 -20 -20 -20 -20 -20 -7 -17 13 13 6 11 16 15 13 15 14 4 -20 -20 -20 -20 -20 -20 -20 -20 -20 -20 -20 9 -16 -20 -9 7 13 16 23 13 -20 -20 -20 -20 -20 -20 -20 -20 -20
-20 -20 -20 -20 -20 -20 -7 -3 -14 -1 15 15 14 16 16 15 9 -20 -20 -20 -20 -20 -20 -20 -20 -20 -20 -20 -20 23 16 -14 20 7 20 12 10 28 8 13 -3 -20 -20 -20 -20 -20 -20
-18 -6 -20 -20 -20 -20 -15 -19 -20 14 9 12 18 16 16 12 -20 -20 -20 -20 -20 -20 -20 -20 -20 -20 -20 -20 -10 23 22 -20 34 20 7 -5 26 20 10 13 -2 -20 -20 -20 -20 -20 -20
-4 9 -20 -20 -20 -20 -20 -17 -19 15 -0 17 15 17 14 -4 -20 -20 -20 -20 -20 -20 -20 25 5 -20 -20 -19 -19 -20 9 -18 10 -15 20 30 18 26 4 11 -20 -16 -20 -20 -20 -20 -20
13 9 -20 -20 -20 -20 -20 -20 6 5 15 11 9 17 13 -17 -20 -20 -20 -20 -20 -20 -20 21 28 0 -18 -20 -4 -20 -3 12 -20 -20 -3 -1 20 27 -20 -20 -20 -20 -20 -20 -20 -20 -11
9 -8 -20 -20 -20 -20 -20 -20 10 -1 7 -11 -18 -17 -17 -20 -20 -20 -17 -20 -20 -20 -19 19 30 2 -18 -5 -20 -20 -7 -12 -20 -20 19 6 11 24 -17 0 -7 -20 -20 -20 -1 -19 -11
-19 -20 -20 -20 -20 -20 -20 -20 -2 -0 -4 -20 -20 -20 -20 -20 -5 -1 -20 -20 -20 -20 -20 4 7 30 17 2 11 -18 -20 -20 -20 -20 -14 -10 10 32 -6 21 -19 -20 -20 -20 -20 -20 -20
-20 -20 -20 -20 -20 -20 -20 -7 -7 -9 -20 -20 -20 -20 -20 -20 -20 2 -17 -20 -20 -20 -20 8 -1 10 24 9 -0 9 -7 3 -20 -20 -20 -11 23 2 -20 -20 -20 -20 -20 -20 -20 -20 -20
-20 -20 -20 -20 -20 -20 -20 -20 -20 -20 -20 -20 -20 -20 -20 -16 -17 8 -11 -20 -20 -20 -20 -20 -20 -20 3 -10 -16 -18 -20 -9 34 6 -19 -18 7 -4 -9 -17 -20 -20 -20 -20 -20 -20 -20
-20 -20 -20 -20 -20 -20 -20 -20 -20 -20 -20 -20 -20 -20 -20 -5 -4 -14 -20 -20 -20 -20 -20 -20 -20 -20 -20 -16 -20 -20 -20 -20 14 30 -1 -15 -20 19 -19 -20 -20 -20 -20 -20 -20 -20 -20
-20 -20 -20 -20 -20 -20 -20 -20 -20 -20 -20 -20 -20 -20 -20 -20 -6 -20 -20 -20 -20 -20 -20 -20 -20 -20 -20 -20 -20 -20 -20 -20 -20 -20 -19 13 -13 -1 -9 -20 -20 -20 -20 -20 -20 -20 -20
-20 -20 -20 -20 -20 -20 -20 -20 -20 -20 -20 -20 -20 -20 -20 8 -20 -20 -20 -20 -20 -20 -20 -20 -20 -20 -20 -20 -20 -20 -20 -20 -20 -20 -20 -20 -20 -20 -20 -20 -20 -20 -20 -20 -20 -20 -20
-20 -20 -20 -20 -20 -20 -20 -20 -20 -20 -20 -20 -20 -20 -20 -20 -20 -20 -20 -20 -20 -20 -20 -20 -20 -20 -20 -20 -20 -20 -20 -20 -20 -20 -20 -20 -20 -20 -20 -20 -20 -20 -20 -20 -20 -20 -20
-20 -20 -20 -20 -20 -20 -20 -20 -20 -20 -20 -20 -20 -20 -20 -20 -20 -20 -20 -20 -20 -20 -20 -20 -20 -20 -20 -20 -20 -20 -20 -20 -20 -20 -20 -20 -20 -20 -20 -20 -20 -20 -20 -20 -20 -20 -20
-20 -20 -20 -20 -20 -20 -20 -20 -20 -20 -20 -20 -20 -20 -20 -20 -20 -20 -20 -20 -20 -20 -20 -20 -20 -20 -20 -20 -20 -20 -20 -20 -20 -20 -20 -20 -20 -20 -20 -20 -20 -20 -20 -20 -20 -20 -20
-20 -20 -20 -20 -20 -20 -20 -20 -20 -20 -20 -20 -20 -20 -20 -20 -20 -20 -20 -20 -20 -20 -20 -20 -20 -20 -20 -20 -20 -20 -20 -20 -20 -20 -20 -20 -20 -20 -20 -20 -20 -20 -16 -20 -20 -20 -20
9 -20 -20 -20 -20 -20 -20 -20 -20 -20 -20 -20 -20 -20 -20 -20 -20 -20 -20 -20 -20 -20 -20 -20 -20 -20 -20 -20 -20 -20 -20 -20 -20 -20 -20 -20 -20 -20 -20 -20 -20 -20 -9 -20 -20 -20 -20
15 -8 -20 -20 -20 -20 -20 -20 -20 -20 -20 -20 -20 -20 -20 -20 -20 -20 -20 -20 -20 -20 -20 -20 -20 -20 -20 -20 -20 -20 -20 -20 -20 -20 -20 -20 -20 -20 -20 -20 -20 -20 -20 -20 -20 -20 -20
17 0 -20 -20 -20 -14 -20 -20 -20 -20 -20 -20 -20 -20 -20 -20 -20 -20 -20 -20 -20 -20 -20 -20 -20 -20 -20 -20 -20 -19 -20 -20 -20 -20 -20 -20 -20 -20 -20 -20 -20 -20 -20 -20 -20 -20 -20
14 -7 -20 -20 -20 -20 -20 -20 -20 -20 -20 -20 -20 -20 -20 -20 -20 -20 -20 -20 -20 -20 -20 -20 -20 -20 -20 -20 -20 -17 -20 -20 -20 -20 -20 -20 -20 -14 -20 -20 -20 -20 -20 -20 -20 -20 -20
-15 5 -20 -19 -20 -20 -20 -20 -20 -20 -20 -20 -20 -20 -20 -20 -20 -20 -20 -20 -20 -20 -20 -20 -20 -20 -20 1 -17 -20 -20 -20 -20 -20 -20 -20 -20 -20 -20 -11 -16 -20 -20 -20 -20 -20 -20
-1 -17 -20 -20 -20 -20 -20 -20 -20 -20 -20 -20 -20 -20 -20 -20 -20 -20 -20 -20 -20 -20 -20 -20 -19 -16 20 17 21 -20 -20 -20 -20 -20 -20 -20 -20 -20 -20 -20 -20 -20 -20 -20 -20 -20 -20